<?xml version="1.0" encoding="UTF-8" standalone="no" ?>
<gpx xmlns="http://www.topografix.com/GPX/1/1" xmlns:xsi="http://www.w3.org/2001/XMLSchema-instance" xsi:schemaLocation="http://www.topografix.com/GPX/1/1 http://www.topografix.com/GPX/1/1/gpx.xsd" version="1.1" creator="VisuGPX - https://www.visugpx.com">
  <metadata>
    <name>J5 Jura</name>
    <desc><![CDATA[#jura ]]></desc>
  </metadata>
  <trk>
    <name><![CDATA[J5 Jura_1]]></name>
    <trkseg>
      <trkpt lat="47.39448" lon="6.49849">
        <ele>275.2</ele>
        <time>2022-06-21T06:30:09Z</time>
      </trkpt>
      <trkpt lat="47.3945" lon="6.49849">
        <ele>290.2</ele>
        <time>2022-06-21T06:30:10Z</time>
      </trkpt>
      <trkpt lat="47.39446" lon="6.49847">
        <ele>290.2</ele>
        <time>2022-06-21T06:30:11Z</time>
      </trkpt>
      <trkpt lat="47.39445" lon="6.49849">
        <ele>290.2</ele>
        <time>2022-06-21T06:30:12Z</time>
      </trkpt>
      <trkpt lat="47.39445" lon="6.4985">
        <ele>290.2</ele>
        <time>2022-06-21T06:30:13Z</time>
      </trkpt>
      <trkpt lat="47.39444" lon="6.49848">
        <ele>276</ele>
        <time>2022-06-21T06:30:14Z</time>
      </trkpt>
      <trkpt lat="47.39444" lon="6.49846">
        <ele>276</ele>
        <time>2022-06-21T06:30:15Z</time>
      </trkpt>
      <trkpt lat="47.39445" lon="6.49841">
        <ele>276</ele>
        <time>2022-06-21T06:30:16Z</time>
      </trkpt>
      <trkpt lat="47.39445" lon="6.49837">
        <ele>276</ele>
        <time>2022-06-21T06:30:17Z</time>
      </trkpt>
      <trkpt lat="47.39444" lon="6.49832">
        <ele>276.2</ele>
        <time>2022-06-21T06:30:18Z</time>
      </trkpt>
      <trkpt lat="47.39441" lon="6.4983">
        <ele>276.2</ele>
        <time>2022-06-21T06:30:19Z</time>
      </trkpt>
      <trkpt lat="47.3944" lon="6.49826">
        <ele>276.2</ele>
        <time>2022-06-21T06:30:20Z</time>
      </trkpt>
      <trkpt lat="47.39436" lon="6.49823">
        <ele>276.2</ele>
        <time>2022-06-21T06:30:21Z</time>
      </trkpt>
      <trkpt lat="47.39433" lon="6.4982">
        <ele>276.2</ele>
        <time>2022-06-21T06:30:22Z</time>
      </trkpt>
      <trkpt lat="47.39391" lon="6.49753">
        <ele>278.2</ele>
        <time>2022-06-21T06:30:44Z</time>
      </trkpt>
      <trkpt lat="47.3934" lon="6.49702">
        <ele>279</ele>
        <time>2022-06-21T06:31:04Z</time>
      </trkpt>
      <trkpt lat="47.39299" lon="6.49638">
        <ele>276.6</ele>
        <time>2022-06-21T06:31:15Z</time>
      </trkpt>
      <trkpt lat="47.39265" lon="6.49581">
        <ele>273.4</ele>
        <time>2022-06-21T06:31:22Z</time>
      </trkpt>
      <trkpt lat="47.39261" lon="6.49572">
        <ele>273.2</ele>
        <time>2022-06-21T06:31:23Z</time>
      </trkpt>
      <trkpt lat="47.39224" lon="6.49516">
        <ele>276.2</ele>
        <time>2022-06-21T06:31:36Z</time>
      </trkpt>
      <trkpt lat="47.39195" lon="6.49447">
        <ele>277.2</ele>
        <time>2022-06-21T06:31:53Z</time>
      </trkpt>
      <trkpt lat="47.39205" lon="6.49428">
        <ele>277</ele>
        <time>2022-06-21T06:31:57Z</time>
      </trkpt>
      <trkpt lat="47.39227" lon="6.494">
        <ele>273.6</ele>
        <time>2022-06-21T06:32:02Z</time>
      </trkpt>
      <trkpt lat="47.39237" lon="6.49389">
        <ele>273</ele>
        <time>2022-06-21T06:32:04Z</time>
      </trkpt>
      <trkpt lat="47.39243" lon="6.49385">
        <ele>272.6</ele>
        <time>2022-06-21T06:32:05Z</time>
      </trkpt>
      <trkpt lat="47.3925" lon="6.49382">
        <ele>272.4</ele>
        <time>2022-06-21T06:32:06Z</time>
      </trkpt>
      <trkpt lat="47.39256" lon="6.4938">
        <ele>272.4</ele>
        <time>2022-06-21T06:32:07Z</time>
      </trkpt>
      <trkpt lat="47.39262" lon="6.49379">
        <ele>272.4</ele>
        <time>2022-06-21T06:32:08Z</time>
      </trkpt>
      <trkpt lat="47.39267" lon="6.4938">
        <ele>271.6</ele>
        <time>2022-06-21T06:32:09Z</time>
      </trkpt>
      <trkpt lat="47.39272" lon="6.4938">
        <ele>271.2</ele>
        <time>2022-06-21T06:32:10Z</time>
      </trkpt>
      <trkpt lat="47.39276" lon="6.49379">
        <ele>271.8</ele>
        <time>2022-06-21T06:32:11Z</time>
      </trkpt>
      <trkpt lat="47.39336" lon="6.49367">
        <ele>272.2</ele>
        <time>2022-06-21T06:32:28Z</time>
      </trkpt>
      <trkpt lat="47.39391" lon="6.49362">
        <ele>272.2</ele>
        <time>2022-06-21T06:32:44Z</time>
      </trkpt>
      <trkpt lat="47.39398" lon="6.49366">
        <ele>271.6</ele>
        <time>2022-06-21T06:33:00Z</time>
      </trkpt>
      <trkpt lat="47.39404" lon="6.49376">
        <ele>271.8</ele>
        <time>2022-06-21T06:33:41Z</time>
      </trkpt>
      <trkpt lat="47.39461" lon="6.4941">
        <ele>269.8</ele>
        <time>2022-06-21T06:34:00Z</time>
      </trkpt>
      <trkpt lat="47.39507" lon="6.49471">
        <ele>270.4</ele>
        <time>2022-06-21T06:34:14Z</time>
      </trkpt>
      <trkpt lat="47.39546" lon="6.49535">
        <ele>270.4</ele>
        <time>2022-06-21T06:34:27Z</time>
      </trkpt>
      <trkpt lat="47.39583" lon="6.49602">
        <ele>270.8</ele>
        <time>2022-06-21T06:34:40Z</time>
      </trkpt>
      <trkpt lat="47.39618" lon="6.49669">
        <ele>270.6</ele>
        <time>2022-06-21T06:34:53Z</time>
      </trkpt>
      <trkpt lat="47.39647" lon="6.49726">
        <ele>272.6</ele>
        <time>2022-06-21T06:35:05Z</time>
      </trkpt>
      <trkpt lat="47.39678" lon="6.49798">
        <ele>274.6</ele>
        <time>2022-06-21T06:35:24Z</time>
      </trkpt>
      <trkpt lat="47.39711" lon="6.49869">
        <ele>273</ele>
        <time>2022-06-21T06:35:40Z</time>
      </trkpt>
      <trkpt lat="47.39741" lon="6.49942">
        <ele>273</ele>
        <time>2022-06-21T06:35:53Z</time>
      </trkpt>
      <trkpt lat="47.39765" lon="6.50018">
        <ele>272.8</ele>
        <time>2022-06-21T06:36:05Z</time>
      </trkpt>
      <trkpt lat="47.39767" lon="6.50031">
        <ele>272.6</ele>
        <time>2022-06-21T06:36:07Z</time>
      </trkpt>
      <trkpt lat="47.39771" lon="6.50122">
        <ele>272.2</ele>
        <time>2022-06-21T06:36:20Z</time>
      </trkpt>
      <trkpt lat="47.39765" lon="6.50206">
        <ele>272</ele>
        <time>2022-06-21T06:36:32Z</time>
      </trkpt>
      <trkpt lat="47.39763" lon="6.50228">
        <ele>271.8</ele>
        <time>2022-06-21T06:36:35Z</time>
      </trkpt>
      <trkpt lat="47.39762" lon="6.50235">
        <ele>271.6</ele>
        <time>2022-06-21T06:36:36Z</time>
      </trkpt>
      <trkpt lat="47.39752" lon="6.50315">
        <ele>271.6</ele>
        <time>2022-06-21T06:36:47Z</time>
      </trkpt>
      <trkpt lat="47.39748" lon="6.50359">
        <ele>271.6</ele>
        <time>2022-06-21T06:36:53Z</time>
      </trkpt>
      <trkpt lat="47.39742" lon="6.50403">
        <ele>272</ele>
        <time>2022-06-21T06:36:59Z</time>
      </trkpt>
      <trkpt lat="47.39735" lon="6.50472">
        <ele>271.2</ele>
        <time>2022-06-21T06:37:08Z</time>
      </trkpt>
      <trkpt lat="47.39736" lon="6.5048">
        <ele>270.8</ele>
        <time>2022-06-21T06:37:09Z</time>
      </trkpt>
      <trkpt lat="47.39739" lon="6.50497">
        <ele>270.8</ele>
        <time>2022-06-21T06:37:11Z</time>
      </trkpt>
      <trkpt lat="47.39741" lon="6.50505">
        <ele>270.8</ele>
        <time>2022-06-21T06:37:12Z</time>
      </trkpt>
      <trkpt lat="47.39755" lon="6.5054">
        <ele>270.6</ele>
        <time>2022-06-21T06:37:17Z</time>
      </trkpt>
      <trkpt lat="47.39798" lon="6.50604">
        <ele>271</ele>
        <time>2022-06-21T06:37:28Z</time>
      </trkpt>
      <trkpt lat="47.39849" lon="6.5066">
        <ele>270.4</ele>
        <time>2022-06-21T06:37:40Z</time>
      </trkpt>
      <trkpt lat="47.39878" lon="6.50689">
        <ele>273</ele>
        <time>2022-06-21T06:37:47Z</time>
      </trkpt>
      <trkpt lat="47.3993" lon="6.50739">
        <ele>273.2</ele>
        <time>2022-06-21T06:37:59Z</time>
      </trkpt>
      <trkpt lat="47.39982" lon="6.50781">
        <ele>274</ele>
        <time>2022-06-21T06:38:11Z</time>
      </trkpt>
      <trkpt lat="47.40035" lon="6.50822">
        <ele>273.8</ele>
        <time>2022-06-21T06:38:23Z</time>
      </trkpt>
      <trkpt lat="47.40089" lon="6.50861">
        <ele>274.2</ele>
        <time>2022-06-21T06:38:35Z</time>
      </trkpt>
      <trkpt lat="47.40142" lon="6.509">
        <ele>274.2</ele>
        <time>2022-06-21T06:38:47Z</time>
      </trkpt>
      <trkpt lat="47.40193" lon="6.50937">
        <ele>273.8</ele>
        <time>2022-06-21T06:38:59Z</time>
      </trkpt>
      <trkpt lat="47.40248" lon="6.50976">
        <ele>274</ele>
        <time>2022-06-21T06:39:12Z</time>
      </trkpt>
      <trkpt lat="47.40302" lon="6.51014">
        <ele>274</ele>
        <time>2022-06-21T06:39:26Z</time>
      </trkpt>
      <trkpt lat="47.40353" lon="6.51053">
        <ele>273.4</ele>
        <time>2022-06-21T06:39:39Z</time>
      </trkpt>
      <trkpt lat="47.40407" lon="6.5109">
        <ele>274.6</ele>
        <time>2022-06-21T06:39:52Z</time>
      </trkpt>
      <trkpt lat="47.40465" lon="6.5111">
        <ele>274.2</ele>
        <time>2022-06-21T06:40:05Z</time>
      </trkpt>
      <trkpt lat="47.40524" lon="6.51117">
        <ele>274.2</ele>
        <time>2022-06-21T06:40:17Z</time>
      </trkpt>
      <trkpt lat="47.40581" lon="6.51116">
        <ele>274.2</ele>
        <time>2022-06-21T06:40:28Z</time>
      </trkpt>
      <trkpt lat="47.40641" lon="6.51118">
        <ele>274</ele>
        <time>2022-06-21T06:40:40Z</time>
      </trkpt>
      <trkpt lat="47.40698" lon="6.51122">
        <ele>274.2</ele>
        <time>2022-06-21T06:40:51Z</time>
      </trkpt>
      <trkpt lat="47.40757" lon="6.51128">
        <ele>274.2</ele>
        <time>2022-06-21T06:41:02Z</time>
      </trkpt>
      <trkpt lat="47.40815" lon="6.51132">
        <ele>274.2</ele>
        <time>2022-06-21T06:41:13Z</time>
      </trkpt>
      <trkpt lat="47.40873" lon="6.51139">
        <ele>274.4</ele>
        <time>2022-06-21T06:41:24Z</time>
      </trkpt>
      <trkpt lat="47.40931" lon="6.51144">
        <ele>274.6</ele>
        <time>2022-06-21T06:41:35Z</time>
      </trkpt>
      <trkpt lat="47.40991" lon="6.51147">
        <ele>274.2</ele>
        <time>2022-06-21T06:41:46Z</time>
      </trkpt>
      <trkpt lat="47.4105" lon="6.51154">
        <ele>272.2</ele>
        <time>2022-06-21T06:41:57Z</time>
      </trkpt>
      <trkpt lat="47.41108" lon="6.51162">
        <ele>272</ele>
        <time>2022-06-21T06:42:08Z</time>
      </trkpt>
      <trkpt lat="47.41164" lon="6.51173">
        <ele>272.2</ele>
        <time>2022-06-21T06:42:19Z</time>
      </trkpt>
      <trkpt lat="47.41219" lon="6.51186">
        <ele>271.6</ele>
        <time>2022-06-21T06:42:31Z</time>
      </trkpt>
      <trkpt lat="47.41235" lon="6.51191">
        <ele>272</ele>
        <time>2022-06-21T06:42:34Z</time>
      </trkpt>
      <trkpt lat="47.41297" lon="6.51204">
        <ele>272.2</ele>
        <time>2022-06-21T06:42:47Z</time>
      </trkpt>
      <trkpt lat="47.41356" lon="6.51229">
        <ele>272.4</ele>
        <time>2022-06-21T06:42:59Z</time>
      </trkpt>
      <trkpt lat="47.41413" lon="6.51261">
        <ele>272.2</ele>
        <time>2022-06-21T06:43:11Z</time>
      </trkpt>
      <trkpt lat="47.41464" lon="6.51303">
        <ele>272.6</ele>
        <time>2022-06-21T06:43:22Z</time>
      </trkpt>
      <trkpt lat="47.41511" lon="6.51359">
        <ele>272.8</ele>
        <time>2022-06-21T06:43:33Z</time>
      </trkpt>
      <trkpt lat="47.4155" lon="6.51425">
        <ele>271.8</ele>
        <time>2022-06-21T06:43:44Z</time>
      </trkpt>
      <trkpt lat="47.41587" lon="6.51492">
        <ele>272.6</ele>
        <time>2022-06-21T06:43:55Z</time>
      </trkpt>
      <trkpt lat="47.41601" lon="6.51516">
        <ele>272.4</ele>
        <time>2022-06-21T06:43:59Z</time>
      </trkpt>
      <trkpt lat="47.41636" lon="6.51588">
        <ele>272.2</ele>
        <time>2022-06-21T06:44:10Z</time>
      </trkpt>
      <trkpt lat="47.4166" lon="6.51671">
        <ele>272.4</ele>
        <time>2022-06-21T06:44:22Z</time>
      </trkpt>
      <trkpt lat="47.41672" lon="6.51754">
        <ele>272.4</ele>
        <time>2022-06-21T06:44:33Z</time>
      </trkpt>
      <trkpt lat="47.41669" lon="6.51839">
        <ele>272.2</ele>
        <time>2022-06-21T06:44:44Z</time>
      </trkpt>
      <trkpt lat="47.41657" lon="6.51925">
        <ele>272.4</ele>
        <time>2022-06-21T06:44:55Z</time>
      </trkpt>
      <trkpt lat="47.41644" lon="6.52005">
        <ele>275.4</ele>
        <time>2022-06-21T06:45:07Z</time>
      </trkpt>
      <trkpt lat="47.41635" lon="6.52092">
        <ele>275.8</ele>
        <time>2022-06-21T06:45:25Z</time>
      </trkpt>
      <trkpt lat="47.41636" lon="6.52147">
        <ele>276.8</ele>
        <time>2022-06-21T06:45:36Z</time>
      </trkpt>
      <trkpt lat="47.41635" lon="6.52204">
        <ele>276.4</ele>
        <time>2022-06-21T06:45:44Z</time>
      </trkpt>
      <trkpt lat="47.41634" lon="6.5224">
        <ele>274.2</ele>
        <time>2022-06-21T06:45:49Z</time>
      </trkpt>
      <trkpt lat="47.41635" lon="6.52328">
        <ele>273.4</ele>
        <time>2022-06-21T06:46:00Z</time>
      </trkpt>
      <trkpt lat="47.41634" lon="6.52418">
        <ele>273.4</ele>
        <time>2022-06-21T06:46:11Z</time>
      </trkpt>
      <trkpt lat="47.41633" lon="6.52498">
        <ele>275.8</ele>
        <time>2022-06-21T06:46:21Z</time>
      </trkpt>
      <trkpt lat="47.41632" lon="6.52586">
        <ele>275.8</ele>
        <time>2022-06-21T06:46:33Z</time>
      </trkpt>
      <trkpt lat="47.4163" lon="6.52676">
        <ele>276</ele>
        <time>2022-06-21T06:46:45Z</time>
      </trkpt>
      <trkpt lat="47.41628" lon="6.52767">
        <ele>276</ele>
        <time>2022-06-21T06:46:57Z</time>
      </trkpt>
      <trkpt lat="47.41626" lon="6.52858">
        <ele>276</ele>
        <time>2022-06-21T06:47:09Z</time>
      </trkpt>
      <trkpt lat="47.41625" lon="6.52943">
        <ele>276</ele>
        <time>2022-06-21T06:47:20Z</time>
      </trkpt>
      <trkpt lat="47.41623" lon="6.53028">
        <ele>273.4</ele>
        <time>2022-06-21T06:47:31Z</time>
      </trkpt>
      <trkpt lat="47.41621" lon="6.53113">
        <ele>273.2</ele>
        <time>2022-06-21T06:47:42Z</time>
      </trkpt>
      <trkpt lat="47.4162" lon="6.53198">
        <ele>272.6</ele>
        <time>2022-06-21T06:47:53Z</time>
      </trkpt>
      <trkpt lat="47.41618" lon="6.53278">
        <ele>273</ele>
        <time>2022-06-21T06:48:04Z</time>
      </trkpt>
      <trkpt lat="47.41618" lon="6.53292">
        <ele>272.8</ele>
        <time>2022-06-21T06:48:06Z</time>
      </trkpt>
      <trkpt lat="47.41618" lon="6.53299">
        <ele>272.8</ele>
        <time>2022-06-21T06:48:07Z</time>
      </trkpt>
      <trkpt lat="47.41616" lon="6.53384">
        <ele>273</ele>
        <time>2022-06-21T06:48:19Z</time>
      </trkpt>
      <trkpt lat="47.41614" lon="6.53472">
        <ele>272.6</ele>
        <time>2022-06-21T06:48:32Z</time>
      </trkpt>
      <trkpt lat="47.41613" lon="6.53561">
        <ele>273.2</ele>
        <time>2022-06-21T06:48:45Z</time>
      </trkpt>
      <trkpt lat="47.41611" lon="6.53651">
        <ele>273.6</ele>
        <time>2022-06-21T06:48:58Z</time>
      </trkpt>
      <trkpt lat="47.41609" lon="6.53735">
        <ele>272.6</ele>
        <time>2022-06-21T06:49:10Z</time>
      </trkpt>
      <trkpt lat="47.41607" lon="6.53821">
        <ele>273</ele>
        <time>2022-06-21T06:49:22Z</time>
      </trkpt>
      <trkpt lat="47.41605" lon="6.5391">
        <ele>273.2</ele>
        <time>2022-06-21T06:49:34Z</time>
      </trkpt>
      <trkpt lat="47.41603" lon="6.53997">
        <ele>272.8</ele>
        <time>2022-06-21T06:49:46Z</time>
      </trkpt>
      <trkpt lat="47.41603" lon="6.54027">
        <ele>275.8</ele>
        <time>2022-06-21T06:49:50Z</time>
      </trkpt>
      <trkpt lat="47.41601" lon="6.54113">
        <ele>275.6</ele>
        <time>2022-06-21T06:50:02Z</time>
      </trkpt>
      <trkpt lat="47.41596" lon="6.54198">
        <ele>278</ele>
        <time>2022-06-21T06:50:23Z</time>
      </trkpt>
      <trkpt lat="47.41598" lon="6.54282">
        <ele>277.8</ele>
        <time>2022-06-21T06:50:39Z</time>
      </trkpt>
      <trkpt lat="47.41597" lon="6.54367">
        <ele>276.6</ele>
        <time>2022-06-21T06:50:52Z</time>
      </trkpt>
      <trkpt lat="47.41596" lon="6.54409">
        <ele>276</ele>
        <time>2022-06-21T06:50:58Z</time>
      </trkpt>
      <trkpt lat="47.41596" lon="6.54424">
        <ele>277.6</ele>
        <time>2022-06-21T06:51:00Z</time>
      </trkpt>
      <trkpt lat="47.41594" lon="6.54513">
        <ele>278.4</ele>
        <time>2022-06-21T06:51:12Z</time>
      </trkpt>
      <trkpt lat="47.41593" lon="6.54602">
        <ele>278</ele>
        <time>2022-06-21T06:51:24Z</time>
      </trkpt>
      <trkpt lat="47.41592" lon="6.54688">
        <ele>279.2</ele>
        <time>2022-06-21T06:51:35Z</time>
      </trkpt>
      <trkpt lat="47.41592" lon="6.54696">
        <ele>279.2</ele>
        <time>2022-06-21T06:51:36Z</time>
      </trkpt>
      <trkpt lat="47.41589" lon="6.54784">
        <ele>278.8</ele>
        <time>2022-06-21T06:51:47Z</time>
      </trkpt>
      <trkpt lat="47.41588" lon="6.54871">
        <ele>279</ele>
        <time>2022-06-21T06:51:58Z</time>
      </trkpt>
      <trkpt lat="47.41592" lon="6.54959">
        <ele>279</ele>
        <time>2022-06-21T06:52:09Z</time>
      </trkpt>
      <trkpt lat="47.41603" lon="6.55045">
        <ele>279.4</ele>
        <time>2022-06-21T06:52:20Z</time>
      </trkpt>
      <trkpt lat="47.41619" lon="6.55128">
        <ele>278.8</ele>
        <time>2022-06-21T06:52:31Z</time>
      </trkpt>
      <trkpt lat="47.41643" lon="6.55205">
        <ele>279.2</ele>
        <time>2022-06-21T06:52:42Z</time>
      </trkpt>
      <trkpt lat="47.41671" lon="6.55278">
        <ele>279.2</ele>
        <time>2022-06-21T06:52:53Z</time>
      </trkpt>
      <trkpt lat="47.41706" lon="6.55349">
        <ele>276.2</ele>
        <time>2022-06-21T06:53:04Z</time>
      </trkpt>
      <trkpt lat="47.41745" lon="6.5541">
        <ele>275.4</ele>
        <time>2022-06-21T06:53:15Z</time>
      </trkpt>
      <trkpt lat="47.41793" lon="6.55459">
        <ele>276.6</ele>
        <time>2022-06-21T06:53:26Z</time>
      </trkpt>
      <trkpt lat="47.41846" lon="6.55495">
        <ele>276</ele>
        <time>2022-06-21T06:53:37Z</time>
      </trkpt>
      <trkpt lat="47.41902" lon="6.55512">
        <ele>275.6</ele>
        <time>2022-06-21T06:53:48Z</time>
      </trkpt>
      <trkpt lat="47.41952" lon="6.55518">
        <ele>278.6</ele>
        <time>2022-06-21T06:53:58Z</time>
      </trkpt>
      <trkpt lat="47.41961" lon="6.55518">
        <ele>278.8</ele>
        <time>2022-06-21T06:54:00Z</time>
      </trkpt>
      <trkpt lat="47.41966" lon="6.55518">
        <ele>278.6</ele>
        <time>2022-06-21T06:54:01Z</time>
      </trkpt>
      <trkpt lat="47.42003" lon="6.55514">
        <ele>278.2</ele>
        <time>2022-06-21T06:54:09Z</time>
      </trkpt>
      <trkpt lat="47.42008" lon="6.55513">
        <ele>278.2</ele>
        <time>2022-06-21T06:54:10Z</time>
      </trkpt>
      <trkpt lat="47.42027" lon="6.55512">
        <ele>278</ele>
        <time>2022-06-21T06:54:14Z</time>
      </trkpt>
      <trkpt lat="47.42086" lon="6.55508">
        <ele>278.2</ele>
        <time>2022-06-21T06:54:26Z</time>
      </trkpt>
      <trkpt lat="47.42146" lon="6.55502">
        <ele>278.4</ele>
        <time>2022-06-21T06:54:38Z</time>
      </trkpt>
      <trkpt lat="47.42173" lon="6.55506">
        <ele>278.2</ele>
        <time>2022-06-21T06:54:44Z</time>
      </trkpt>
      <trkpt lat="47.42178" lon="6.55505">
        <ele>278</ele>
        <time>2022-06-21T06:54:45Z</time>
      </trkpt>
      <trkpt lat="47.42182" lon="6.55503">
        <ele>277.8</ele>
        <time>2022-06-21T06:54:46Z</time>
      </trkpt>
      <trkpt lat="47.42194" lon="6.55497">
        <ele>278.2</ele>
        <time>2022-06-21T06:54:49Z</time>
      </trkpt>
      <trkpt lat="47.42208" lon="6.55491">
        <ele>278.4</ele>
        <time>2022-06-21T06:54:52Z</time>
      </trkpt>
      <trkpt lat="47.42225" lon="6.55485">
        <ele>278.6</ele>
        <time>2022-06-21T06:54:56Z</time>
      </trkpt>
      <trkpt lat="47.4223" lon="6.55484">
        <ele>278.8</ele>
        <time>2022-06-21T06:54:57Z</time>
      </trkpt>
      <trkpt lat="47.42245" lon="6.55479">
        <ele>278.6</ele>
        <time>2022-06-21T06:55:00Z</time>
      </trkpt>
      <trkpt lat="47.42284" lon="6.55463">
        <ele>278</ele>
        <time>2022-06-21T06:55:18Z</time>
      </trkpt>
      <trkpt lat="47.42292" lon="6.5546">
        <ele>277.8</ele>
        <time>2022-06-21T07:04:12Z</time>
      </trkpt>
      <trkpt lat="47.42294" lon="6.55459">
        <ele>277.8</ele>
        <time>2022-06-21T07:04:13Z</time>
      </trkpt>
      <trkpt lat="47.42348" lon="6.55418">
        <ele>276.8</ele>
        <time>2022-06-21T07:04:28Z</time>
      </trkpt>
      <trkpt lat="47.42395" lon="6.55363">
        <ele>276.6</ele>
        <time>2022-06-21T07:04:40Z</time>
      </trkpt>
      <trkpt lat="47.42436" lon="6.5529">
        <ele>276.4</ele>
        <time>2022-06-21T07:04:52Z</time>
      </trkpt>
      <trkpt lat="47.42438" lon="6.55283">
        <ele>276.4</ele>
        <time>2022-06-21T07:04:53Z</time>
      </trkpt>
      <trkpt lat="47.42456" lon="6.552">
        <ele>277.2</ele>
        <time>2022-06-21T07:05:04Z</time>
      </trkpt>
      <trkpt lat="47.42475" lon="6.55115">
        <ele>278</ele>
        <time>2022-06-21T07:05:16Z</time>
      </trkpt>
      <trkpt lat="47.42502" lon="6.55037">
        <ele>281</ele>
        <time>2022-06-21T07:05:31Z</time>
      </trkpt>
      <trkpt lat="47.42515" lon="6.55012">
        <ele>280.4</ele>
        <time>2022-06-21T07:05:36Z</time>
      </trkpt>
      <trkpt lat="47.42537" lon="6.54985">
        <ele>280</ele>
        <time>2022-06-21T07:05:41Z</time>
      </trkpt>
      <trkpt lat="47.4259" lon="6.54942">
        <ele>279.6</ele>
        <time>2022-06-21T07:05:52Z</time>
      </trkpt>
      <trkpt lat="47.42629" lon="6.54904">
        <ele>278.6</ele>
        <time>2022-06-21T07:06:01Z</time>
      </trkpt>
      <trkpt lat="47.42633" lon="6.54897">
        <ele>278.4</ele>
        <time>2022-06-21T07:06:02Z</time>
      </trkpt>
      <trkpt lat="47.42642" lon="6.54875">
        <ele>277.8</ele>
        <time>2022-06-21T07:06:05Z</time>
      </trkpt>
      <trkpt lat="47.42645" lon="6.54867">
        <ele>277.8</ele>
        <time>2022-06-21T07:06:06Z</time>
      </trkpt>
      <trkpt lat="47.42669" lon="6.54784">
        <ele>277.8</ele>
        <time>2022-06-21T07:06:17Z</time>
      </trkpt>
      <trkpt lat="47.42689" lon="6.54702">
        <ele>278</ele>
        <time>2022-06-21T07:06:28Z</time>
      </trkpt>
      <trkpt lat="47.4269" lon="6.54695">
        <ele>278</ele>
        <time>2022-06-21T07:06:29Z</time>
      </trkpt>
      <trkpt lat="47.42692" lon="6.54687">
        <ele>278</ele>
        <time>2022-06-21T07:06:30Z</time>
      </trkpt>
      <trkpt lat="47.42707" lon="6.54627">
        <ele>278.2</ele>
        <time>2022-06-21T07:06:39Z</time>
      </trkpt>
      <trkpt lat="47.42733" lon="6.54547">
        <ele>277.6</ele>
        <time>2022-06-21T07:06:52Z</time>
      </trkpt>
      <trkpt lat="47.42738" lon="6.54529">
        <ele>277.6</ele>
        <time>2022-06-21T07:06:55Z</time>
      </trkpt>
      <trkpt lat="47.4274" lon="6.54524">
        <ele>277.8</ele>
        <time>2022-06-21T07:06:56Z</time>
      </trkpt>
      <trkpt lat="47.42765" lon="6.54446">
        <ele>278.2</ele>
        <time>2022-06-21T07:07:09Z</time>
      </trkpt>
      <trkpt lat="47.42787" lon="6.54367">
        <ele>278.4</ele>
        <time>2022-06-21T07:07:20Z</time>
      </trkpt>
      <trkpt lat="47.42805" lon="6.54283">
        <ele>278.4</ele>
        <time>2022-06-21T07:07:31Z</time>
      </trkpt>
      <trkpt lat="47.42823" lon="6.54199">
        <ele>278.4</ele>
        <time>2022-06-21T07:07:42Z</time>
      </trkpt>
      <trkpt lat="47.42847" lon="6.54119">
        <ele>278</ele>
        <time>2022-06-21T07:07:54Z</time>
      </trkpt>
      <trkpt lat="47.42876" lon="6.54038">
        <ele>278</ele>
        <time>2022-06-21T07:08:06Z</time>
      </trkpt>
      <trkpt lat="47.42895" lon="6.53991">
        <ele>278</ele>
        <time>2022-06-21T07:08:13Z</time>
      </trkpt>
      <trkpt lat="47.42921" lon="6.53911">
        <ele>278.2</ele>
        <time>2022-06-21T07:08:24Z</time>
      </trkpt>
      <trkpt lat="47.42954" lon="6.53837">
        <ele>277.6</ele>
        <time>2022-06-21T07:08:35Z</time>
      </trkpt>
      <trkpt lat="47.4297" lon="6.53805">
        <ele>277.8</ele>
        <time>2022-06-21T07:08:40Z</time>
      </trkpt>
      <trkpt lat="47.43008" lon="6.53737">
        <ele>278.2</ele>
        <time>2022-06-21T07:08:51Z</time>
      </trkpt>
      <trkpt lat="47.43045" lon="6.53668">
        <ele>278.6</ele>
        <time>2022-06-21T07:09:02Z</time>
      </trkpt>
      <trkpt lat="47.43079" lon="6.53593">
        <ele>278.2</ele>
        <time>2022-06-21T07:09:14Z</time>
      </trkpt>
      <trkpt lat="47.43108" lon="6.53538">
        <ele>276.8</ele>
        <time>2022-06-21T07:09:23Z</time>
      </trkpt>
      <trkpt lat="47.43135" lon="6.53495">
        <ele>277.2</ele>
        <time>2022-06-21T07:09:30Z</time>
      </trkpt>
      <trkpt lat="47.43138" lon="6.53489">
        <ele>277.4</ele>
        <time>2022-06-21T07:09:31Z</time>
      </trkpt>
      <trkpt lat="47.4318" lon="6.53425">
        <ele>277.2</ele>
        <time>2022-06-21T07:09:42Z</time>
      </trkpt>
      <trkpt lat="47.43221" lon="6.53358">
        <ele>277.2</ele>
        <time>2022-06-21T07:09:53Z</time>
      </trkpt>
      <trkpt lat="47.4327" lon="6.53307">
        <ele>276.6</ele>
        <time>2022-06-21T07:10:04Z</time>
      </trkpt>
      <trkpt lat="47.43326" lon="6.5326">
        <ele>276.8</ele>
        <time>2022-06-21T07:10:15Z</time>
      </trkpt>
      <trkpt lat="47.43383" lon="6.53215">
        <ele>275.6</ele>
        <time>2022-06-21T07:10:26Z</time>
      </trkpt>
      <trkpt lat="47.43439" lon="6.53181">
        <ele>277.2</ele>
        <time>2022-06-21T07:10:37Z</time>
      </trkpt>
      <trkpt lat="47.43496" lon="6.53164">
        <ele>277.2</ele>
        <time>2022-06-21T07:10:48Z</time>
      </trkpt>
      <trkpt lat="47.43554" lon="6.53142">
        <ele>279.2</ele>
        <time>2022-06-21T07:11:00Z</time>
      </trkpt>
      <trkpt lat="47.43601" lon="6.53137">
        <ele>278.2</ele>
        <time>2022-06-21T07:11:13Z</time>
      </trkpt>
      <trkpt lat="47.43606" lon="6.53138">
        <ele>278</ele>
        <time>2022-06-21T07:11:14Z</time>
      </trkpt>
      <trkpt lat="47.43612" lon="6.53138">
        <ele>277.8</ele>
        <time>2022-06-21T07:11:15Z</time>
      </trkpt>
      <trkpt lat="47.43617" lon="6.53137">
        <ele>277.8</ele>
        <time>2022-06-21T07:11:16Z</time>
      </trkpt>
      <trkpt lat="47.43623" lon="6.53135">
        <ele>277.8</ele>
        <time>2022-06-21T07:11:17Z</time>
      </trkpt>
      <trkpt lat="47.43683" lon="6.53126">
        <ele>277.4</ele>
        <time>2022-06-21T07:11:28Z</time>
      </trkpt>
      <trkpt lat="47.43742" lon="6.5312">
        <ele>276.4</ele>
        <time>2022-06-21T07:11:39Z</time>
      </trkpt>
      <trkpt lat="47.43782" lon="6.5312">
        <ele>279.4</ele>
        <time>2022-06-21T07:11:47Z</time>
      </trkpt>
      <trkpt lat="47.43841" lon="6.53125">
        <ele>279.4</ele>
        <time>2022-06-21T07:12:00Z</time>
      </trkpt>
      <trkpt lat="47.439" lon="6.53133">
        <ele>279.6</ele>
        <time>2022-06-21T07:12:13Z</time>
      </trkpt>
      <trkpt lat="47.43959" lon="6.53153">
        <ele>279.4</ele>
        <time>2022-06-21T07:12:26Z</time>
      </trkpt>
      <trkpt lat="47.44019" lon="6.53174">
        <ele>279.6</ele>
        <time>2022-06-21T07:12:38Z</time>
      </trkpt>
      <trkpt lat="47.44074" lon="6.53201">
        <ele>280</ele>
        <time>2022-06-21T07:12:50Z</time>
      </trkpt>
      <trkpt lat="47.44129" lon="6.53242">
        <ele>279.2</ele>
        <time>2022-06-21T07:13:03Z</time>
      </trkpt>
      <trkpt lat="47.44134" lon="6.53245">
        <ele>279.2</ele>
        <time>2022-06-21T07:13:04Z</time>
      </trkpt>
      <trkpt lat="47.44154" lon="6.53274">
        <ele>278.8</ele>
        <time>2022-06-21T07:13:09Z</time>
      </trkpt>
      <trkpt lat="47.44179" lon="6.53368">
        <ele>279.4</ele>
        <time>2022-06-21T07:13:20Z</time>
      </trkpt>
      <trkpt lat="47.44179" lon="6.53386">
        <ele>279.6</ele>
        <time>2022-06-21T07:13:22Z</time>
      </trkpt>
      <trkpt lat="47.44168" lon="6.53482">
        <ele>279.8</ele>
        <time>2022-06-21T07:13:33Z</time>
      </trkpt>
      <trkpt lat="47.44163" lon="6.53524">
        <ele>280.2</ele>
        <time>2022-06-21T07:13:38Z</time>
      </trkpt>
      <trkpt lat="47.44155" lon="6.53602">
        <ele>280</ele>
        <time>2022-06-21T07:13:47Z</time>
      </trkpt>
      <trkpt lat="47.44147" lon="6.53692">
        <ele>279.6</ele>
        <time>2022-06-21T07:13:58Z</time>
      </trkpt>
      <trkpt lat="47.44138" lon="6.53779">
        <ele>279.6</ele>
        <time>2022-06-21T07:14:09Z</time>
      </trkpt>
      <trkpt lat="47.44129" lon="6.53863">
        <ele>280</ele>
        <time>2022-06-21T07:14:20Z</time>
      </trkpt>
      <trkpt lat="47.44121" lon="6.53953">
        <ele>279.6</ele>
        <time>2022-06-21T07:14:32Z</time>
      </trkpt>
      <trkpt lat="47.44116" lon="6.54037">
        <ele>280.2</ele>
        <time>2022-06-21T07:14:43Z</time>
      </trkpt>
      <trkpt lat="47.44111" lon="6.54123">
        <ele>280.2</ele>
        <time>2022-06-21T07:14:54Z</time>
      </trkpt>
      <trkpt lat="47.44105" lon="6.54209">
        <ele>280.2</ele>
        <time>2022-06-21T07:15:05Z</time>
      </trkpt>
      <trkpt lat="47.44103" lon="6.54293">
        <ele>279.6</ele>
        <time>2022-06-21T07:15:16Z</time>
      </trkpt>
      <trkpt lat="47.44099" lon="6.54377">
        <ele>279.4</ele>
        <time>2022-06-21T07:15:27Z</time>
      </trkpt>
      <trkpt lat="47.44102" lon="6.54462">
        <ele>280.8</ele>
        <time>2022-06-21T07:15:38Z</time>
      </trkpt>
      <trkpt lat="47.4411" lon="6.54547">
        <ele>280.8</ele>
        <time>2022-06-21T07:15:49Z</time>
      </trkpt>
      <trkpt lat="47.44123" lon="6.54633">
        <ele>280.6</ele>
        <time>2022-06-21T07:16:00Z</time>
      </trkpt>
      <trkpt lat="47.4414" lon="6.54713">
        <ele>280.8</ele>
        <time>2022-06-21T07:16:11Z</time>
      </trkpt>
      <trkpt lat="47.44157" lon="6.54795">
        <ele>281</ele>
        <time>2022-06-21T07:16:22Z</time>
      </trkpt>
      <trkpt lat="47.44172" lon="6.54881">
        <ele>281.2</ele>
        <time>2022-06-21T07:16:33Z</time>
      </trkpt>
      <trkpt lat="47.44187" lon="6.54966">
        <ele>281</ele>
        <time>2022-06-21T07:16:44Z</time>
      </trkpt>
      <trkpt lat="47.442" lon="6.55049">
        <ele>281</ele>
        <time>2022-06-21T07:16:55Z</time>
      </trkpt>
      <trkpt lat="47.4421" lon="6.55126">
        <ele>278.4</ele>
        <time>2022-06-21T07:17:05Z</time>
      </trkpt>
      <trkpt lat="47.44214" lon="6.55211">
        <ele>277.8</ele>
        <time>2022-06-21T07:17:16Z</time>
      </trkpt>
      <trkpt lat="47.44211" lon="6.55296">
        <ele>278.6</ele>
        <time>2022-06-21T07:17:27Z</time>
      </trkpt>
      <trkpt lat="47.44204" lon="6.5538">
        <ele>278.4</ele>
        <time>2022-06-21T07:17:38Z</time>
      </trkpt>
      <trkpt lat="47.44196" lon="6.55464">
        <ele>281</ele>
        <time>2022-06-21T07:17:51Z</time>
      </trkpt>
      <trkpt lat="47.44198" lon="6.55492">
        <ele>281.2</ele>
        <time>2022-06-21T07:17:56Z</time>
      </trkpt>
      <trkpt lat="47.44215" lon="6.55574">
        <ele>281</ele>
        <time>2022-06-21T07:18:08Z</time>
      </trkpt>
      <trkpt lat="47.44219" lon="6.5566">
        <ele>279.4</ele>
        <time>2022-06-21T07:18:20Z</time>
      </trkpt>
      <trkpt lat="47.44222" lon="6.55744">
        <ele>279.6</ele>
        <time>2022-06-21T07:18:32Z</time>
      </trkpt>
      <trkpt lat="47.44225" lon="6.55777">
        <ele>279.4</ele>
        <time>2022-06-21T07:18:37Z</time>
      </trkpt>
      <trkpt lat="47.44251" lon="6.55852">
        <ele>278.4</ele>
        <time>2022-06-21T07:18:49Z</time>
      </trkpt>
      <trkpt lat="47.44286" lon="6.55922">
        <ele>279.6</ele>
        <time>2022-06-21T07:19:02Z</time>
      </trkpt>
      <trkpt lat="47.44321" lon="6.55988">
        <ele>281.6</ele>
        <time>2022-06-21T07:19:19Z</time>
      </trkpt>
      <trkpt lat="47.44353" lon="6.56057">
        <ele>283</ele>
        <time>2022-06-21T07:19:38Z</time>
      </trkpt>
      <trkpt lat="47.44367" lon="6.56138">
        <ele>283.6</ele>
        <time>2022-06-21T07:19:53Z</time>
      </trkpt>
      <trkpt lat="47.44368" lon="6.56174">
        <ele>284</ele>
        <time>2022-06-21T07:19:59Z</time>
      </trkpt>
      <trkpt lat="47.44367" lon="6.56186">
        <ele>284</ele>
        <time>2022-06-21T07:20:01Z</time>
      </trkpt>
      <trkpt lat="47.44355" lon="6.56267">
        <ele>282.6</ele>
        <time>2022-06-21T07:20:13Z</time>
      </trkpt>
      <trkpt lat="47.44353" lon="6.56273">
        <ele>282.4</ele>
        <time>2022-06-21T07:20:14Z</time>
      </trkpt>
      <trkpt lat="47.44303" lon="6.56311">
        <ele>282.4</ele>
        <time>2022-06-21T07:20:31Z</time>
      </trkpt>
      <trkpt lat="47.44244" lon="6.56305">
        <ele>281.8</ele>
        <time>2022-06-21T07:20:47Z</time>
      </trkpt>
      <trkpt lat="47.44223" lon="6.56375">
        <ele>280.2</ele>
        <time>2022-06-21T07:21:03Z</time>
      </trkpt>
      <trkpt lat="47.44223" lon="6.56381">
        <ele>279.8</ele>
        <time>2022-06-21T07:21:04Z</time>
      </trkpt>
      <trkpt lat="47.44223" lon="6.56399">
        <ele>279.6</ele>
        <time>2022-06-21T07:21:07Z</time>
      </trkpt>
      <trkpt lat="47.44223" lon="6.56405">
        <ele>279.6</ele>
        <time>2022-06-21T07:21:08Z</time>
      </trkpt>
      <trkpt lat="47.44224" lon="6.56469">
        <ele>280</ele>
        <time>2022-06-21T07:21:18Z</time>
      </trkpt>
      <trkpt lat="47.44226" lon="6.56556">
        <ele>279.8</ele>
        <time>2022-06-21T07:21:31Z</time>
      </trkpt>
      <trkpt lat="47.44221" lon="6.56646">
        <ele>279</ele>
        <time>2022-06-21T07:21:44Z</time>
      </trkpt>
      <trkpt lat="47.44215" lon="6.5673">
        <ele>278.8</ele>
        <time>2022-06-21T07:21:56Z</time>
      </trkpt>
      <trkpt lat="47.4422" lon="6.5682">
        <ele>278.4</ele>
        <time>2022-06-21T07:22:09Z</time>
      </trkpt>
      <trkpt lat="47.44243" lon="6.56904">
        <ele>279.2</ele>
        <time>2022-06-21T07:22:22Z</time>
      </trkpt>
      <trkpt lat="47.44278" lon="6.56978">
        <ele>279</ele>
        <time>2022-06-21T07:22:35Z</time>
      </trkpt>
      <trkpt lat="47.44315" lon="6.57049">
        <ele>280</ele>
        <time>2022-06-21T07:22:48Z</time>
      </trkpt>
      <trkpt lat="47.44352" lon="6.57112">
        <ele>281.2</ele>
        <time>2022-06-21T07:23:00Z</time>
      </trkpt>
      <trkpt lat="47.44383" lon="6.57154">
        <ele>278.4</ele>
        <time>2022-06-21T07:23:09Z</time>
      </trkpt>
      <trkpt lat="47.44433" lon="6.57198">
        <ele>280.4</ele>
        <time>2022-06-21T07:23:22Z</time>
      </trkpt>
      <trkpt lat="47.44481" lon="6.57249">
        <ele>280.8</ele>
        <time>2022-06-21T07:23:35Z</time>
      </trkpt>
      <trkpt lat="47.4451" lon="6.57302">
        <ele>282</ele>
        <time>2022-06-21T07:23:45Z</time>
      </trkpt>
      <trkpt lat="47.44544" lon="6.5737">
        <ele>282</ele>
        <time>2022-06-21T07:23:57Z</time>
      </trkpt>
      <trkpt lat="47.4456" lon="6.57414">
        <ele>282.2</ele>
        <time>2022-06-21T07:24:04Z</time>
      </trkpt>
      <trkpt lat="47.44582" lon="6.57462">
        <ele>282.4</ele>
        <time>2022-06-21T07:24:12Z</time>
      </trkpt>
      <trkpt lat="47.44618" lon="6.57525">
        <ele>283</ele>
        <time>2022-06-21T07:24:24Z</time>
      </trkpt>
      <trkpt lat="47.44663" lon="6.57574">
        <ele>284</ele>
        <time>2022-06-21T07:24:37Z</time>
      </trkpt>
      <trkpt lat="47.44712" lon="6.57613">
        <ele>284</ele>
        <time>2022-06-21T07:24:51Z</time>
      </trkpt>
      <trkpt lat="47.44715" lon="6.57616">
        <ele>284.2</ele>
        <time>2022-06-21T07:24:52Z</time>
      </trkpt>
      <trkpt lat="47.44719" lon="6.57618">
        <ele>284.2</ele>
        <time>2022-06-21T07:24:53Z</time>
      </trkpt>
      <trkpt lat="47.44761" lon="6.57629">
        <ele>284</ele>
        <time>2022-06-21T07:25:03Z</time>
      </trkpt>
      <trkpt lat="47.44819" lon="6.57636">
        <ele>283.6</ele>
        <time>2022-06-21T07:25:15Z</time>
      </trkpt>
      <trkpt lat="47.44837" lon="6.5764">
        <ele>283.4</ele>
        <time>2022-06-21T07:25:19Z</time>
      </trkpt>
      <trkpt lat="47.449" lon="6.57644">
        <ele>283.2</ele>
        <time>2022-06-21T07:25:32Z</time>
      </trkpt>
      <trkpt lat="47.44956" lon="6.57664">
        <ele>283.6</ele>
        <time>2022-06-21T07:25:45Z</time>
      </trkpt>
      <trkpt lat="47.45012" lon="6.57691">
        <ele>283.2</ele>
        <time>2022-06-21T07:25:58Z</time>
      </trkpt>
      <trkpt lat="47.45066" lon="6.57719">
        <ele>283.2</ele>
        <time>2022-06-21T07:26:10Z</time>
      </trkpt>
      <trkpt lat="47.45071" lon="6.57723">
        <ele>283</ele>
        <time>2022-06-21T07:26:11Z</time>
      </trkpt>
      <trkpt lat="47.45124" lon="6.57769">
        <ele>282.2</ele>
        <time>2022-06-21T07:26:22Z</time>
      </trkpt>
      <trkpt lat="47.4513" lon="6.57771">
        <ele>282.2</ele>
        <time>2022-06-21T07:26:23Z</time>
      </trkpt>
      <trkpt lat="47.45155" lon="6.57797">
        <ele>282.6</ele>
        <time>2022-06-21T07:26:31Z</time>
      </trkpt>
      <trkpt lat="47.45155" lon="6.57801">
        <ele>282.6</ele>
        <time>2022-06-21T07:26:32Z</time>
      </trkpt>
      <trkpt lat="47.45153" lon="6.57806">
        <ele>282.6</ele>
        <time>2022-06-21T07:26:33Z</time>
      </trkpt>
      <trkpt lat="47.4515" lon="6.57811">
        <ele>282.8</ele>
        <time>2022-06-21T07:26:34Z</time>
      </trkpt>
      <trkpt lat="47.45148" lon="6.57816">
        <ele>283</ele>
        <time>2022-06-21T07:26:35Z</time>
      </trkpt>
      <trkpt lat="47.45145" lon="6.57819">
        <ele>283</ele>
        <time>2022-06-21T07:26:36Z</time>
      </trkpt>
      <trkpt lat="47.45108" lon="6.57885">
        <ele>282.8</ele>
        <time>2022-06-21T07:26:50Z</time>
      </trkpt>
      <trkpt lat="47.45069" lon="6.57958">
        <ele>283.8</ele>
        <time>2022-06-21T07:27:06Z</time>
      </trkpt>
      <trkpt lat="47.45037" lon="6.58016">
        <ele>284</ele>
        <time>2022-06-21T07:27:22Z</time>
      </trkpt>
      <trkpt lat="47.45036" lon="6.58016">
        <ele>283.8</ele>
        <time>2022-06-21T07:27:23Z</time>
      </trkpt>
      <trkpt lat="47.45035" lon="6.58017">
        <ele>283.6</ele>
        <time>2022-06-21T07:27:24Z</time>
      </trkpt>
      <trkpt lat="47.45034" lon="6.58016">
        <ele>283.8</ele>
        <time>2022-06-21T07:27:30Z</time>
      </trkpt>
      <trkpt lat="47.45028" lon="6.58029">
        <ele>283.4</ele>
        <time>2022-06-21T07:31:53Z</time>
      </trkpt>
      <trkpt lat="47.45025" lon="6.58031">
        <ele>283.4</ele>
        <time>2022-06-21T07:31:54Z</time>
      </trkpt>
      <trkpt lat="47.4498" lon="6.58086">
        <ele>283.6</ele>
        <time>2022-06-21T07:32:13Z</time>
      </trkpt>
      <trkpt lat="47.44962" lon="6.58111">
        <ele>283</ele>
        <time>2022-06-21T07:32:20Z</time>
      </trkpt>
      <trkpt lat="47.44938" lon="6.5814">
        <ele>282.8</ele>
        <time>2022-06-21T07:32:27Z</time>
      </trkpt>
      <trkpt lat="47.44934" lon="6.58143">
        <ele>282.6</ele>
        <time>2022-06-21T07:32:28Z</time>
      </trkpt>
      <trkpt lat="47.4493" lon="6.58146">
        <ele>282</ele>
        <time>2022-06-21T07:32:29Z</time>
      </trkpt>
      <trkpt lat="47.44925" lon="6.58148">
        <ele>282</ele>
        <time>2022-06-21T07:32:30Z</time>
      </trkpt>
      <trkpt lat="47.44921" lon="6.5815">
        <ele>282.6</ele>
        <time>2022-06-21T07:32:31Z</time>
      </trkpt>
      <trkpt lat="47.44917" lon="6.58152">
        <ele>282.6</ele>
        <time>2022-06-21T07:32:32Z</time>
      </trkpt>
      <trkpt lat="47.44913" lon="6.58156">
        <ele>282.4</ele>
        <time>2022-06-21T07:32:33Z</time>
      </trkpt>
      <trkpt lat="47.44911" lon="6.58161">
        <ele>282.6</ele>
        <time>2022-06-21T07:32:34Z</time>
      </trkpt>
      <trkpt lat="47.4491" lon="6.58167">
        <ele>283</ele>
        <time>2022-06-21T07:32:35Z</time>
      </trkpt>
      <trkpt lat="47.4491" lon="6.58173">
        <ele>283.4</ele>
        <time>2022-06-21T07:32:36Z</time>
      </trkpt>
      <trkpt lat="47.4491" lon="6.58178">
        <ele>283.4</ele>
        <time>2022-06-21T07:32:37Z</time>
      </trkpt>
      <trkpt lat="47.4491" lon="6.58184">
        <ele>283.8</ele>
        <time>2022-06-21T07:32:38Z</time>
      </trkpt>
      <trkpt lat="47.44909" lon="6.5819">
        <ele>284</ele>
        <time>2022-06-21T07:32:39Z</time>
      </trkpt>
      <trkpt lat="47.44927" lon="6.58262">
        <ele>283</ele>
        <time>2022-06-21T07:32:57Z</time>
      </trkpt>
      <trkpt lat="47.44942" lon="6.58282">
        <ele>283.2</ele>
        <time>2022-06-21T07:33:02Z</time>
      </trkpt>
      <trkpt lat="47.44971" lon="6.5832">
        <ele>283.4</ele>
        <time>2022-06-21T07:33:11Z</time>
      </trkpt>
      <trkpt lat="47.44974" lon="6.58325">
        <ele>283.4</ele>
        <time>2022-06-21T07:33:12Z</time>
      </trkpt>
      <trkpt lat="47.44978" lon="6.5833">
        <ele>283.6</ele>
        <time>2022-06-21T07:33:13Z</time>
      </trkpt>
      <trkpt lat="47.44992" lon="6.58354">
        <ele>283.8</ele>
        <time>2022-06-21T07:33:18Z</time>
      </trkpt>
      <trkpt lat="47.44995" lon="6.58359">
        <ele>283.8</ele>
        <time>2022-06-21T07:33:19Z</time>
      </trkpt>
      <trkpt lat="47.45034" lon="6.58423">
        <ele>283.8</ele>
        <time>2022-06-21T07:33:32Z</time>
      </trkpt>
      <trkpt lat="47.45071" lon="6.58493">
        <ele>284.2</ele>
        <time>2022-06-21T07:33:46Z</time>
      </trkpt>
      <trkpt lat="47.45104" lon="6.58566">
        <ele>283.6</ele>
        <time>2022-06-21T07:34:01Z</time>
      </trkpt>
      <trkpt lat="47.45131" lon="6.58638">
        <ele>283.4</ele>
        <time>2022-06-21T07:34:15Z</time>
      </trkpt>
      <trkpt lat="47.45154" lon="6.58715">
        <ele>284.4</ele>
        <time>2022-06-21T07:34:28Z</time>
      </trkpt>
      <trkpt lat="47.45178" lon="6.58795">
        <ele>283.8</ele>
        <time>2022-06-21T07:34:43Z</time>
      </trkpt>
      <trkpt lat="47.45181" lon="6.58806">
        <ele>283.8</ele>
        <time>2022-06-21T07:34:45Z</time>
      </trkpt>
      <trkpt lat="47.45204" lon="6.58882">
        <ele>284.4</ele>
        <time>2022-06-21T07:34:58Z</time>
      </trkpt>
      <trkpt lat="47.45228" lon="6.58936">
        <ele>283.6</ele>
        <time>2022-06-21T07:35:08Z</time>
      </trkpt>
      <trkpt lat="47.4523" lon="6.58942">
        <ele>283.4</ele>
        <time>2022-06-21T07:35:09Z</time>
      </trkpt>
      <trkpt lat="47.45231" lon="6.58948">
        <ele>283.2</ele>
        <time>2022-06-21T07:35:10Z</time>
      </trkpt>
      <trkpt lat="47.45221" lon="6.59023">
        <ele>282.2</ele>
        <time>2022-06-21T07:35:23Z</time>
      </trkpt>
      <trkpt lat="47.45218" lon="6.59111">
        <ele>282</ele>
        <time>2022-06-21T07:35:36Z</time>
      </trkpt>
      <trkpt lat="47.45206" lon="6.59194">
        <ele>281.4</ele>
        <time>2022-06-21T07:35:48Z</time>
      </trkpt>
      <trkpt lat="47.45188" lon="6.5928">
        <ele>282.4</ele>
        <time>2022-06-21T07:36:01Z</time>
      </trkpt>
      <trkpt lat="47.45164" lon="6.59357">
        <ele>282.6</ele>
        <time>2022-06-21T07:36:14Z</time>
      </trkpt>
      <trkpt lat="47.45128" lon="6.59421">
        <ele>281.6</ele>
        <time>2022-06-21T07:36:28Z</time>
      </trkpt>
      <trkpt lat="47.45124" lon="6.59424">
        <ele>281.4</ele>
        <time>2022-06-21T07:36:29Z</time>
      </trkpt>
      <trkpt lat="47.45108" lon="6.59438">
        <ele>280.6</ele>
        <time>2022-06-21T07:36:33Z</time>
      </trkpt>
      <trkpt lat="47.45106" lon="6.59444">
        <ele>280.6</ele>
        <time>2022-06-21T07:36:34Z</time>
      </trkpt>
      <trkpt lat="47.45103" lon="6.5945">
        <ele>280.8</ele>
        <time>2022-06-21T07:36:35Z</time>
      </trkpt>
      <trkpt lat="47.45098" lon="6.59461">
        <ele>282</ele>
        <time>2022-06-21T07:36:37Z</time>
      </trkpt>
      <trkpt lat="47.45092" lon="6.59471">
        <ele>283</ele>
        <time>2022-06-21T07:36:39Z</time>
      </trkpt>
      <trkpt lat="47.45089" lon="6.59475">
        <ele>283.4</ele>
        <time>2022-06-21T07:36:40Z</time>
      </trkpt>
      <trkpt lat="47.4504" lon="6.59523">
        <ele>285.2</ele>
        <time>2022-06-21T07:36:58Z</time>
      </trkpt>
      <trkpt lat="47.44989" lon="6.59563">
        <ele>283</ele>
        <time>2022-06-21T07:37:11Z</time>
      </trkpt>
      <trkpt lat="47.44934" lon="6.59603">
        <ele>283.4</ele>
        <time>2022-06-21T07:37:24Z</time>
      </trkpt>
      <trkpt lat="47.44922" lon="6.59613">
        <ele>283.4</ele>
        <time>2022-06-21T07:37:27Z</time>
      </trkpt>
      <trkpt lat="47.44867" lon="6.59649">
        <ele>283.4</ele>
        <time>2022-06-21T07:37:39Z</time>
      </trkpt>
      <trkpt lat="47.44809" lon="6.59681">
        <ele>283.4</ele>
        <time>2022-06-21T07:37:51Z</time>
      </trkpt>
      <trkpt lat="47.44754" lon="6.59702">
        <ele>283.6</ele>
        <time>2022-06-21T07:38:02Z</time>
      </trkpt>
      <trkpt lat="47.44739" lon="6.59706">
        <ele>283.4</ele>
        <time>2022-06-21T07:38:05Z</time>
      </trkpt>
      <trkpt lat="47.44734" lon="6.59708">
        <ele>283.6</ele>
        <time>2022-06-21T07:38:06Z</time>
      </trkpt>
      <trkpt lat="47.44694" lon="6.59716">
        <ele>283.6</ele>
        <time>2022-06-21T07:38:14Z</time>
      </trkpt>
      <trkpt lat="47.44633" lon="6.59715">
        <ele>283.4</ele>
        <time>2022-06-21T07:38:26Z</time>
      </trkpt>
      <trkpt lat="47.44572" lon="6.59708">
        <ele>283.4</ele>
        <time>2022-06-21T07:38:39Z</time>
      </trkpt>
      <trkpt lat="47.44556" lon="6.59707">
        <ele>284.2</ele>
        <time>2022-06-21T07:38:43Z</time>
      </trkpt>
      <trkpt lat="47.44541" lon="6.59705">
        <ele>284</ele>
        <time>2022-06-21T07:38:46Z</time>
      </trkpt>
      <trkpt lat="47.4451" lon="6.59707">
        <ele>284</ele>
        <time>2022-06-21T07:38:52Z</time>
      </trkpt>
      <trkpt lat="47.44504" lon="6.59707">
        <ele>283.8</ele>
        <time>2022-06-21T07:38:53Z</time>
      </trkpt>
      <trkpt lat="47.44446" lon="6.5971">
        <ele>283.6</ele>
        <time>2022-06-21T07:39:04Z</time>
      </trkpt>
      <trkpt lat="47.44387" lon="6.59715">
        <ele>283.2</ele>
        <time>2022-06-21T07:39:15Z</time>
      </trkpt>
      <trkpt lat="47.44325" lon="6.59725">
        <ele>283.4</ele>
        <time>2022-06-21T07:39:27Z</time>
      </trkpt>
      <trkpt lat="47.44263" lon="6.59737">
        <ele>284</ele>
        <time>2022-06-21T07:39:39Z</time>
      </trkpt>
      <trkpt lat="47.44204" lon="6.59747">
        <ele>283.2</ele>
        <time>2022-06-21T07:39:50Z</time>
      </trkpt>
      <trkpt lat="47.44146" lon="6.59758">
        <ele>284</ele>
        <time>2022-06-21T07:40:01Z</time>
      </trkpt>
      <trkpt lat="47.44088" lon="6.5977">
        <ele>283.8</ele>
        <time>2022-06-21T07:40:12Z</time>
      </trkpt>
      <trkpt lat="47.4403" lon="6.59778">
        <ele>284</ele>
        <time>2022-06-21T07:40:23Z</time>
      </trkpt>
      <trkpt lat="47.43973" lon="6.59791">
        <ele>284.6</ele>
        <time>2022-06-21T07:40:34Z</time>
      </trkpt>
      <trkpt lat="47.43916" lon="6.59799">
        <ele>284.2</ele>
        <time>2022-06-21T07:40:45Z</time>
      </trkpt>
      <trkpt lat="47.43859" lon="6.59806">
        <ele>284.2</ele>
        <time>2022-06-21T07:40:56Z</time>
      </trkpt>
      <trkpt lat="47.43798" lon="6.59821">
        <ele>284.2</ele>
        <time>2022-06-21T07:41:07Z</time>
      </trkpt>
      <trkpt lat="47.43739" lon="6.59839">
        <ele>284.4</ele>
        <time>2022-06-21T07:41:18Z</time>
      </trkpt>
      <trkpt lat="47.43698" lon="6.59855">
        <ele>284.6</ele>
        <time>2022-06-21T07:41:26Z</time>
      </trkpt>
      <trkpt lat="47.43638" lon="6.59883">
        <ele>284.4</ele>
        <time>2022-06-21T07:41:38Z</time>
      </trkpt>
      <trkpt lat="47.43581" lon="6.59909">
        <ele>283</ele>
        <time>2022-06-21T07:41:49Z</time>
      </trkpt>
      <trkpt lat="47.43523" lon="6.59938">
        <ele>283.8</ele>
        <time>2022-06-21T07:42:01Z</time>
      </trkpt>
      <trkpt lat="47.43468" lon="6.59968">
        <ele>283.2</ele>
        <time>2022-06-21T07:42:12Z</time>
      </trkpt>
      <trkpt lat="47.43413" lon="6.6">
        <ele>284.6</ele>
        <time>2022-06-21T07:42:23Z</time>
      </trkpt>
      <trkpt lat="47.43362" lon="6.60046">
        <ele>284</ele>
        <time>2022-06-21T07:42:34Z</time>
      </trkpt>
      <trkpt lat="47.43321" lon="6.60106">
        <ele>284</ele>
        <time>2022-06-21T07:42:45Z</time>
      </trkpt>
      <trkpt lat="47.43285" lon="6.6018">
        <ele>283.8</ele>
        <time>2022-06-21T07:42:56Z</time>
      </trkpt>
      <trkpt lat="47.43254" lon="6.60257">
        <ele>283.8</ele>
        <time>2022-06-21T07:43:07Z</time>
      </trkpt>
      <trkpt lat="47.43222" lon="6.6033">
        <ele>283.6</ele>
        <time>2022-06-21T07:43:18Z</time>
      </trkpt>
      <trkpt lat="47.43191" lon="6.60401">
        <ele>284.2</ele>
        <time>2022-06-21T07:43:29Z</time>
      </trkpt>
      <trkpt lat="47.43159" lon="6.60474">
        <ele>284.4</ele>
        <time>2022-06-21T07:43:40Z</time>
      </trkpt>
      <trkpt lat="47.43128" lon="6.60547">
        <ele>284.4</ele>
        <time>2022-06-21T07:43:51Z</time>
      </trkpt>
      <trkpt lat="47.43098" lon="6.6062">
        <ele>286.6</ele>
        <time>2022-06-21T07:44:02Z</time>
      </trkpt>
      <trkpt lat="47.43064" lon="6.60693">
        <ele>285.6</ele>
        <time>2022-06-21T07:44:14Z</time>
      </trkpt>
      <trkpt lat="47.43032" lon="6.60766">
        <ele>285.6</ele>
        <time>2022-06-21T07:44:26Z</time>
      </trkpt>
      <trkpt lat="47.43023" lon="6.60786">
        <ele>287</ele>
        <time>2022-06-21T07:44:29Z</time>
      </trkpt>
      <trkpt lat="47.4302" lon="6.60792">
        <ele>287</ele>
        <time>2022-06-21T07:44:30Z</time>
      </trkpt>
      <trkpt lat="47.43014" lon="6.60804">
        <ele>286.4</ele>
        <time>2022-06-21T07:44:32Z</time>
      </trkpt>
      <trkpt lat="47.42981" lon="6.60886">
        <ele>286.6</ele>
        <time>2022-06-21T07:44:44Z</time>
      </trkpt>
      <trkpt lat="47.42949" lon="6.60961">
        <ele>287.4</ele>
        <time>2022-06-21T07:44:55Z</time>
      </trkpt>
      <trkpt lat="47.42916" lon="6.61035">
        <ele>287</ele>
        <time>2022-06-21T07:45:06Z</time>
      </trkpt>
      <trkpt lat="47.42885" lon="6.61108">
        <ele>287.2</ele>
        <time>2022-06-21T07:45:17Z</time>
      </trkpt>
      <trkpt lat="47.42856" lon="6.61183">
        <ele>287.6</ele>
        <time>2022-06-21T07:45:28Z</time>
      </trkpt>
      <trkpt lat="47.4283" lon="6.61258">
        <ele>287</ele>
        <time>2022-06-21T07:45:38Z</time>
      </trkpt>
      <trkpt lat="47.42817" lon="6.61305">
        <ele>288.4</ele>
        <time>2022-06-21T07:45:46Z</time>
      </trkpt>
      <trkpt lat="47.42808" lon="6.61306">
        <ele>289.4</ele>
        <time>2022-06-21T07:45:51Z</time>
      </trkpt>
      <trkpt lat="47.42807" lon="6.61305">
        <ele>289.6</ele>
        <time>2022-06-21T07:45:52Z</time>
      </trkpt>
      <trkpt lat="47.42793" lon="6.61296">
        <ele>289.8</ele>
        <time>2022-06-21T07:45:59Z</time>
      </trkpt>
      <trkpt lat="47.42791" lon="6.61296">
        <ele>289.8</ele>
        <time>2022-06-21T07:46:00Z</time>
      </trkpt>
      <trkpt lat="47.42789" lon="6.61299">
        <ele>289.8</ele>
        <time>2022-06-21T07:46:01Z</time>
      </trkpt>
      <trkpt lat="47.42787" lon="6.61303">
        <ele>289.6</ele>
        <time>2022-06-21T07:46:02Z</time>
      </trkpt>
      <trkpt lat="47.42785" lon="6.61309">
        <ele>289.2</ele>
        <time>2022-06-21T07:46:03Z</time>
      </trkpt>
      <trkpt lat="47.42759" lon="6.61385">
        <ele>287.6</ele>
        <time>2022-06-21T07:46:16Z</time>
      </trkpt>
      <trkpt lat="47.42732" lon="6.61465">
        <ele>287.2</ele>
        <time>2022-06-21T07:46:29Z</time>
      </trkpt>
      <trkpt lat="47.42708" lon="6.61545">
        <ele>286.6</ele>
        <time>2022-06-21T07:46:41Z</time>
      </trkpt>
      <trkpt lat="47.42687" lon="6.61627">
        <ele>286</ele>
        <time>2022-06-21T07:46:53Z</time>
      </trkpt>
      <trkpt lat="47.42667" lon="6.61711">
        <ele>286.6</ele>
        <time>2022-06-21T07:47:05Z</time>
      </trkpt>
      <trkpt lat="47.42651" lon="6.61792">
        <ele>288.6</ele>
        <time>2022-06-21T07:47:16Z</time>
      </trkpt>
      <trkpt lat="47.4265" lon="6.618">
        <ele>288.8</ele>
        <time>2022-06-21T07:47:17Z</time>
      </trkpt>
      <trkpt lat="47.42638" lon="6.61883">
        <ele>289.2</ele>
        <time>2022-06-21T07:47:28Z</time>
      </trkpt>
      <trkpt lat="47.42628" lon="6.61966">
        <ele>288.6</ele>
        <time>2022-06-21T07:47:39Z</time>
      </trkpt>
      <trkpt lat="47.42623" lon="6.62054">
        <ele>289.2</ele>
        <time>2022-06-21T07:47:50Z</time>
      </trkpt>
      <trkpt lat="47.42624" lon="6.62142">
        <ele>289.4</ele>
        <time>2022-06-21T07:48:01Z</time>
      </trkpt>
      <trkpt lat="47.42628" lon="6.62228">
        <ele>289.4</ele>
        <time>2022-06-21T07:48:12Z</time>
      </trkpt>
      <trkpt lat="47.42634" lon="6.62314">
        <ele>289.6</ele>
        <time>2022-06-21T07:48:23Z</time>
      </trkpt>
      <trkpt lat="47.42644" lon="6.62401">
        <ele>289.4</ele>
        <time>2022-06-21T07:48:34Z</time>
      </trkpt>
      <trkpt lat="47.42657" lon="6.62488">
        <ele>289.6</ele>
        <time>2022-06-21T07:48:45Z</time>
      </trkpt>
      <trkpt lat="47.42673" lon="6.62572">
        <ele>289.8</ele>
        <time>2022-06-21T07:48:56Z</time>
      </trkpt>
      <trkpt lat="47.42693" lon="6.62652">
        <ele>289.8</ele>
        <time>2022-06-21T07:49:07Z</time>
      </trkpt>
      <trkpt lat="47.42714" lon="6.6273">
        <ele>290</ele>
        <time>2022-06-21T07:49:18Z</time>
      </trkpt>
      <trkpt lat="47.42744" lon="6.62808">
        <ele>289.6</ele>
        <time>2022-06-21T07:49:30Z</time>
      </trkpt>
      <trkpt lat="47.42778" lon="6.62879">
        <ele>289.2</ele>
        <time>2022-06-21T07:49:42Z</time>
      </trkpt>
      <trkpt lat="47.42817" lon="6.62942">
        <ele>290.2</ele>
        <time>2022-06-21T07:49:55Z</time>
      </trkpt>
      <trkpt lat="47.42864" lon="6.62996">
        <ele>290</ele>
        <time>2022-06-21T07:50:08Z</time>
      </trkpt>
      <trkpt lat="47.42913" lon="6.63045">
        <ele>290.2</ele>
        <time>2022-06-21T07:50:21Z</time>
      </trkpt>
      <trkpt lat="47.42965" lon="6.63087">
        <ele>289.6</ele>
        <time>2022-06-21T07:50:34Z</time>
      </trkpt>
      <trkpt lat="47.43018" lon="6.63122">
        <ele>290.2</ele>
        <time>2022-06-21T07:50:47Z</time>
      </trkpt>
      <trkpt lat="47.43073" lon="6.63144">
        <ele>290</ele>
        <time>2022-06-21T07:51:00Z</time>
      </trkpt>
      <trkpt lat="47.4313" lon="6.63163">
        <ele>290.2</ele>
        <time>2022-06-21T07:51:12Z</time>
      </trkpt>
      <trkpt lat="47.43191" lon="6.63175">
        <ele>290.2</ele>
        <time>2022-06-21T07:51:24Z</time>
      </trkpt>
      <trkpt lat="47.43249" lon="6.63174">
        <ele>290</ele>
        <time>2022-06-21T07:51:35Z</time>
      </trkpt>
      <trkpt lat="47.43307" lon="6.63166">
        <ele>290</ele>
        <time>2022-06-21T07:51:46Z</time>
      </trkpt>
      <trkpt lat="47.43367" lon="6.63152">
        <ele>289.6</ele>
        <time>2022-06-21T07:51:57Z</time>
      </trkpt>
      <trkpt lat="47.43425" lon="6.63129">
        <ele>288.2</ele>
        <time>2022-06-21T07:52:08Z</time>
      </trkpt>
      <trkpt lat="47.43481" lon="6.63099">
        <ele>288</ele>
        <time>2022-06-21T07:52:19Z</time>
      </trkpt>
      <trkpt lat="47.43536" lon="6.63066">
        <ele>288.2</ele>
        <time>2022-06-21T07:52:30Z</time>
      </trkpt>
      <trkpt lat="47.43591" lon="6.63032">
        <ele>288.2</ele>
        <time>2022-06-21T07:52:41Z</time>
      </trkpt>
      <trkpt lat="47.43646" lon="6.62998">
        <ele>288.2</ele>
        <time>2022-06-21T07:52:52Z</time>
      </trkpt>
      <trkpt lat="47.437" lon="6.62963">
        <ele>288.6</ele>
        <time>2022-06-21T07:53:03Z</time>
      </trkpt>
      <trkpt lat="47.43754" lon="6.62927">
        <ele>288.8</ele>
        <time>2022-06-21T07:53:14Z</time>
      </trkpt>
      <trkpt lat="47.43809" lon="6.62894">
        <ele>290.4</ele>
        <time>2022-06-21T07:53:25Z</time>
      </trkpt>
      <trkpt lat="47.43833" lon="6.62873">
        <ele>291.2</ele>
        <time>2022-06-21T07:53:33Z</time>
      </trkpt>
      <trkpt lat="47.43846" lon="6.62861">
        <ele>290.8</ele>
        <time>2022-06-21T07:53:36Z</time>
      </trkpt>
      <trkpt lat="47.43901" lon="6.62831">
        <ele>289.8</ele>
        <time>2022-06-21T07:53:48Z</time>
      </trkpt>
      <trkpt lat="47.43939" lon="6.62816">
        <ele>290</ele>
        <time>2022-06-21T07:53:56Z</time>
      </trkpt>
      <trkpt lat="47.43944" lon="6.62816">
        <ele>290</ele>
        <time>2022-06-21T07:53:57Z</time>
      </trkpt>
      <trkpt lat="47.43949" lon="6.62817">
        <ele>290</ele>
        <time>2022-06-21T07:53:58Z</time>
      </trkpt>
      <trkpt lat="47.43954" lon="6.62817">
        <ele>290</ele>
        <time>2022-06-21T07:53:59Z</time>
      </trkpt>
      <trkpt lat="47.43959" lon="6.62819">
        <ele>290.2</ele>
        <time>2022-06-21T07:54:00Z</time>
      </trkpt>
      <trkpt lat="47.43964" lon="6.62821">
        <ele>290.2</ele>
        <time>2022-06-21T07:54:01Z</time>
      </trkpt>
      <trkpt lat="47.43969" lon="6.62823">
        <ele>290.4</ele>
        <time>2022-06-21T07:54:02Z</time>
      </trkpt>
      <trkpt lat="47.44025" lon="6.62841">
        <ele>290.4</ele>
        <time>2022-06-21T07:54:13Z</time>
      </trkpt>
      <trkpt lat="47.44054" lon="6.6285">
        <ele>290.6</ele>
        <time>2022-06-21T07:54:19Z</time>
      </trkpt>
      <trkpt lat="47.44074" lon="6.62861">
        <ele>290.2</ele>
        <time>2022-06-21T07:54:23Z</time>
      </trkpt>
      <trkpt lat="47.44079" lon="6.62866">
        <ele>290.2</ele>
        <time>2022-06-21T07:54:24Z</time>
      </trkpt>
      <trkpt lat="47.44083" lon="6.6287">
        <ele>290</ele>
        <time>2022-06-21T07:54:25Z</time>
      </trkpt>
      <trkpt lat="47.44088" lon="6.62874">
        <ele>290</ele>
        <time>2022-06-21T07:54:26Z</time>
      </trkpt>
      <trkpt lat="47.44093" lon="6.62877">
        <ele>290.2</ele>
        <time>2022-06-21T07:54:27Z</time>
      </trkpt>
      <trkpt lat="47.44098" lon="6.6288">
        <ele>290.2</ele>
        <time>2022-06-21T07:54:28Z</time>
      </trkpt>
      <trkpt lat="47.44157" lon="6.62899">
        <ele>290.6</ele>
        <time>2022-06-21T07:54:39Z</time>
      </trkpt>
      <trkpt lat="47.44167" lon="6.62901">
        <ele>290.4</ele>
        <time>2022-06-21T07:54:41Z</time>
      </trkpt>
      <trkpt lat="47.44173" lon="6.62902">
        <ele>290.4</ele>
        <time>2022-06-21T07:54:42Z</time>
      </trkpt>
      <trkpt lat="47.44178" lon="6.62901">
        <ele>290.4</ele>
        <time>2022-06-21T07:54:43Z</time>
      </trkpt>
      <trkpt lat="47.44195" lon="6.629">
        <ele>290.4</ele>
        <time>2022-06-21T07:54:46Z</time>
      </trkpt>
      <trkpt lat="47.442" lon="6.62901">
        <ele>290.4</ele>
        <time>2022-06-21T07:54:47Z</time>
      </trkpt>
      <trkpt lat="47.44258" lon="6.62919">
        <ele>290.6</ele>
        <time>2022-06-21T07:54:58Z</time>
      </trkpt>
      <trkpt lat="47.44316" lon="6.62944">
        <ele>290.4</ele>
        <time>2022-06-21T07:55:09Z</time>
      </trkpt>
      <trkpt lat="47.44373" lon="6.62973">
        <ele>290.4</ele>
        <time>2022-06-21T07:55:20Z</time>
      </trkpt>
      <trkpt lat="47.44428" lon="6.63002">
        <ele>290.4</ele>
        <time>2022-06-21T07:55:31Z</time>
      </trkpt>
      <trkpt lat="47.44483" lon="6.63035">
        <ele>290.6</ele>
        <time>2022-06-21T07:55:42Z</time>
      </trkpt>
      <trkpt lat="47.44539" lon="6.63061">
        <ele>290.6</ele>
        <time>2022-06-21T07:55:53Z</time>
      </trkpt>
      <trkpt lat="47.44558" lon="6.63068">
        <ele>290.4</ele>
        <time>2022-06-21T07:55:57Z</time>
      </trkpt>
      <trkpt lat="47.44563" lon="6.63068">
        <ele>290.4</ele>
        <time>2022-06-21T07:55:58Z</time>
      </trkpt>
      <trkpt lat="47.44567" lon="6.63068">
        <ele>290.4</ele>
        <time>2022-06-21T07:55:59Z</time>
      </trkpt>
      <trkpt lat="47.44618" lon="6.63101">
        <ele>290.2</ele>
        <time>2022-06-21T07:56:12Z</time>
      </trkpt>
      <trkpt lat="47.44644" lon="6.63152">
        <ele>290.2</ele>
        <time>2022-06-21T07:56:21Z</time>
      </trkpt>
      <trkpt lat="47.44647" lon="6.63166">
        <ele>290.2</ele>
        <time>2022-06-21T07:56:23Z</time>
      </trkpt>
      <trkpt lat="47.44648" lon="6.63173">
        <ele>289.8</ele>
        <time>2022-06-21T07:56:24Z</time>
      </trkpt>
      <trkpt lat="47.44653" lon="6.6326">
        <ele>290.4</ele>
        <time>2022-06-21T07:56:36Z</time>
      </trkpt>
      <trkpt lat="47.4466" lon="6.63346">
        <ele>290.4</ele>
        <time>2022-06-21T07:56:48Z</time>
      </trkpt>
      <trkpt lat="47.44663" lon="6.63397">
        <ele>290.2</ele>
        <time>2022-06-21T07:56:55Z</time>
      </trkpt>
      <trkpt lat="47.4467" lon="6.63484">
        <ele>290.2</ele>
        <time>2022-06-21T07:57:07Z</time>
      </trkpt>
      <trkpt lat="47.44678" lon="6.63573">
        <ele>290</ele>
        <time>2022-06-21T07:57:19Z</time>
      </trkpt>
      <trkpt lat="47.44684" lon="6.63656">
        <ele>290.4</ele>
        <time>2022-06-21T07:57:30Z</time>
      </trkpt>
      <trkpt lat="47.4469" lon="6.63739">
        <ele>290.2</ele>
        <time>2022-06-21T07:57:41Z</time>
      </trkpt>
      <trkpt lat="47.44697" lon="6.63822">
        <ele>290</ele>
        <time>2022-06-21T07:57:52Z</time>
      </trkpt>
      <trkpt lat="47.44704" lon="6.63913">
        <ele>290.2</ele>
        <time>2022-06-21T07:58:04Z</time>
      </trkpt>
      <trkpt lat="47.44711" lon="6.63997">
        <ele>290.4</ele>
        <time>2022-06-21T07:58:15Z</time>
      </trkpt>
      <trkpt lat="47.44717" lon="6.64083">
        <ele>289.8</ele>
        <time>2022-06-21T07:58:26Z</time>
      </trkpt>
      <trkpt lat="47.44725" lon="6.64171">
        <ele>290.4</ele>
        <time>2022-06-21T07:58:38Z</time>
      </trkpt>
      <trkpt lat="47.44731" lon="6.64257">
        <ele>290</ele>
        <time>2022-06-21T07:58:50Z</time>
      </trkpt>
      <trkpt lat="47.44738" lon="6.6434">
        <ele>290.6</ele>
        <time>2022-06-21T07:59:02Z</time>
      </trkpt>
      <trkpt lat="47.44742" lon="6.64398">
        <ele>288</ele>
        <time>2022-06-21T07:59:10Z</time>
      </trkpt>
      <trkpt lat="47.44749" lon="6.64481">
        <ele>288.2</ele>
        <time>2022-06-21T07:59:22Z</time>
      </trkpt>
      <trkpt lat="47.44756" lon="6.64569">
        <ele>287.2</ele>
        <time>2022-06-21T07:59:35Z</time>
      </trkpt>
      <trkpt lat="47.44763" lon="6.64657">
        <ele>288</ele>
        <time>2022-06-21T07:59:48Z</time>
      </trkpt>
      <trkpt lat="47.44771" lon="6.64739">
        <ele>288.8</ele>
        <time>2022-06-21T08:00:00Z</time>
      </trkpt>
      <trkpt lat="47.44772" lon="6.64761">
        <ele>290.2</ele>
        <time>2022-06-21T08:00:03Z</time>
      </trkpt>
      <trkpt lat="47.44778" lon="6.64846">
        <ele>290.2</ele>
        <time>2022-06-21T08:00:15Z</time>
      </trkpt>
      <trkpt lat="47.44787" lon="6.6493">
        <ele>290.8</ele>
        <time>2022-06-21T08:00:28Z</time>
      </trkpt>
      <trkpt lat="47.44795" lon="6.64971">
        <ele>290.4</ele>
        <time>2022-06-21T08:00:36Z</time>
      </trkpt>
      <trkpt lat="47.44796" lon="6.64976">
        <ele>290.4</ele>
        <time>2022-06-21T08:00:37Z</time>
      </trkpt>
      <trkpt lat="47.44796" lon="6.64981">
        <ele>290.4</ele>
        <time>2022-06-21T08:00:38Z</time>
      </trkpt>
      <trkpt lat="47.44795" lon="6.65012">
        <ele>291.6</ele>
        <time>2022-06-21T08:00:50Z</time>
      </trkpt>
      <trkpt lat="47.44795" lon="6.65015">
        <ele>291.6</ele>
        <time>2022-06-21T08:00:51Z</time>
      </trkpt>
      <trkpt lat="47.44795" lon="6.65024">
        <ele>292.2</ele>
        <time>2022-06-21T08:01:00Z</time>
      </trkpt>
      <trkpt lat="47.44796" lon="6.65032">
        <ele>293</ele>
        <time>2022-06-21T08:03:59Z</time>
      </trkpt>
      <trkpt lat="47.44796" lon="6.65036">
        <ele>293</ele>
        <time>2022-06-21T08:04:00Z</time>
      </trkpt>
      <trkpt lat="47.44801" lon="6.65121">
        <ele>294.2</ele>
        <time>2022-06-21T08:04:18Z</time>
      </trkpt>
      <trkpt lat="47.44807" lon="6.65204">
        <ele>294.4</ele>
        <time>2022-06-21T08:04:31Z</time>
      </trkpt>
      <trkpt lat="47.44813" lon="6.6529">
        <ele>293.8</ele>
        <time>2022-06-21T08:04:44Z</time>
      </trkpt>
      <trkpt lat="47.44819" lon="6.65379">
        <ele>294</ele>
        <time>2022-06-21T08:04:57Z</time>
      </trkpt>
      <trkpt lat="47.44826" lon="6.65467">
        <ele>294</ele>
        <time>2022-06-21T08:05:09Z</time>
      </trkpt>
      <trkpt lat="47.44832" lon="6.6555">
        <ele>293.2</ele>
        <time>2022-06-21T08:05:21Z</time>
      </trkpt>
      <trkpt lat="47.44839" lon="6.65635">
        <ele>293.4</ele>
        <time>2022-06-21T08:05:33Z</time>
      </trkpt>
      <trkpt lat="47.44845" lon="6.65721">
        <ele>293.8</ele>
        <time>2022-06-21T08:05:45Z</time>
      </trkpt>
      <trkpt lat="47.44852" lon="6.6581">
        <ele>293.2</ele>
        <time>2022-06-21T08:05:58Z</time>
      </trkpt>
      <trkpt lat="47.44859" lon="6.65893">
        <ele>293.6</ele>
        <time>2022-06-21T08:06:10Z</time>
      </trkpt>
      <trkpt lat="47.44865" lon="6.65978">
        <ele>292.4</ele>
        <time>2022-06-21T08:06:22Z</time>
      </trkpt>
      <trkpt lat="47.44872" lon="6.66066">
        <ele>292.4</ele>
        <time>2022-06-21T08:06:34Z</time>
      </trkpt>
      <trkpt lat="47.4488" lon="6.66155">
        <ele>292.6</ele>
        <time>2022-06-21T08:06:46Z</time>
      </trkpt>
      <trkpt lat="47.44886" lon="6.66238">
        <ele>292.4</ele>
        <time>2022-06-21T08:06:57Z</time>
      </trkpt>
      <trkpt lat="47.44888" lon="6.66261">
        <ele>293.8</ele>
        <time>2022-06-21T08:07:00Z</time>
      </trkpt>
      <trkpt lat="47.44895" lon="6.66344">
        <ele>293.4</ele>
        <time>2022-06-21T08:07:11Z</time>
      </trkpt>
      <trkpt lat="47.44901" lon="6.66428">
        <ele>293.4</ele>
        <time>2022-06-21T08:07:22Z</time>
      </trkpt>
      <trkpt lat="47.44908" lon="6.66514">
        <ele>293.8</ele>
        <time>2022-06-21T08:07:33Z</time>
      </trkpt>
      <trkpt lat="47.44915" lon="6.66603">
        <ele>293.8</ele>
        <time>2022-06-21T08:07:44Z</time>
      </trkpt>
      <trkpt lat="47.44921" lon="6.66693">
        <ele>293.4</ele>
        <time>2022-06-21T08:07:55Z</time>
      </trkpt>
      <trkpt lat="47.44928" lon="6.66783">
        <ele>293.4</ele>
        <time>2022-06-21T08:08:06Z</time>
      </trkpt>
      <trkpt lat="47.44935" lon="6.66871">
        <ele>294</ele>
        <time>2022-06-21T08:08:17Z</time>
      </trkpt>
      <trkpt lat="47.44942" lon="6.6696">
        <ele>294</ele>
        <time>2022-06-21T08:08:28Z</time>
      </trkpt>
      <trkpt lat="47.44949" lon="6.67049">
        <ele>294</ele>
        <time>2022-06-21T08:08:39Z</time>
      </trkpt>
      <trkpt lat="47.44957" lon="6.67139">
        <ele>294</ele>
        <time>2022-06-21T08:08:50Z</time>
      </trkpt>
      <trkpt lat="47.44963" lon="6.67224">
        <ele>294.2</ele>
        <time>2022-06-21T08:09:00Z</time>
      </trkpt>
      <trkpt lat="47.4497" lon="6.67313">
        <ele>294.2</ele>
        <time>2022-06-21T08:09:11Z</time>
      </trkpt>
      <trkpt lat="47.44976" lon="6.67401">
        <ele>293.6</ele>
        <time>2022-06-21T08:09:22Z</time>
      </trkpt>
      <trkpt lat="47.44985" lon="6.6749">
        <ele>293.2</ele>
        <time>2022-06-21T08:09:33Z</time>
      </trkpt>
      <trkpt lat="47.44985" lon="6.67497">
        <ele>293.6</ele>
        <time>2022-06-21T08:09:34Z</time>
      </trkpt>
      <trkpt lat="47.44991" lon="6.67582">
        <ele>295.4</ele>
        <time>2022-06-21T08:09:51Z</time>
      </trkpt>
      <trkpt lat="47.44992" lon="6.67606">
        <ele>295.2</ele>
        <time>2022-06-21T08:09:55Z</time>
      </trkpt>
      <trkpt lat="47.44998" lon="6.67693">
        <ele>295.8</ele>
        <time>2022-06-21T08:10:08Z</time>
      </trkpt>
      <trkpt lat="47.45004" lon="6.67776">
        <ele>295.2</ele>
        <time>2022-06-21T08:10:19Z</time>
      </trkpt>
      <trkpt lat="47.45013" lon="6.6786">
        <ele>295.8</ele>
        <time>2022-06-21T08:10:30Z</time>
      </trkpt>
      <trkpt lat="47.45024" lon="6.67945">
        <ele>295.6</ele>
        <time>2022-06-21T08:10:41Z</time>
      </trkpt>
      <trkpt lat="47.45039" lon="6.68029">
        <ele>295.6</ele>
        <time>2022-06-21T08:10:52Z</time>
      </trkpt>
      <trkpt lat="47.45057" lon="6.68111">
        <ele>295.4</ele>
        <time>2022-06-21T08:11:03Z</time>
      </trkpt>
      <trkpt lat="47.45079" lon="6.68188">
        <ele>295</ele>
        <time>2022-06-21T08:11:14Z</time>
      </trkpt>
      <trkpt lat="47.45107" lon="6.6827">
        <ele>295.8</ele>
        <time>2022-06-21T08:11:26Z</time>
      </trkpt>
      <trkpt lat="47.45138" lon="6.68343">
        <ele>296.8</ele>
        <time>2022-06-21T08:11:37Z</time>
      </trkpt>
      <trkpt lat="47.4517" lon="6.68414">
        <ele>297.4</ele>
        <time>2022-06-21T08:11:48Z</time>
      </trkpt>
      <trkpt lat="47.45207" lon="6.68479">
        <ele>296.8</ele>
        <time>2022-06-21T08:11:59Z</time>
      </trkpt>
      <trkpt lat="47.45246" lon="6.68542">
        <ele>296.8</ele>
        <time>2022-06-21T08:12:10Z</time>
      </trkpt>
      <trkpt lat="47.45288" lon="6.68602">
        <ele>297</ele>
        <time>2022-06-21T08:12:21Z</time>
      </trkpt>
      <trkpt lat="47.45334" lon="6.68656">
        <ele>296.8</ele>
        <time>2022-06-21T08:12:32Z</time>
      </trkpt>
      <trkpt lat="47.45382" lon="6.68708">
        <ele>295.6</ele>
        <time>2022-06-21T08:12:43Z</time>
      </trkpt>
      <trkpt lat="47.45427" lon="6.68759">
        <ele>296</ele>
        <time>2022-06-21T08:12:54Z</time>
      </trkpt>
      <trkpt lat="47.45473" lon="6.68808">
        <ele>295.8</ele>
        <time>2022-06-21T08:13:06Z</time>
      </trkpt>
      <trkpt lat="47.45519" lon="6.68855">
        <ele>296</ele>
        <time>2022-06-21T08:13:26Z</time>
      </trkpt>
      <trkpt lat="47.45524" lon="6.68857">
        <ele>295.8</ele>
        <time>2022-06-21T08:13:31Z</time>
      </trkpt>
      <trkpt lat="47.45525" lon="6.68856">
        <ele>296</ele>
        <time>2022-06-21T08:13:32Z</time>
      </trkpt>
      <trkpt lat="47.45526" lon="6.68855">
        <ele>296</ele>
        <time>2022-06-21T08:13:33Z</time>
      </trkpt>
      <trkpt lat="47.45528" lon="6.68853">
        <ele>296.2</ele>
        <time>2022-06-21T08:13:34Z</time>
      </trkpt>
      <trkpt lat="47.45529" lon="6.68851">
        <ele>296.4</ele>
        <time>2022-06-21T08:13:35Z</time>
      </trkpt>
      <trkpt lat="47.4553" lon="6.6885">
        <ele>296.4</ele>
        <time>2022-06-21T08:13:36Z</time>
      </trkpt>
      <trkpt lat="47.45531" lon="6.68848">
        <ele>296.6</ele>
        <time>2022-06-21T08:13:37Z</time>
      </trkpt>
      <trkpt lat="47.45531" lon="6.68846">
        <ele>296.6</ele>
        <time>2022-06-21T08:13:38Z</time>
      </trkpt>
      <trkpt lat="47.45532" lon="6.68844">
        <ele>296.6</ele>
        <time>2022-06-21T08:13:39Z</time>
      </trkpt>
      <trkpt lat="47.45533" lon="6.68843">
        <ele>296.4</ele>
        <time>2022-06-21T08:13:40Z</time>
      </trkpt>
      <trkpt lat="47.45535" lon="6.68841">
        <ele>296.2</ele>
        <time>2022-06-21T08:13:41Z</time>
      </trkpt>
      <trkpt lat="47.45536" lon="6.6884">
        <ele>296.2</ele>
        <time>2022-06-21T08:13:42Z</time>
      </trkpt>
      <trkpt lat="47.45585" lon="6.68799">
        <ele>294.8</ele>
        <time>2022-06-21T08:14:01Z</time>
      </trkpt>
      <trkpt lat="47.45615" lon="6.6877">
        <ele>295</ele>
        <time>2022-06-21T08:14:29Z</time>
      </trkpt>
      <trkpt lat="47.45608" lon="6.68765">
        <ele>295</ele>
        <time>2022-06-21T08:14:48Z</time>
      </trkpt>
      <trkpt lat="47.45607" lon="6.68766">
        <ele>295.2</ele>
        <time>2022-06-21T08:14:49Z</time>
      </trkpt>
      <trkpt lat="47.45605" lon="6.68767">
        <ele>295.2</ele>
        <time>2022-06-21T08:14:50Z</time>
      </trkpt>
      <trkpt lat="47.45603" lon="6.68767">
        <ele>295.2</ele>
        <time>2022-06-21T08:14:51Z</time>
      </trkpt>
      <trkpt lat="47.45602" lon="6.68768">
        <ele>295.2</ele>
        <time>2022-06-21T08:14:52Z</time>
      </trkpt>
      <trkpt lat="47.456" lon="6.68768">
        <ele>295</ele>
        <time>2022-06-21T08:14:53Z</time>
      </trkpt>
      <trkpt lat="47.45598" lon="6.68768">
        <ele>295</ele>
        <time>2022-06-21T08:14:54Z</time>
      </trkpt>
      <trkpt lat="47.45597" lon="6.68768">
        <ele>294.8</ele>
        <time>2022-06-21T08:14:55Z</time>
      </trkpt>
      <trkpt lat="47.45595" lon="6.68768">
        <ele>294.8</ele>
        <time>2022-06-21T08:14:56Z</time>
      </trkpt>
      <trkpt lat="47.45594" lon="6.68768">
        <ele>294.8</ele>
        <time>2022-06-21T08:14:57Z</time>
      </trkpt>
      <trkpt lat="47.45592" lon="6.68769">
        <ele>294.6</ele>
        <time>2022-06-21T08:14:58Z</time>
      </trkpt>
      <trkpt lat="47.4559" lon="6.68771">
        <ele>294.6</ele>
        <time>2022-06-21T08:14:59Z</time>
      </trkpt>
      <trkpt lat="47.45589" lon="6.68773">
        <ele>294.6</ele>
        <time>2022-06-21T08:15:00Z</time>
      </trkpt>
      <trkpt lat="47.45587" lon="6.68775">
        <ele>294.6</ele>
        <time>2022-06-21T08:15:01Z</time>
      </trkpt>
      <trkpt lat="47.45538" lon="6.68824">
        <ele>295.8</ele>
        <time>2022-06-21T08:15:24Z</time>
      </trkpt>
      <trkpt lat="47.45499" lon="6.6889">
        <ele>295.6</ele>
        <time>2022-06-21T08:15:46Z</time>
      </trkpt>
      <trkpt lat="47.45462" lon="6.68908">
        <ele>295.6</ele>
        <time>2022-06-21T08:15:56Z</time>
      </trkpt>
      <trkpt lat="47.45412" lon="6.68951">
        <ele>295.8</ele>
        <time>2022-06-21T08:16:11Z</time>
      </trkpt>
      <trkpt lat="47.45404" lon="6.68962">
        <ele>296.8</ele>
        <time>2022-06-21T08:16:15Z</time>
      </trkpt>
      <trkpt lat="47.45403" lon="6.68967">
        <ele>296.4</ele>
        <time>2022-06-21T08:16:16Z</time>
      </trkpt>
      <trkpt lat="47.45404" lon="6.68971">
        <ele>296.2</ele>
        <time>2022-06-21T08:16:17Z</time>
      </trkpt>
      <trkpt lat="47.45405" lon="6.68975">
        <ele>296.2</ele>
        <time>2022-06-21T08:16:18Z</time>
      </trkpt>
      <trkpt lat="47.45407" lon="6.68979">
        <ele>296</ele>
        <time>2022-06-21T08:16:19Z</time>
      </trkpt>
      <trkpt lat="47.45409" lon="6.68983">
        <ele>296</ele>
        <time>2022-06-21T08:16:20Z</time>
      </trkpt>
      <trkpt lat="47.45448" lon="6.69043">
        <ele>296.4</ele>
        <time>2022-06-21T08:16:37Z</time>
      </trkpt>
      <trkpt lat="47.45499" lon="6.69078">
        <ele>296.4</ele>
        <time>2022-06-21T08:16:53Z</time>
      </trkpt>
      <trkpt lat="47.45552" lon="6.6912">
        <ele>296.2</ele>
        <time>2022-06-21T08:17:08Z</time>
      </trkpt>
      <trkpt lat="47.45599" lon="6.69177">
        <ele>296.4</ele>
        <time>2022-06-21T08:17:23Z</time>
      </trkpt>
      <trkpt lat="47.45646" lon="6.69234">
        <ele>295.8</ele>
        <time>2022-06-21T08:17:37Z</time>
      </trkpt>
      <trkpt lat="47.45694" lon="6.69284">
        <ele>297</ele>
        <time>2022-06-21T08:17:50Z</time>
      </trkpt>
      <trkpt lat="47.45744" lon="6.6933">
        <ele>297.8</ele>
        <time>2022-06-21T08:18:03Z</time>
      </trkpt>
      <trkpt lat="47.45792" lon="6.69374">
        <ele>297.8</ele>
        <time>2022-06-21T08:18:16Z</time>
      </trkpt>
      <trkpt lat="47.4584" lon="6.69425">
        <ele>298.6</ele>
        <time>2022-06-21T08:18:31Z</time>
      </trkpt>
      <trkpt lat="47.45879" lon="6.69488">
        <ele>298.4</ele>
        <time>2022-06-21T08:18:46Z</time>
      </trkpt>
      <trkpt lat="47.45907" lon="6.69563">
        <ele>299.2</ele>
        <time>2022-06-21T08:19:01Z</time>
      </trkpt>
      <trkpt lat="47.45929" lon="6.6964">
        <ele>300.8</ele>
        <time>2022-06-21T08:19:18Z</time>
      </trkpt>
      <trkpt lat="47.45945" lon="6.69721">
        <ele>301.8</ele>
        <time>2022-06-21T08:19:35Z</time>
      </trkpt>
      <trkpt lat="47.45958" lon="6.69803">
        <ele>303.4</ele>
        <time>2022-06-21T08:19:55Z</time>
      </trkpt>
      <trkpt lat="47.45959" lon="6.69879">
        <ele>306.6</ele>
        <time>2022-06-21T08:20:15Z</time>
      </trkpt>
      <trkpt lat="47.45946" lon="6.69961">
        <ele>308.8</ele>
        <time>2022-06-21T08:20:39Z</time>
      </trkpt>
      <trkpt lat="47.45934" lon="6.70048">
        <ele>310.8</ele>
        <time>2022-06-21T08:20:58Z</time>
      </trkpt>
      <trkpt lat="47.45943" lon="6.70137">
        <ele>312.4</ele>
        <time>2022-06-21T08:21:16Z</time>
      </trkpt>
      <trkpt lat="47.4596" lon="6.70221">
        <ele>314</ele>
        <time>2022-06-21T08:21:35Z</time>
      </trkpt>
      <trkpt lat="47.45977" lon="6.70304">
        <ele>315.8</ele>
        <time>2022-06-21T08:21:56Z</time>
      </trkpt>
      <trkpt lat="47.45997" lon="6.70387">
        <ele>316.6</ele>
        <time>2022-06-21T08:22:17Z</time>
      </trkpt>
      <trkpt lat="47.46021" lon="6.70466">
        <ele>318.8</ele>
        <time>2022-06-21T08:22:38Z</time>
      </trkpt>
      <trkpt lat="47.46043" lon="6.70544">
        <ele>321.6</ele>
        <time>2022-06-21T08:22:59Z</time>
      </trkpt>
      <trkpt lat="47.46054" lon="6.70631">
        <ele>322.6</ele>
        <time>2022-06-21T08:23:18Z</time>
      </trkpt>
      <trkpt lat="47.46059" lon="6.70717">
        <ele>323.8</ele>
        <time>2022-06-21T08:23:35Z</time>
      </trkpt>
      <trkpt lat="47.46051" lon="6.70798">
        <ele>324.2</ele>
        <time>2022-06-21T08:23:51Z</time>
      </trkpt>
      <trkpt lat="47.46056" lon="6.7088">
        <ele>325.8</ele>
        <time>2022-06-21T08:24:09Z</time>
      </trkpt>
      <trkpt lat="47.46079" lon="6.70956">
        <ele>328.2</ele>
        <time>2022-06-21T08:24:32Z</time>
      </trkpt>
      <trkpt lat="47.461" lon="6.71009">
        <ele>331.4</ele>
        <time>2022-06-21T08:24:54Z</time>
      </trkpt>
      <trkpt lat="47.46125" lon="6.71074">
        <ele>334.4</ele>
        <time>2022-06-21T08:25:21Z</time>
      </trkpt>
      <trkpt lat="47.46157" lon="6.71135">
        <ele>336.2</ele>
        <time>2022-06-21T08:25:47Z</time>
      </trkpt>
      <trkpt lat="47.46159" lon="6.71138">
        <ele>336.8</ele>
        <time>2022-06-21T08:25:48Z</time>
      </trkpt>
      <trkpt lat="47.46183" lon="6.71188">
        <ele>339.8</ele>
        <time>2022-06-21T08:26:08Z</time>
      </trkpt>
      <trkpt lat="47.46207" lon="6.71237">
        <ele>342.8</ele>
        <time>2022-06-21T08:26:30Z</time>
      </trkpt>
      <trkpt lat="47.46232" lon="6.71279">
        <ele>346</ele>
        <time>2022-06-21T08:26:51Z</time>
      </trkpt>
      <trkpt lat="47.46257" lon="6.71323">
        <ele>349</ele>
        <time>2022-06-21T08:27:12Z</time>
      </trkpt>
      <trkpt lat="47.46273" lon="6.7137">
        <ele>351.2</ele>
        <time>2022-06-21T08:27:33Z</time>
      </trkpt>
      <trkpt lat="47.46272" lon="6.71372">
        <ele>350.8</ele>
        <time>2022-06-21T08:27:34Z</time>
      </trkpt>
      <trkpt lat="47.46272" lon="6.71374">
        <ele>350.6</ele>
        <time>2022-06-21T08:27:35Z</time>
      </trkpt>
      <trkpt lat="47.46272" lon="6.71375">
        <ele>350.4</ele>
        <time>2022-06-21T08:27:36Z</time>
      </trkpt>
      <trkpt lat="47.46272" lon="6.71377">
        <ele>350.4</ele>
        <time>2022-06-21T08:27:37Z</time>
      </trkpt>
      <trkpt lat="47.46274" lon="6.71378">
        <ele>350.4</ele>
        <time>2022-06-21T08:27:44Z</time>
      </trkpt>
      <trkpt lat="47.46279" lon="6.71385">
        <ele>351.8</ele>
        <time>2022-06-21T08:31:35Z</time>
      </trkpt>
      <trkpt lat="47.46279" lon="6.71388">
        <ele>351.6</ele>
        <time>2022-06-21T08:31:36Z</time>
      </trkpt>
      <trkpt lat="47.46279" lon="6.71391">
        <ele>351.6</ele>
        <time>2022-06-21T08:31:37Z</time>
      </trkpt>
      <trkpt lat="47.46278" lon="6.71395">
        <ele>351.4</ele>
        <time>2022-06-21T08:31:38Z</time>
      </trkpt>
      <trkpt lat="47.46264" lon="6.71444">
        <ele>351.8</ele>
        <time>2022-06-21T08:31:48Z</time>
      </trkpt>
      <trkpt lat="47.46249" lon="6.71528">
        <ele>351.2</ele>
        <time>2022-06-21T08:32:01Z</time>
      </trkpt>
      <trkpt lat="47.46253" lon="6.71615">
        <ele>349.2</ele>
        <time>2022-06-21T08:32:13Z</time>
      </trkpt>
      <trkpt lat="47.46269" lon="6.71702">
        <ele>350</ele>
        <time>2022-06-21T08:32:28Z</time>
      </trkpt>
      <trkpt lat="47.46278" lon="6.7173">
        <ele>349.8</ele>
        <time>2022-06-21T08:32:34Z</time>
      </trkpt>
      <trkpt lat="47.46281" lon="6.71735">
        <ele>349.8</ele>
        <time>2022-06-21T08:32:35Z</time>
      </trkpt>
      <trkpt lat="47.46283" lon="6.7174">
        <ele>350</ele>
        <time>2022-06-21T08:32:36Z</time>
      </trkpt>
      <trkpt lat="47.46286" lon="6.71745">
        <ele>350</ele>
        <time>2022-06-21T08:32:37Z</time>
      </trkpt>
      <trkpt lat="47.4629" lon="6.7175">
        <ele>350</ele>
        <time>2022-06-21T08:32:38Z</time>
      </trkpt>
      <trkpt lat="47.46293" lon="6.71755">
        <ele>349.6</ele>
        <time>2022-06-21T08:32:39Z</time>
      </trkpt>
      <trkpt lat="47.46296" lon="6.71761">
        <ele>349.4</ele>
        <time>2022-06-21T08:32:40Z</time>
      </trkpt>
      <trkpt lat="47.46299" lon="6.71767">
        <ele>349.2</ele>
        <time>2022-06-21T08:32:41Z</time>
      </trkpt>
      <trkpt lat="47.46301" lon="6.71774">
        <ele>349.2</ele>
        <time>2022-06-21T08:32:42Z</time>
      </trkpt>
      <trkpt lat="47.46311" lon="6.71818">
        <ele>348.2</ele>
        <time>2022-06-21T08:32:48Z</time>
      </trkpt>
      <trkpt lat="47.46328" lon="6.71905">
        <ele>347.6</ele>
        <time>2022-06-21T08:33:00Z</time>
      </trkpt>
      <trkpt lat="47.46332" lon="6.71927">
        <ele>347.8</ele>
        <time>2022-06-21T08:33:03Z</time>
      </trkpt>
      <trkpt lat="47.46335" lon="6.71934">
        <ele>347.8</ele>
        <time>2022-06-21T08:33:04Z</time>
      </trkpt>
      <trkpt lat="47.46365" lon="6.71998">
        <ele>348.6</ele>
        <time>2022-06-21T08:33:16Z</time>
      </trkpt>
      <trkpt lat="47.4637" lon="6.72008">
        <ele>348.8</ele>
        <time>2022-06-21T08:33:18Z</time>
      </trkpt>
      <trkpt lat="47.464" lon="6.72083">
        <ele>349.2</ele>
        <time>2022-06-21T08:33:34Z</time>
      </trkpt>
      <trkpt lat="47.46435" lon="6.7215">
        <ele>352.2</ele>
        <time>2022-06-21T08:33:56Z</time>
      </trkpt>
      <trkpt lat="47.46478" lon="6.72188">
        <ele>354.4</ele>
        <time>2022-06-21T08:34:23Z</time>
      </trkpt>
      <trkpt lat="47.46531" lon="6.7216">
        <ele>356</ele>
        <time>2022-06-21T08:34:45Z</time>
      </trkpt>
      <trkpt lat="47.46588" lon="6.72147">
        <ele>357.8</ele>
        <time>2022-06-21T08:35:09Z</time>
      </trkpt>
      <trkpt lat="47.46599" lon="6.72147">
        <ele>359</ele>
        <time>2022-06-21T08:35:15Z</time>
      </trkpt>
      <trkpt lat="47.4663" lon="6.72214">
        <ele>361.2</ele>
        <time>2022-06-21T08:35:38Z</time>
      </trkpt>
      <trkpt lat="47.46652" lon="6.72294">
        <ele>362.6</ele>
        <time>2022-06-21T08:35:57Z</time>
      </trkpt>
      <trkpt lat="47.46683" lon="6.72368">
        <ele>362.8</ele>
        <time>2022-06-21T08:36:14Z</time>
      </trkpt>
      <trkpt lat="47.46721" lon="6.7243">
        <ele>359.8</ele>
        <time>2022-06-21T08:36:25Z</time>
      </trkpt>
      <trkpt lat="47.46725" lon="6.72437">
        <ele>359.4</ele>
        <time>2022-06-21T08:36:26Z</time>
      </trkpt>
      <trkpt lat="47.46764" lon="6.72475">
        <ele>357.8</ele>
        <time>2022-06-21T08:36:32Z</time>
      </trkpt>
      <trkpt lat="47.46805" lon="6.725">
        <ele>354.4</ele>
        <time>2022-06-21T08:36:37Z</time>
      </trkpt>
      <trkpt lat="47.46835" lon="6.72526">
        <ele>351.4</ele>
        <time>2022-06-21T08:36:42Z</time>
      </trkpt>
      <trkpt lat="47.46889" lon="6.72578">
        <ele>349.2</ele>
        <time>2022-06-21T08:36:51Z</time>
      </trkpt>
      <trkpt lat="47.46918" lon="6.72608">
        <ele>345.8</ele>
        <time>2022-06-21T08:36:55Z</time>
      </trkpt>
      <trkpt lat="47.46952" lon="6.72643">
        <ele>342.6</ele>
        <time>2022-06-21T08:36:59Z</time>
      </trkpt>
      <trkpt lat="47.46976" lon="6.72667">
        <ele>339.2</ele>
        <time>2022-06-21T08:37:02Z</time>
      </trkpt>
      <trkpt lat="47.47008" lon="6.72702">
        <ele>335.8</ele>
        <time>2022-06-21T08:37:07Z</time>
      </trkpt>
      <trkpt lat="47.47028" lon="6.72736">
        <ele>332.6</ele>
        <time>2022-06-21T08:37:11Z</time>
      </trkpt>
      <trkpt lat="47.47064" lon="6.72783">
        <ele>329.6</ele>
        <time>2022-06-21T08:37:17Z</time>
      </trkpt>
      <trkpt lat="47.47098" lon="6.72815">
        <ele>326.6</ele>
        <time>2022-06-21T08:37:22Z</time>
      </trkpt>
      <trkpt lat="47.47148" lon="6.72859">
        <ele>324.6</ele>
        <time>2022-06-21T08:37:29Z</time>
      </trkpt>
      <trkpt lat="47.47208" lon="6.72893">
        <ele>322.8</ele>
        <time>2022-06-21T08:37:38Z</time>
      </trkpt>
      <trkpt lat="47.47234" lon="6.729">
        <ele>321.4</ele>
        <time>2022-06-21T08:37:42Z</time>
      </trkpt>
      <trkpt lat="47.4724" lon="6.72903">
        <ele>320.8</ele>
        <time>2022-06-21T08:37:43Z</time>
      </trkpt>
      <trkpt lat="47.47246" lon="6.72906">
        <ele>320.4</ele>
        <time>2022-06-21T08:37:44Z</time>
      </trkpt>
      <trkpt lat="47.47252" lon="6.72911">
        <ele>320.2</ele>
        <time>2022-06-21T08:37:45Z</time>
      </trkpt>
      <trkpt lat="47.47257" lon="6.72916">
        <ele>319.8</ele>
        <time>2022-06-21T08:37:46Z</time>
      </trkpt>
      <trkpt lat="47.47302" lon="6.72972">
        <ele>318.4</ele>
        <time>2022-06-21T08:37:54Z</time>
      </trkpt>
      <trkpt lat="47.47338" lon="6.73024">
        <ele>316.2</ele>
        <time>2022-06-21T08:38:01Z</time>
      </trkpt>
      <trkpt lat="47.47344" lon="6.73028">
        <ele>315.8</ele>
        <time>2022-06-21T08:38:02Z</time>
      </trkpt>
      <trkpt lat="47.4735" lon="6.73031">
        <ele>315.6</ele>
        <time>2022-06-21T08:38:03Z</time>
      </trkpt>
      <trkpt lat="47.47357" lon="6.73031">
        <ele>315.4</ele>
        <time>2022-06-21T08:38:04Z</time>
      </trkpt>
      <trkpt lat="47.47364" lon="6.73031">
        <ele>315</ele>
        <time>2022-06-21T08:38:05Z</time>
      </trkpt>
      <trkpt lat="47.47389" lon="6.73036">
        <ele>314</ele>
        <time>2022-06-21T08:38:09Z</time>
      </trkpt>
      <trkpt lat="47.47414" lon="6.73049">
        <ele>311</ele>
        <time>2022-06-21T08:38:16Z</time>
      </trkpt>
      <trkpt lat="47.47416" lon="6.73052">
        <ele>309.8</ele>
        <time>2022-06-21T08:38:22Z</time>
      </trkpt>
      <trkpt lat="47.47421" lon="6.73056">
        <ele>309.8</ele>
        <time>2022-06-21T08:38:37Z</time>
      </trkpt>
      <trkpt lat="47.47424" lon="6.73057">
        <ele>310</ele>
        <time>2022-06-21T08:38:38Z</time>
      </trkpt>
      <trkpt lat="47.47427" lon="6.73058">
        <ele>310</ele>
        <time>2022-06-21T08:38:39Z</time>
      </trkpt>
      <trkpt lat="47.4743" lon="6.73059">
        <ele>310</ele>
        <time>2022-06-21T08:38:40Z</time>
      </trkpt>
      <trkpt lat="47.47433" lon="6.73059">
        <ele>309.8</ele>
        <time>2022-06-21T08:38:41Z</time>
      </trkpt>
      <trkpt lat="47.47436" lon="6.73058">
        <ele>309.6</ele>
        <time>2022-06-21T08:38:42Z</time>
      </trkpt>
      <trkpt lat="47.47446" lon="6.73058">
        <ele>309.2</ele>
        <time>2022-06-21T08:38:45Z</time>
      </trkpt>
      <trkpt lat="47.4745" lon="6.7306">
        <ele>308.8</ele>
        <time>2022-06-21T08:38:46Z</time>
      </trkpt>
      <trkpt lat="47.47454" lon="6.73064">
        <ele>308.6</ele>
        <time>2022-06-21T08:38:47Z</time>
      </trkpt>
      <trkpt lat="47.47457" lon="6.7307">
        <ele>308.4</ele>
        <time>2022-06-21T08:38:48Z</time>
      </trkpt>
      <trkpt lat="47.47459" lon="6.73076">
        <ele>308.4</ele>
        <time>2022-06-21T08:38:49Z</time>
      </trkpt>
      <trkpt lat="47.47461" lon="6.7308">
        <ele>308.4</ele>
        <time>2022-06-21T08:38:50Z</time>
      </trkpt>
      <trkpt lat="47.47488" lon="6.7314">
        <ele>311.4</ele>
        <time>2022-06-21T08:39:11Z</time>
      </trkpt>
      <trkpt lat="47.47507" lon="6.73222">
        <ele>312.8</ele>
        <time>2022-06-21T08:39:34Z</time>
      </trkpt>
      <trkpt lat="47.47501" lon="6.73266">
        <ele>312</ele>
        <time>2022-06-21T08:39:45Z</time>
      </trkpt>
      <trkpt lat="47.47502" lon="6.73272">
        <ele>311.8</ele>
        <time>2022-06-21T08:39:46Z</time>
      </trkpt>
      <trkpt lat="47.47504" lon="6.73285">
        <ele>311.8</ele>
        <time>2022-06-21T08:39:48Z</time>
      </trkpt>
      <trkpt lat="47.47506" lon="6.73291">
        <ele>311.8</ele>
        <time>2022-06-21T08:39:49Z</time>
      </trkpt>
      <trkpt lat="47.47508" lon="6.73297">
        <ele>312</ele>
        <time>2022-06-21T08:39:50Z</time>
      </trkpt>
      <trkpt lat="47.4751" lon="6.73304">
        <ele>312</ele>
        <time>2022-06-21T08:39:51Z</time>
      </trkpt>
      <trkpt lat="47.47512" lon="6.73311">
        <ele>311.8</ele>
        <time>2022-06-21T08:39:52Z</time>
      </trkpt>
      <trkpt lat="47.47515" lon="6.73317">
        <ele>311.2</ele>
        <time>2022-06-21T08:39:53Z</time>
      </trkpt>
      <trkpt lat="47.47518" lon="6.73322">
        <ele>310.8</ele>
        <time>2022-06-21T08:39:54Z</time>
      </trkpt>
      <trkpt lat="47.47521" lon="6.73326">
        <ele>310.4</ele>
        <time>2022-06-21T08:39:55Z</time>
      </trkpt>
      <trkpt lat="47.47523" lon="6.73329">
        <ele>310</ele>
        <time>2022-06-21T08:39:56Z</time>
      </trkpt>
      <trkpt lat="47.47534" lon="6.73339">
        <ele>307.6</ele>
        <time>2022-06-21T08:40:02Z</time>
      </trkpt>
      <trkpt lat="47.47533" lon="6.73342">
        <ele>307.4</ele>
        <time>2022-06-21T08:40:03Z</time>
      </trkpt>
      <trkpt lat="47.47533" lon="6.73344">
        <ele>307</ele>
        <time>2022-06-21T08:40:04Z</time>
      </trkpt>
      <trkpt lat="47.47531" lon="6.73347">
        <ele>306.8</ele>
        <time>2022-06-21T08:40:05Z</time>
      </trkpt>
      <trkpt lat="47.47529" lon="6.73348">
        <ele>306.6</ele>
        <time>2022-06-21T08:40:06Z</time>
      </trkpt>
      <trkpt lat="47.47527" lon="6.73349">
        <ele>306.4</ele>
        <time>2022-06-21T08:40:07Z</time>
      </trkpt>
      <trkpt lat="47.47524" lon="6.73351">
        <ele>306.4</ele>
        <time>2022-06-21T08:40:08Z</time>
      </trkpt>
      <trkpt lat="47.47522" lon="6.73352">
        <ele>306.4</ele>
        <time>2022-06-21T08:40:09Z</time>
      </trkpt>
      <trkpt lat="47.47519" lon="6.73354">
        <ele>306.2</ele>
        <time>2022-06-21T08:40:10Z</time>
      </trkpt>
      <trkpt lat="47.47512" lon="6.73373">
        <ele>306</ele>
        <time>2022-06-21T08:40:14Z</time>
      </trkpt>
      <trkpt lat="47.47513" lon="6.73379">
        <ele>306</ele>
        <time>2022-06-21T08:40:15Z</time>
      </trkpt>
      <trkpt lat="47.47514" lon="6.73385">
        <ele>306</ele>
        <time>2022-06-21T08:40:16Z</time>
      </trkpt>
      <trkpt lat="47.47532" lon="6.73465">
        <ele>306.2</ele>
        <time>2022-06-21T08:40:28Z</time>
      </trkpt>
      <trkpt lat="47.47553" lon="6.73545">
        <ele>307.6</ele>
        <time>2022-06-21T08:40:41Z</time>
      </trkpt>
      <trkpt lat="47.47554" lon="6.73551">
        <ele>307.4</ele>
        <time>2022-06-21T08:40:42Z</time>
      </trkpt>
      <trkpt lat="47.47564" lon="6.73592">
        <ele>307</ele>
        <time>2022-06-21T08:40:51Z</time>
      </trkpt>
      <trkpt lat="47.47566" lon="6.73592">
        <ele>306.8</ele>
        <time>2022-06-21T08:40:52Z</time>
      </trkpt>
      <trkpt lat="47.47577" lon="6.73598">
        <ele>307.4</ele>
        <time>2022-06-21T08:40:56Z</time>
      </trkpt>
      <trkpt lat="47.47578" lon="6.73601">
        <ele>307.4</ele>
        <time>2022-06-21T08:40:57Z</time>
      </trkpt>
      <trkpt lat="47.47579" lon="6.73606">
        <ele>307.6</ele>
        <time>2022-06-21T08:40:58Z</time>
      </trkpt>
      <trkpt lat="47.47592" lon="6.73691">
        <ele>307.8</ele>
        <time>2022-06-21T08:41:12Z</time>
      </trkpt>
      <trkpt lat="47.47608" lon="6.73776">
        <ele>308.2</ele>
        <time>2022-06-21T08:41:24Z</time>
      </trkpt>
      <trkpt lat="47.47622" lon="6.7386">
        <ele>307.8</ele>
        <time>2022-06-21T08:41:35Z</time>
      </trkpt>
      <trkpt lat="47.47638" lon="6.73947">
        <ele>308.4</ele>
        <time>2022-06-21T08:41:46Z</time>
      </trkpt>
      <trkpt lat="47.47657" lon="6.74033">
        <ele>308.4</ele>
        <time>2022-06-21T08:41:57Z</time>
      </trkpt>
      <trkpt lat="47.47675" lon="6.74117">
        <ele>308.6</ele>
        <time>2022-06-21T08:42:08Z</time>
      </trkpt>
      <trkpt lat="47.47691" lon="6.74198">
        <ele>308.4</ele>
        <time>2022-06-21T08:42:19Z</time>
      </trkpt>
      <trkpt lat="47.47705" lon="6.74281">
        <ele>307.8</ele>
        <time>2022-06-21T08:42:30Z</time>
      </trkpt>
      <trkpt lat="47.47716" lon="6.74367">
        <ele>308.4</ele>
        <time>2022-06-21T08:42:41Z</time>
      </trkpt>
      <trkpt lat="47.47724" lon="6.74434">
        <ele>308</ele>
        <time>2022-06-21T08:42:50Z</time>
      </trkpt>
      <trkpt lat="47.47723" lon="6.74441">
        <ele>308</ele>
        <time>2022-06-21T08:42:51Z</time>
      </trkpt>
      <trkpt lat="47.47721" lon="6.74448">
        <ele>308</ele>
        <time>2022-06-21T08:42:52Z</time>
      </trkpt>
      <trkpt lat="47.47719" lon="6.74453">
        <ele>308</ele>
        <time>2022-06-21T08:42:53Z</time>
      </trkpt>
      <trkpt lat="47.47717" lon="6.74459">
        <ele>307.8</ele>
        <time>2022-06-21T08:42:54Z</time>
      </trkpt>
      <trkpt lat="47.47716" lon="6.74465">
        <ele>308</ele>
        <time>2022-06-21T08:42:55Z</time>
      </trkpt>
      <trkpt lat="47.47716" lon="6.74472">
        <ele>308.2</ele>
        <time>2022-06-21T08:42:56Z</time>
      </trkpt>
      <trkpt lat="47.47717" lon="6.74478">
        <ele>308.4</ele>
        <time>2022-06-21T08:42:57Z</time>
      </trkpt>
      <trkpt lat="47.4772" lon="6.74518">
        <ele>308.4</ele>
        <time>2022-06-21T08:43:03Z</time>
      </trkpt>
      <trkpt lat="47.47721" lon="6.74525">
        <ele>308.4</ele>
        <time>2022-06-21T08:43:04Z</time>
      </trkpt>
      <trkpt lat="47.47723" lon="6.74532">
        <ele>308.4</ele>
        <time>2022-06-21T08:43:05Z</time>
      </trkpt>
      <trkpt lat="47.47729" lon="6.74561">
        <ele>308.4</ele>
        <time>2022-06-21T08:43:09Z</time>
      </trkpt>
      <trkpt lat="47.47729" lon="6.74569">
        <ele>308.4</ele>
        <time>2022-06-21T08:43:10Z</time>
      </trkpt>
      <trkpt lat="47.4773" lon="6.74578">
        <ele>308</ele>
        <time>2022-06-21T08:43:11Z</time>
      </trkpt>
      <trkpt lat="47.47732" lon="6.74633">
        <ele>306.2</ele>
        <time>2022-06-21T08:43:18Z</time>
      </trkpt>
      <trkpt lat="47.47732" lon="6.7472">
        <ele>304.8</ele>
        <time>2022-06-21T08:43:29Z</time>
      </trkpt>
      <trkpt lat="47.47729" lon="6.74805">
        <ele>305.2</ele>
        <time>2022-06-21T08:43:40Z</time>
      </trkpt>
      <trkpt lat="47.47727" lon="6.7489">
        <ele>304.2</ele>
        <time>2022-06-21T08:43:51Z</time>
      </trkpt>
      <trkpt lat="47.47727" lon="6.74931">
        <ele>306.8</ele>
        <time>2022-06-21T08:43:56Z</time>
      </trkpt>
      <trkpt lat="47.47724" lon="6.75021">
        <ele>306.2</ele>
        <time>2022-06-21T08:44:07Z</time>
      </trkpt>
      <trkpt lat="47.4772" lon="6.75112">
        <ele>306.6</ele>
        <time>2022-06-21T08:44:18Z</time>
      </trkpt>
      <trkpt lat="47.47714" lon="6.75203">
        <ele>306.8</ele>
        <time>2022-06-21T08:44:29Z</time>
      </trkpt>
      <trkpt lat="47.4771" lon="6.75293">
        <ele>307.2</ele>
        <time>2022-06-21T08:44:40Z</time>
      </trkpt>
      <trkpt lat="47.4771" lon="6.75381">
        <ele>306.4</ele>
        <time>2022-06-21T08:44:50Z</time>
      </trkpt>
      <trkpt lat="47.47709" lon="6.75467">
        <ele>306.2</ele>
        <time>2022-06-21T08:45:00Z</time>
      </trkpt>
      <trkpt lat="47.47706" lon="6.7556">
        <ele>306.2</ele>
        <time>2022-06-21T08:45:11Z</time>
      </trkpt>
      <trkpt lat="47.47704" lon="6.75645">
        <ele>306.2</ele>
        <time>2022-06-21T08:45:21Z</time>
      </trkpt>
      <trkpt lat="47.47702" lon="6.75677">
        <ele>306.6</ele>
        <time>2022-06-21T08:45:25Z</time>
      </trkpt>
      <trkpt lat="47.47705" lon="6.75745">
        <ele>307.6</ele>
        <time>2022-06-21T08:45:39Z</time>
      </trkpt>
      <trkpt lat="47.47702" lon="6.75842">
        <ele>307.6</ele>
        <time>2022-06-21T08:45:53Z</time>
      </trkpt>
      <trkpt lat="47.47696" lon="6.75929">
        <ele>308.2</ele>
        <time>2022-06-21T08:46:05Z</time>
      </trkpt>
      <trkpt lat="47.47693" lon="6.75944">
        <ele>308.4</ele>
        <time>2022-06-21T08:46:07Z</time>
      </trkpt>
      <trkpt lat="47.47691" lon="6.75951">
        <ele>308.4</ele>
        <time>2022-06-21T08:46:08Z</time>
      </trkpt>
      <trkpt lat="47.47689" lon="6.75957">
        <ele>308.4</ele>
        <time>2022-06-21T08:46:09Z</time>
      </trkpt>
      <trkpt lat="47.47686" lon="6.75963">
        <ele>308.4</ele>
        <time>2022-06-21T08:46:10Z</time>
      </trkpt>
      <trkpt lat="47.47683" lon="6.75969">
        <ele>308.6</ele>
        <time>2022-06-21T08:46:11Z</time>
      </trkpt>
      <trkpt lat="47.47677" lon="6.7598">
        <ele>308.6</ele>
        <time>2022-06-21T08:46:13Z</time>
      </trkpt>
      <trkpt lat="47.47675" lon="6.75987">
        <ele>308.6</ele>
        <time>2022-06-21T08:46:14Z</time>
      </trkpt>
      <trkpt lat="47.47666" lon="6.76013">
        <ele>308.6</ele>
        <time>2022-06-21T08:46:18Z</time>
      </trkpt>
      <trkpt lat="47.47664" lon="6.76029">
        <ele>308.6</ele>
        <time>2022-06-21T08:46:20Z</time>
      </trkpt>
      <trkpt lat="47.47664" lon="6.76037">
        <ele>308.4</ele>
        <time>2022-06-21T08:46:21Z</time>
      </trkpt>
      <trkpt lat="47.47665" lon="6.76052">
        <ele>308.6</ele>
        <time>2022-06-21T08:46:23Z</time>
      </trkpt>
      <trkpt lat="47.47666" lon="6.7606">
        <ele>308.6</ele>
        <time>2022-06-21T08:46:24Z</time>
      </trkpt>
      <trkpt lat="47.4767" lon="6.76075">
        <ele>308.4</ele>
        <time>2022-06-21T08:46:26Z</time>
      </trkpt>
      <trkpt lat="47.47673" lon="6.76082">
        <ele>308.4</ele>
        <time>2022-06-21T08:46:27Z</time>
      </trkpt>
      <trkpt lat="47.47676" lon="6.76088">
        <ele>308.4</ele>
        <time>2022-06-21T08:46:28Z</time>
      </trkpt>
      <trkpt lat="47.47679" lon="6.76094">
        <ele>308.4</ele>
        <time>2022-06-21T08:46:29Z</time>
      </trkpt>
      <trkpt lat="47.47683" lon="6.76099">
        <ele>308.4</ele>
        <time>2022-06-21T08:46:30Z</time>
      </trkpt>
      <trkpt lat="47.47687" lon="6.76104">
        <ele>308.2</ele>
        <time>2022-06-21T08:46:31Z</time>
      </trkpt>
      <trkpt lat="47.47714" lon="6.76147">
        <ele>308.4</ele>
        <time>2022-06-21T08:46:39Z</time>
      </trkpt>
      <trkpt lat="47.47755" lon="6.7621">
        <ele>308</ele>
        <time>2022-06-21T08:46:51Z</time>
      </trkpt>
      <trkpt lat="47.47786" lon="6.76255">
        <ele>308.4</ele>
        <time>2022-06-21T08:46:59Z</time>
      </trkpt>
      <trkpt lat="47.47791" lon="6.76259">
        <ele>308.2</ele>
        <time>2022-06-21T08:47:00Z</time>
      </trkpt>
      <trkpt lat="47.47824" lon="6.76276">
        <ele>308</ele>
        <time>2022-06-21T08:47:06Z</time>
      </trkpt>
      <trkpt lat="47.4783" lon="6.7628">
        <ele>308</ele>
        <time>2022-06-21T08:47:07Z</time>
      </trkpt>
      <trkpt lat="47.47835" lon="6.76284">
        <ele>308</ele>
        <time>2022-06-21T08:47:08Z</time>
      </trkpt>
      <trkpt lat="47.4784" lon="6.7629">
        <ele>308</ele>
        <time>2022-06-21T08:47:09Z</time>
      </trkpt>
      <trkpt lat="47.47845" lon="6.76296">
        <ele>308.2</ele>
        <time>2022-06-21T08:47:10Z</time>
      </trkpt>
      <trkpt lat="47.47849" lon="6.76302">
        <ele>308.2</ele>
        <time>2022-06-21T08:47:11Z</time>
      </trkpt>
      <trkpt lat="47.47887" lon="6.76372">
        <ele>307.4</ele>
        <time>2022-06-21T08:47:21Z</time>
      </trkpt>
      <trkpt lat="47.47917" lon="6.76445">
        <ele>307.8</ele>
        <time>2022-06-21T08:47:31Z</time>
      </trkpt>
      <trkpt lat="47.47936" lon="6.76525">
        <ele>307.2</ele>
        <time>2022-06-21T08:47:43Z</time>
      </trkpt>
      <trkpt lat="47.47958" lon="6.76602">
        <ele>308</ele>
        <time>2022-06-21T08:47:56Z</time>
      </trkpt>
      <trkpt lat="47.47968" lon="6.76617">
        <ele>306.8</ele>
        <time>2022-06-21T08:48:00Z</time>
      </trkpt>
      <trkpt lat="47.47969" lon="6.76621">
        <ele>306.6</ele>
        <time>2022-06-21T08:48:01Z</time>
      </trkpt>
      <trkpt lat="47.4797" lon="6.76626">
        <ele>306.6</ele>
        <time>2022-06-21T08:48:02Z</time>
      </trkpt>
      <trkpt lat="47.4797" lon="6.76629">
        <ele>306.4</ele>
        <time>2022-06-21T08:48:03Z</time>
      </trkpt>
      <trkpt lat="47.47971" lon="6.76633">
        <ele>306.4</ele>
        <time>2022-06-21T08:48:04Z</time>
      </trkpt>
      <trkpt lat="47.47972" lon="6.76636">
        <ele>306.6</ele>
        <time>2022-06-21T08:48:05Z</time>
      </trkpt>
      <trkpt lat="47.47979" lon="6.76679">
        <ele>307.2</ele>
        <time>2022-06-21T08:48:20Z</time>
      </trkpt>
      <trkpt lat="47.4798" lon="6.76677">
        <ele>307.2</ele>
        <time>2022-06-21T08:48:28Z</time>
      </trkpt>
      <trkpt lat="47.47977" lon="6.76669">
        <ele>307</ele>
        <time>2022-06-21T08:48:34Z</time>
      </trkpt>
      <trkpt lat="47.47977" lon="6.76667">
        <ele>307</ele>
        <time>2022-06-21T08:48:35Z</time>
      </trkpt>
      <trkpt lat="47.47975" lon="6.76661">
        <ele>306.8</ele>
        <time>2022-06-21T08:48:38Z</time>
      </trkpt>
      <trkpt lat="47.47974" lon="6.76658">
        <ele>306.8</ele>
        <time>2022-06-21T08:48:39Z</time>
      </trkpt>
      <trkpt lat="47.47965" lon="6.76627">
        <ele>308.2</ele>
        <time>2022-06-21T08:48:52Z</time>
      </trkpt>
      <trkpt lat="47.47967" lon="6.76624">
        <ele>308.4</ele>
        <time>2022-06-21T08:48:53Z</time>
      </trkpt>
      <trkpt lat="47.47968" lon="6.76622">
        <ele>308.4</ele>
        <time>2022-06-21T08:48:54Z</time>
      </trkpt>
      <trkpt lat="47.48021" lon="6.76592">
        <ele>308.6</ele>
        <time>2022-06-21T08:49:12Z</time>
      </trkpt>
      <trkpt lat="47.48028" lon="6.76586">
        <ele>308.6</ele>
        <time>2022-06-21T08:49:14Z</time>
      </trkpt>
      <trkpt lat="47.48077" lon="6.76539">
        <ele>308</ele>
        <time>2022-06-21T08:49:28Z</time>
      </trkpt>
      <trkpt lat="47.48108" lon="6.76513">
        <ele>307.2</ele>
        <time>2022-06-21T08:49:37Z</time>
      </trkpt>
      <trkpt lat="47.4811" lon="6.76515">
        <ele>307.2</ele>
        <time>2022-06-21T08:49:38Z</time>
      </trkpt>
      <trkpt lat="47.48112" lon="6.76518">
        <ele>307.2</ele>
        <time>2022-06-21T08:49:39Z</time>
      </trkpt>
      <trkpt lat="47.48114" lon="6.76522">
        <ele>307</ele>
        <time>2022-06-21T08:49:40Z</time>
      </trkpt>
      <trkpt lat="47.48116" lon="6.76526">
        <ele>307</ele>
        <time>2022-06-21T08:49:41Z</time>
      </trkpt>
      <trkpt lat="47.48121" lon="6.76553">
        <ele>306.2</ele>
        <time>2022-06-21T08:49:48Z</time>
      </trkpt>
      <trkpt lat="47.48119" lon="6.76557">
        <ele>306</ele>
        <time>2022-06-21T08:49:49Z</time>
      </trkpt>
      <trkpt lat="47.48117" lon="6.76562">
        <ele>306</ele>
        <time>2022-06-21T08:49:50Z</time>
      </trkpt>
      <trkpt lat="47.48101" lon="6.76592">
        <ele>305.6</ele>
        <time>2022-06-21T08:49:55Z</time>
      </trkpt>
      <trkpt lat="47.48099" lon="6.76599">
        <ele>305.8</ele>
        <time>2022-06-21T08:49:56Z</time>
      </trkpt>
      <trkpt lat="47.48098" lon="6.76607">
        <ele>305.8</ele>
        <time>2022-06-21T08:49:57Z</time>
      </trkpt>
      <trkpt lat="47.48098" lon="6.76615">
        <ele>305.6</ele>
        <time>2022-06-21T08:49:58Z</time>
      </trkpt>
      <trkpt lat="47.48099" lon="6.76623">
        <ele>305.8</ele>
        <time>2022-06-21T08:49:59Z</time>
      </trkpt>
      <trkpt lat="47.481" lon="6.7663">
        <ele>305.8</ele>
        <time>2022-06-21T08:50:00Z</time>
      </trkpt>
      <trkpt lat="47.48102" lon="6.76636">
        <ele>305.8</ele>
        <time>2022-06-21T08:50:01Z</time>
      </trkpt>
      <trkpt lat="47.48104" lon="6.76641">
        <ele>305.8</ele>
        <time>2022-06-21T08:50:02Z</time>
      </trkpt>
      <trkpt lat="47.48106" lon="6.76646">
        <ele>306</ele>
        <time>2022-06-21T08:50:03Z</time>
      </trkpt>
      <trkpt lat="47.48109" lon="6.7665">
        <ele>306</ele>
        <time>2022-06-21T08:50:04Z</time>
      </trkpt>
      <trkpt lat="47.48111" lon="6.76654">
        <ele>305.8</ele>
        <time>2022-06-21T08:50:05Z</time>
      </trkpt>
      <trkpt lat="47.48113" lon="6.76657">
        <ele>305.6</ele>
        <time>2022-06-21T08:50:06Z</time>
      </trkpt>
      <trkpt lat="47.48152" lon="6.76725">
        <ele>305</ele>
        <time>2022-06-21T08:50:18Z</time>
      </trkpt>
      <trkpt lat="47.48198" lon="6.76784">
        <ele>304.4</ele>
        <time>2022-06-21T08:50:29Z</time>
      </trkpt>
      <trkpt lat="47.48243" lon="6.76807">
        <ele>305</ele>
        <time>2022-06-21T08:50:38Z</time>
      </trkpt>
      <trkpt lat="47.48248" lon="6.76811">
        <ele>305</ele>
        <time>2022-06-21T08:50:39Z</time>
      </trkpt>
      <trkpt lat="47.48252" lon="6.76815">
        <ele>305</ele>
        <time>2022-06-21T08:50:40Z</time>
      </trkpt>
      <trkpt lat="47.48296" lon="6.76875">
        <ele>304.8</ele>
        <time>2022-06-21T08:50:51Z</time>
      </trkpt>
      <trkpt lat="47.48351" lon="6.7692">
        <ele>304.2</ele>
        <time>2022-06-21T08:51:02Z</time>
      </trkpt>
      <trkpt lat="47.48409" lon="6.76954">
        <ele>303.2</ele>
        <time>2022-06-21T08:51:13Z</time>
      </trkpt>
      <trkpt lat="47.48414" lon="6.76957">
        <ele>303</ele>
        <time>2022-06-21T08:51:14Z</time>
      </trkpt>
      <trkpt lat="47.48456" lon="6.76977">
        <ele>302.8</ele>
        <time>2022-06-21T08:51:22Z</time>
      </trkpt>
      <trkpt lat="47.48514" lon="6.77015">
        <ele>302.6</ele>
        <time>2022-06-21T08:51:33Z</time>
      </trkpt>
      <trkpt lat="47.48566" lon="6.77052">
        <ele>305</ele>
        <time>2022-06-21T08:51:44Z</time>
      </trkpt>
      <trkpt lat="47.48578" lon="6.77057">
        <ele>306</ele>
        <time>2022-06-21T08:51:47Z</time>
      </trkpt>
      <trkpt lat="47.48627" lon="6.77085">
        <ele>306</ele>
        <time>2022-06-21T08:52:02Z</time>
      </trkpt>
      <trkpt lat="47.48673" lon="6.77134">
        <ele>305.4</ele>
        <time>2022-06-21T08:52:16Z</time>
      </trkpt>
      <trkpt lat="47.48725" lon="6.77183">
        <ele>305.2</ele>
        <time>2022-06-21T08:52:27Z</time>
      </trkpt>
      <trkpt lat="47.4878" lon="6.77225">
        <ele>305.6</ele>
        <time>2022-06-21T08:52:37Z</time>
      </trkpt>
      <trkpt lat="47.48836" lon="6.77266">
        <ele>305.4</ele>
        <time>2022-06-21T08:52:47Z</time>
      </trkpt>
      <trkpt lat="47.48894" lon="6.77295">
        <ele>305.4</ele>
        <time>2022-06-21T08:52:58Z</time>
      </trkpt>
      <trkpt lat="47.48953" lon="6.77318">
        <ele>305.8</ele>
        <time>2022-06-21T08:53:09Z</time>
      </trkpt>
      <trkpt lat="47.49011" lon="6.77325">
        <ele>305.6</ele>
        <time>2022-06-21T08:53:19Z</time>
      </trkpt>
      <trkpt lat="47.49073" lon="6.77329">
        <ele>305</ele>
        <time>2022-06-21T08:53:30Z</time>
      </trkpt>
      <trkpt lat="47.4913" lon="6.77332">
        <ele>305.4</ele>
        <time>2022-06-21T08:53:41Z</time>
      </trkpt>
      <trkpt lat="47.4919" lon="6.77338">
        <ele>305.4</ele>
        <time>2022-06-21T08:53:52Z</time>
      </trkpt>
      <trkpt lat="47.49251" lon="6.77339">
        <ele>305</ele>
        <time>2022-06-21T08:54:03Z</time>
      </trkpt>
      <trkpt lat="47.49256" lon="6.77336">
        <ele>305</ele>
        <time>2022-06-21T08:54:04Z</time>
      </trkpt>
      <trkpt lat="47.49266" lon="6.7733">
        <ele>305</ele>
        <time>2022-06-21T08:54:06Z</time>
      </trkpt>
      <trkpt lat="47.49272" lon="6.77329">
        <ele>304.8</ele>
        <time>2022-06-21T08:54:07Z</time>
      </trkpt>
      <trkpt lat="47.49278" lon="6.77329">
        <ele>304.6</ele>
        <time>2022-06-21T08:54:08Z</time>
      </trkpt>
      <trkpt lat="47.49326" lon="6.77334">
        <ele>303.2</ele>
        <time>2022-06-21T08:54:16Z</time>
      </trkpt>
      <trkpt lat="47.49331" lon="6.77336">
        <ele>303.4</ele>
        <time>2022-06-21T08:54:17Z</time>
      </trkpt>
      <trkpt lat="47.49335" lon="6.77339">
        <ele>303.8</ele>
        <time>2022-06-21T08:54:18Z</time>
      </trkpt>
      <trkpt lat="47.49359" lon="6.77351">
        <ele>304.6</ele>
        <time>2022-06-21T08:54:24Z</time>
      </trkpt>
      <trkpt lat="47.49363" lon="6.77351">
        <ele>304.8</ele>
        <time>2022-06-21T08:54:25Z</time>
      </trkpt>
      <trkpt lat="47.49418" lon="6.77355">
        <ele>303</ele>
        <time>2022-06-21T08:54:36Z</time>
      </trkpt>
      <trkpt lat="47.4948" lon="6.77359">
        <ele>302.8</ele>
        <time>2022-06-21T08:54:47Z</time>
      </trkpt>
      <trkpt lat="47.49541" lon="6.77364">
        <ele>302.6</ele>
        <time>2022-06-21T08:54:58Z</time>
      </trkpt>
      <trkpt lat="47.49599" lon="6.77363">
        <ele>303.6</ele>
        <time>2022-06-21T08:55:08Z</time>
      </trkpt>
      <trkpt lat="47.49658" lon="6.77351">
        <ele>304.6</ele>
        <time>2022-06-21T08:55:18Z</time>
      </trkpt>
      <trkpt lat="47.49713" lon="6.77334">
        <ele>304.2</ele>
        <time>2022-06-21T08:55:29Z</time>
      </trkpt>
      <trkpt lat="47.49722" lon="6.77335">
        <ele>303.8</ele>
        <time>2022-06-21T08:55:34Z</time>
      </trkpt>
      <trkpt lat="47.49724" lon="6.77334">
        <ele>303.8</ele>
        <time>2022-06-21T08:55:35Z</time>
      </trkpt>
      <trkpt lat="47.4978" lon="6.77311">
        <ele>304</ele>
        <time>2022-06-21T08:55:51Z</time>
      </trkpt>
      <trkpt lat="47.4984" lon="6.77306">
        <ele>303.8</ele>
        <time>2022-06-21T08:56:03Z</time>
      </trkpt>
      <trkpt lat="47.49898" lon="6.77297">
        <ele>304.6</ele>
        <time>2022-06-21T08:56:14Z</time>
      </trkpt>
      <trkpt lat="47.49951" lon="6.77264">
        <ele>304.6</ele>
        <time>2022-06-21T08:56:26Z</time>
      </trkpt>
      <trkpt lat="47.50007" lon="6.77235">
        <ele>305</ele>
        <time>2022-06-21T08:56:40Z</time>
      </trkpt>
      <trkpt lat="47.50012" lon="6.77234">
        <ele>305.2</ele>
        <time>2022-06-21T08:56:42Z</time>
      </trkpt>
      <trkpt lat="47.50015" lon="6.77236">
        <ele>305.2</ele>
        <time>2022-06-21T08:56:43Z</time>
      </trkpt>
      <trkpt lat="47.50017" lon="6.77238">
        <ele>305.4</ele>
        <time>2022-06-21T08:56:44Z</time>
      </trkpt>
      <trkpt lat="47.50018" lon="6.77241">
        <ele>305.4</ele>
        <time>2022-06-21T08:56:45Z</time>
      </trkpt>
      <trkpt lat="47.5002" lon="6.77245">
        <ele>305.6</ele>
        <time>2022-06-21T08:56:46Z</time>
      </trkpt>
      <trkpt lat="47.5002" lon="6.77249">
        <ele>305.6</ele>
        <time>2022-06-21T08:56:47Z</time>
      </trkpt>
      <trkpt lat="47.50042" lon="6.77331">
        <ele>305.8</ele>
        <time>2022-06-21T08:57:04Z</time>
      </trkpt>
      <trkpt lat="47.50047" lon="6.77346">
        <ele>305.6</ele>
        <time>2022-06-21T08:57:07Z</time>
      </trkpt>
      <trkpt lat="47.5005" lon="6.77352">
        <ele>305.6</ele>
        <time>2022-06-21T08:57:08Z</time>
      </trkpt>
      <trkpt lat="47.50053" lon="6.77356">
        <ele>305.4</ele>
        <time>2022-06-21T08:57:09Z</time>
      </trkpt>
      <trkpt lat="47.50067" lon="6.77379">
        <ele>304.8</ele>
        <time>2022-06-21T08:57:13Z</time>
      </trkpt>
      <trkpt lat="47.5007" lon="6.77385">
        <ele>304.6</ele>
        <time>2022-06-21T08:57:14Z</time>
      </trkpt>
      <trkpt lat="47.50074" lon="6.77388">
        <ele>304.2</ele>
        <time>2022-06-21T08:57:15Z</time>
      </trkpt>
      <trkpt lat="47.50079" lon="6.77389">
        <ele>304</ele>
        <time>2022-06-21T08:57:16Z</time>
      </trkpt>
      <trkpt lat="47.50083" lon="6.77387">
        <ele>303.8</ele>
        <time>2022-06-21T08:57:17Z</time>
      </trkpt>
      <trkpt lat="47.50088" lon="6.77386">
        <ele>303.6</ele>
        <time>2022-06-21T08:57:18Z</time>
      </trkpt>
      <trkpt lat="47.50145" lon="6.77374">
        <ele>302.6</ele>
        <time>2022-06-21T08:57:39Z</time>
      </trkpt>
      <trkpt lat="47.5015" lon="6.77375">
        <ele>302.4</ele>
        <time>2022-06-21T08:57:40Z</time>
      </trkpt>
      <trkpt lat="47.50155" lon="6.77377">
        <ele>302.2</ele>
        <time>2022-06-21T08:57:41Z</time>
      </trkpt>
      <trkpt lat="47.5016" lon="6.7738">
        <ele>302.2</ele>
        <time>2022-06-21T08:57:42Z</time>
      </trkpt>
      <trkpt lat="47.50165" lon="6.77383">
        <ele>302.2</ele>
        <time>2022-06-21T08:57:43Z</time>
      </trkpt>
      <trkpt lat="47.50174" lon="6.77389">
        <ele>302.2</ele>
        <time>2022-06-21T08:57:45Z</time>
      </trkpt>
      <trkpt lat="47.50179" lon="6.77392">
        <ele>302.2</ele>
        <time>2022-06-21T08:57:46Z</time>
      </trkpt>
      <trkpt lat="47.50235" lon="6.77429">
        <ele>302</ele>
        <time>2022-06-21T08:57:57Z</time>
      </trkpt>
      <trkpt lat="47.50239" lon="6.77435">
        <ele>301.8</ele>
        <time>2022-06-21T08:57:58Z</time>
      </trkpt>
      <trkpt lat="47.50246" lon="6.77448">
        <ele>301.8</ele>
        <time>2022-06-21T08:58:00Z</time>
      </trkpt>
      <trkpt lat="47.5025" lon="6.77454">
        <ele>301.6</ele>
        <time>2022-06-21T08:58:01Z</time>
      </trkpt>
      <trkpt lat="47.50305" lon="6.77502">
        <ele>301.8</ele>
        <time>2022-06-21T08:58:12Z</time>
      </trkpt>
      <trkpt lat="47.50355" lon="6.77547">
        <ele>303.4</ele>
        <time>2022-06-21T08:58:25Z</time>
      </trkpt>
      <trkpt lat="47.50374" lon="6.77557">
        <ele>303.4</ele>
        <time>2022-06-21T08:58:30Z</time>
      </trkpt>
      <trkpt lat="47.50379" lon="6.77559">
        <ele>303.4</ele>
        <time>2022-06-21T08:58:31Z</time>
      </trkpt>
      <trkpt lat="47.50383" lon="6.77561">
        <ele>303.6</ele>
        <time>2022-06-21T08:58:32Z</time>
      </trkpt>
      <trkpt lat="47.50387" lon="6.77565">
        <ele>303.6</ele>
        <time>2022-06-21T08:58:33Z</time>
      </trkpt>
      <trkpt lat="47.5039" lon="6.77569">
        <ele>303.6</ele>
        <time>2022-06-21T08:58:34Z</time>
      </trkpt>
      <trkpt lat="47.50394" lon="6.77573">
        <ele>303.4</ele>
        <time>2022-06-21T08:58:35Z</time>
      </trkpt>
      <trkpt lat="47.50398" lon="6.77578">
        <ele>303.2</ele>
        <time>2022-06-21T08:58:36Z</time>
      </trkpt>
      <trkpt lat="47.50441" lon="6.77639">
        <ele>303</ele>
        <time>2022-06-21T08:58:47Z</time>
      </trkpt>
      <trkpt lat="47.50447" lon="6.7765">
        <ele>303</ele>
        <time>2022-06-21T08:58:49Z</time>
      </trkpt>
      <trkpt lat="47.50463" lon="6.7768">
        <ele>302.8</ele>
        <time>2022-06-21T08:58:54Z</time>
      </trkpt>
      <trkpt lat="47.50466" lon="6.77686">
        <ele>302.8</ele>
        <time>2022-06-21T08:58:55Z</time>
      </trkpt>
      <trkpt lat="47.50475" lon="6.77706">
        <ele>302.8</ele>
        <time>2022-06-21T08:58:58Z</time>
      </trkpt>
      <trkpt lat="47.50506" lon="6.77783">
        <ele>302.2</ele>
        <time>2022-06-21T08:59:09Z</time>
      </trkpt>
      <trkpt lat="47.50525" lon="6.77862">
        <ele>301.8</ele>
        <time>2022-06-21T08:59:20Z</time>
      </trkpt>
      <trkpt lat="47.50542" lon="6.77951">
        <ele>301.6</ele>
        <time>2022-06-21T08:59:32Z</time>
      </trkpt>
      <trkpt lat="47.50549" lon="6.78007">
        <ele>301.6</ele>
        <time>2022-06-21T08:59:39Z</time>
      </trkpt>
      <trkpt lat="47.50547" lon="6.78098">
        <ele>301</ele>
        <time>2022-06-21T08:59:50Z</time>
      </trkpt>
      <trkpt lat="47.5053" lon="6.78189">
        <ele>300.8</ele>
        <time>2022-06-21T09:00:01Z</time>
      </trkpt>
      <trkpt lat="47.50513" lon="6.78278">
        <ele>300.6</ele>
        <time>2022-06-21T09:00:12Z</time>
      </trkpt>
      <trkpt lat="47.50499" lon="6.7836">
        <ele>301.4</ele>
        <time>2022-06-21T09:00:23Z</time>
      </trkpt>
      <trkpt lat="47.50482" lon="6.78442">
        <ele>302.2</ele>
        <time>2022-06-21T09:00:34Z</time>
      </trkpt>
      <trkpt lat="47.50473" lon="6.78489">
        <ele>302.4</ele>
        <time>2022-06-21T09:00:41Z</time>
      </trkpt>
      <trkpt lat="47.50456" lon="6.7857">
        <ele>302.2</ele>
        <time>2022-06-21T09:00:52Z</time>
      </trkpt>
      <trkpt lat="47.50438" lon="6.78654">
        <ele>301.8</ele>
        <time>2022-06-21T09:01:03Z</time>
      </trkpt>
      <trkpt lat="47.50421" lon="6.78743">
        <ele>301.8</ele>
        <time>2022-06-21T09:01:14Z</time>
      </trkpt>
      <trkpt lat="47.5041" lon="6.78832">
        <ele>303.6</ele>
        <time>2022-06-21T09:01:25Z</time>
      </trkpt>
      <trkpt lat="47.50408" lon="6.78855">
        <ele>303.6</ele>
        <time>2022-06-21T09:01:28Z</time>
      </trkpt>
      <trkpt lat="47.50408" lon="6.78948">
        <ele>303.6</ele>
        <time>2022-06-21T09:01:39Z</time>
      </trkpt>
      <trkpt lat="47.50412" lon="6.79033">
        <ele>303.6</ele>
        <time>2022-06-21T09:01:50Z</time>
      </trkpt>
      <trkpt lat="47.50423" lon="6.79114">
        <ele>303.8</ele>
        <time>2022-06-21T09:02:01Z</time>
      </trkpt>
      <trkpt lat="47.50448" lon="6.79168">
        <ele>304</ele>
        <time>2022-06-21T09:02:13Z</time>
      </trkpt>
      <trkpt lat="47.50449" lon="6.79174">
        <ele>304</ele>
        <time>2022-06-21T09:02:14Z</time>
      </trkpt>
      <trkpt lat="47.50461" lon="6.79239">
        <ele>302.8</ele>
        <time>2022-06-21T09:02:24Z</time>
      </trkpt>
      <trkpt lat="47.50462" lon="6.79245">
        <ele>303.2</ele>
        <time>2022-06-21T09:02:25Z</time>
      </trkpt>
      <trkpt lat="47.50475" lon="6.79314">
        <ele>304.4</ele>
        <time>2022-06-21T09:02:36Z</time>
      </trkpt>
      <trkpt lat="47.50481" lon="6.7936">
        <ele>304</ele>
        <time>2022-06-21T09:02:47Z</time>
      </trkpt>
      <trkpt lat="47.50481" lon="6.79361">
        <ele>303.6</ele>
        <time>2022-06-21T09:02:52Z</time>
      </trkpt>
      <trkpt lat="47.50486" lon="6.79368">
        <ele>303.2</ele>
        <time>2022-06-21T09:04:36Z</time>
      </trkpt>
      <trkpt lat="47.50487" lon="6.79372">
        <ele>303.2</ele>
        <time>2022-06-21T09:04:37Z</time>
      </trkpt>
      <trkpt lat="47.50488" lon="6.79376">
        <ele>303.2</ele>
        <time>2022-06-21T09:04:38Z</time>
      </trkpt>
      <trkpt lat="47.50484" lon="6.79463">
        <ele>303.4</ele>
        <time>2022-06-21T09:04:54Z</time>
      </trkpt>
      <trkpt lat="47.50485" lon="6.79513">
        <ele>303.6</ele>
        <time>2022-06-21T09:05:02Z</time>
      </trkpt>
      <trkpt lat="47.50486" lon="6.7952">
        <ele>303.6</ele>
        <time>2022-06-21T09:05:03Z</time>
      </trkpt>
      <trkpt lat="47.505" lon="6.79604">
        <ele>303.2</ele>
        <time>2022-06-21T09:05:15Z</time>
      </trkpt>
      <trkpt lat="47.50512" lon="6.79694">
        <ele>303.2</ele>
        <time>2022-06-21T09:05:27Z</time>
      </trkpt>
      <trkpt lat="47.50519" lon="6.79779">
        <ele>303</ele>
        <time>2022-06-21T09:05:38Z</time>
      </trkpt>
      <trkpt lat="47.50521" lon="6.79846">
        <ele>303.6</ele>
        <time>2022-06-21T09:05:48Z</time>
      </trkpt>
      <trkpt lat="47.5052" lon="6.79852">
        <ele>303.6</ele>
        <time>2022-06-21T09:05:49Z</time>
      </trkpt>
      <trkpt lat="47.50519" lon="6.79858">
        <ele>303.8</ele>
        <time>2022-06-21T09:05:50Z</time>
      </trkpt>
      <trkpt lat="47.50518" lon="6.79923">
        <ele>304.2</ele>
        <time>2022-06-21T09:06:00Z</time>
      </trkpt>
      <trkpt lat="47.50514" lon="6.80014">
        <ele>304.4</ele>
        <time>2022-06-21T09:06:12Z</time>
      </trkpt>
      <trkpt lat="47.5051" lon="6.80103">
        <ele>304.4</ele>
        <time>2022-06-21T09:06:23Z</time>
      </trkpt>
      <trkpt lat="47.50508" lon="6.80194">
        <ele>304.6</ele>
        <time>2022-06-21T09:06:34Z</time>
      </trkpt>
      <trkpt lat="47.50504" lon="6.80281">
        <ele>304.4</ele>
        <time>2022-06-21T09:06:45Z</time>
      </trkpt>
      <trkpt lat="47.50502" lon="6.80331">
        <ele>304</ele>
        <time>2022-06-21T09:06:51Z</time>
      </trkpt>
      <trkpt lat="47.50503" lon="6.8034">
        <ele>304.2</ele>
        <time>2022-06-21T09:06:52Z</time>
      </trkpt>
      <trkpt lat="47.50504" lon="6.80409">
        <ele>303.6</ele>
        <time>2022-06-21T09:07:01Z</time>
      </trkpt>
      <trkpt lat="47.50505" lon="6.80415">
        <ele>303.6</ele>
        <time>2022-06-21T09:07:02Z</time>
      </trkpt>
      <trkpt lat="47.50507" lon="6.8042">
        <ele>303.8</ele>
        <time>2022-06-21T09:07:03Z</time>
      </trkpt>
      <trkpt lat="47.5051" lon="6.80425">
        <ele>304</ele>
        <time>2022-06-21T09:07:04Z</time>
      </trkpt>
      <trkpt lat="47.50513" lon="6.80428">
        <ele>304.2</ele>
        <time>2022-06-21T09:07:05Z</time>
      </trkpt>
      <trkpt lat="47.50524" lon="6.80446">
        <ele>304.8</ele>
        <time>2022-06-21T09:07:11Z</time>
      </trkpt>
      <trkpt lat="47.50526" lon="6.80447">
        <ele>305</ele>
        <time>2022-06-21T09:07:12Z</time>
      </trkpt>
      <trkpt lat="47.50528" lon="6.80447">
        <ele>305</ele>
        <time>2022-06-21T09:07:13Z</time>
      </trkpt>
      <trkpt lat="47.5053" lon="6.80445">
        <ele>305.2</ele>
        <time>2022-06-21T09:07:14Z</time>
      </trkpt>
      <trkpt lat="47.50531" lon="6.80442">
        <ele>305.4</ele>
        <time>2022-06-21T09:07:15Z</time>
      </trkpt>
      <trkpt lat="47.50532" lon="6.80438">
        <ele>305.6</ele>
        <time>2022-06-21T09:07:16Z</time>
      </trkpt>
      <trkpt lat="47.50532" lon="6.80435">
        <ele>305.6</ele>
        <time>2022-06-21T09:07:17Z</time>
      </trkpt>
      <trkpt lat="47.50532" lon="6.80431">
        <ele>305.8</ele>
        <time>2022-06-21T09:07:18Z</time>
      </trkpt>
      <trkpt lat="47.50531" lon="6.80427">
        <ele>306</ele>
        <time>2022-06-21T09:07:19Z</time>
      </trkpt>
      <trkpt lat="47.50535" lon="6.80412">
        <ele>306.6</ele>
        <time>2022-06-21T09:07:24Z</time>
      </trkpt>
      <trkpt lat="47.50537" lon="6.80413">
        <ele>306.8</ele>
        <time>2022-06-21T09:07:25Z</time>
      </trkpt>
      <trkpt lat="47.50539" lon="6.80415">
        <ele>306.8</ele>
        <time>2022-06-21T09:07:26Z</time>
      </trkpt>
      <trkpt lat="47.5054" lon="6.80418">
        <ele>307</ele>
        <time>2022-06-21T09:07:27Z</time>
      </trkpt>
      <trkpt lat="47.50541" lon="6.80421">
        <ele>307.2</ele>
        <time>2022-06-21T09:07:28Z</time>
      </trkpt>
      <trkpt lat="47.50541" lon="6.80424">
        <ele>307.2</ele>
        <time>2022-06-21T09:07:29Z</time>
      </trkpt>
      <trkpt lat="47.50541" lon="6.80428">
        <ele>307.4</ele>
        <time>2022-06-21T09:07:30Z</time>
      </trkpt>
      <trkpt lat="47.50541" lon="6.80431">
        <ele>307.6</ele>
        <time>2022-06-21T09:07:31Z</time>
      </trkpt>
      <trkpt lat="47.50539" lon="6.80461">
        <ele>309.4</ele>
        <time>2022-06-21T09:07:50Z</time>
      </trkpt>
      <trkpt lat="47.50528" lon="6.8046">
        <ele>311.8</ele>
        <time>2022-06-21T09:08:59Z</time>
      </trkpt>
      <trkpt lat="47.50526" lon="6.80459">
        <ele>311.8</ele>
        <time>2022-06-21T09:09:00Z</time>
      </trkpt>
      <trkpt lat="47.50524" lon="6.80458">
        <ele>311.8</ele>
        <time>2022-06-21T09:09:01Z</time>
      </trkpt>
      <trkpt lat="47.50465" lon="6.8046">
        <ele>314</ele>
        <time>2022-06-21T09:09:24Z</time>
      </trkpt>
      <trkpt lat="47.50448" lon="6.80459">
        <ele>314.2</ele>
        <time>2022-06-21T09:09:39Z</time>
      </trkpt>
      <trkpt lat="47.50449" lon="6.80461">
        <ele>317.8</ele>
        <time>2022-06-21T09:13:09Z</time>
      </trkpt>
      <trkpt lat="47.50448" lon="6.80459">
        <ele>317.8</ele>
        <time>2022-06-21T09:13:10Z</time>
      </trkpt>
      <trkpt lat="47.50447" lon="6.80458">
        <ele>317.8</ele>
        <time>2022-06-21T09:13:11Z</time>
      </trkpt>
      <trkpt lat="47.50446" lon="6.80457">
        <ele>317.8</ele>
        <time>2022-06-21T09:13:12Z</time>
      </trkpt>
      <trkpt lat="47.5044" lon="6.80429">
        <ele>317</ele>
        <time>2022-06-21T09:13:22Z</time>
      </trkpt>
      <trkpt lat="47.50442" lon="6.80427">
        <ele>316.8</ele>
        <time>2022-06-21T09:13:23Z</time>
      </trkpt>
      <trkpt lat="47.50445" lon="6.80425">
        <ele>316.8</ele>
        <time>2022-06-21T09:13:24Z</time>
      </trkpt>
      <trkpt lat="47.50448" lon="6.80425">
        <ele>316.6</ele>
        <time>2022-06-21T09:13:25Z</time>
      </trkpt>
      <trkpt lat="47.50451" lon="6.80425">
        <ele>316.6</ele>
        <time>2022-06-21T09:13:26Z</time>
      </trkpt>
      <trkpt lat="47.50453" lon="6.80427">
        <ele>316.4</ele>
        <time>2022-06-21T09:13:27Z</time>
      </trkpt>
      <trkpt lat="47.50466" lon="6.80441">
        <ele>315.6</ele>
        <time>2022-06-21T09:13:35Z</time>
      </trkpt>
      <trkpt lat="47.50467" lon="6.80441">
        <ele>315.6</ele>
        <time>2022-06-21T09:13:36Z</time>
      </trkpt>
      <trkpt lat="47.50468" lon="6.80439">
        <ele>315.6</ele>
        <time>2022-06-21T09:13:37Z</time>
      </trkpt>
      <trkpt lat="47.50469" lon="6.80438">
        <ele>315.4</ele>
        <time>2022-06-21T09:13:38Z</time>
      </trkpt>
      <trkpt lat="47.5047" lon="6.80436">
        <ele>315.4</ele>
        <time>2022-06-21T09:13:39Z</time>
      </trkpt>
      <trkpt lat="47.50471" lon="6.80434">
        <ele>315.4</ele>
        <time>2022-06-21T09:13:40Z</time>
      </trkpt>
      <trkpt lat="47.50469" lon="6.80435">
        <ele>315</ele>
        <time>2022-06-21T09:13:50Z</time>
      </trkpt>
      <trkpt lat="47.50469" lon="6.80437">
        <ele>315</ele>
        <time>2022-06-21T09:13:51Z</time>
      </trkpt>
      <trkpt lat="47.50471" lon="6.80521">
        <ele>314.8</ele>
        <time>2022-06-21T09:14:13Z</time>
      </trkpt>
      <trkpt lat="47.50465" lon="6.8061">
        <ele>314.6</ele>
        <time>2022-06-21T09:14:31Z</time>
      </trkpt>
      <trkpt lat="47.50462" lon="6.80682">
        <ele>315.2</ele>
        <time>2022-06-21T09:14:43Z</time>
      </trkpt>
      <trkpt lat="47.5046" lon="6.80729">
        <ele>315</ele>
        <time>2022-06-21T09:14:50Z</time>
      </trkpt>
      <trkpt lat="47.50459" lon="6.80743">
        <ele>315.2</ele>
        <time>2022-06-21T09:14:52Z</time>
      </trkpt>
      <trkpt lat="47.50448" lon="6.80828">
        <ele>315.6</ele>
        <time>2022-06-21T09:15:06Z</time>
      </trkpt>
      <trkpt lat="47.50452" lon="6.80859">
        <ele>315.2</ele>
        <time>2022-06-21T09:15:11Z</time>
      </trkpt>
      <trkpt lat="47.50452" lon="6.80866">
        <ele>315</ele>
        <time>2022-06-21T09:15:12Z</time>
      </trkpt>
      <trkpt lat="47.50448" lon="6.80956">
        <ele>314.6</ele>
        <time>2022-06-21T09:15:24Z</time>
      </trkpt>
      <trkpt lat="47.50444" lon="6.81047">
        <ele>315</ele>
        <time>2022-06-21T09:15:36Z</time>
      </trkpt>
      <trkpt lat="47.50439" lon="6.81133">
        <ele>314.8</ele>
        <time>2022-06-21T09:15:50Z</time>
      </trkpt>
      <trkpt lat="47.50439" lon="6.81153">
        <ele>314.6</ele>
        <time>2022-06-21T09:16:03Z</time>
      </trkpt>
      <trkpt lat="47.50443" lon="6.81151">
        <ele>314.6</ele>
        <time>2022-06-21T09:16:06Z</time>
      </trkpt>
      <trkpt lat="47.50444" lon="6.81151">
        <ele>314.6</ele>
        <time>2022-06-21T09:16:07Z</time>
      </trkpt>
      <trkpt lat="47.50447" lon="6.81149">
        <ele>314.6</ele>
        <time>2022-06-21T09:16:10Z</time>
      </trkpt>
      <trkpt lat="47.50449" lon="6.81148">
        <ele>314.6</ele>
        <time>2022-06-21T09:16:11Z</time>
      </trkpt>
      <trkpt lat="47.50454" lon="6.81144">
        <ele>314.4</ele>
        <time>2022-06-21T09:16:15Z</time>
      </trkpt>
      <trkpt lat="47.50455" lon="6.81144">
        <ele>314.4</ele>
        <time>2022-06-21T09:16:16Z</time>
      </trkpt>
      <trkpt lat="47.50457" lon="6.81143">
        <ele>314.8</ele>
        <time>2022-06-21T09:16:21Z</time>
      </trkpt>
      <trkpt lat="47.50466" lon="6.81138">
        <ele>314.2</ele>
        <time>2022-06-21T09:16:55Z</time>
      </trkpt>
      <trkpt lat="47.50474" lon="6.81132">
        <ele>314.4</ele>
        <time>2022-06-21T09:17:07Z</time>
      </trkpt>
      <trkpt lat="47.50475" lon="6.81131">
        <ele>314.4</ele>
        <time>2022-06-21T09:17:08Z</time>
      </trkpt>
      <trkpt lat="47.50477" lon="6.8113">
        <ele>314.4</ele>
        <time>2022-06-21T09:17:19Z</time>
      </trkpt>
      <trkpt lat="47.50479" lon="6.81131">
        <ele>314</ele>
        <time>2022-06-21T09:17:44Z</time>
      </trkpt>
      <trkpt lat="47.5048" lon="6.8113">
        <ele>314</ele>
        <time>2022-06-21T09:17:45Z</time>
      </trkpt>
      <trkpt lat="47.5048" lon="6.81129">
        <ele>314</ele>
        <time>2022-06-21T09:17:53Z</time>
      </trkpt>
      <trkpt lat="47.50478" lon="6.81128">
        <ele>313.8</ele>
        <time>2022-06-21T09:17:59Z</time>
      </trkpt>
      <trkpt lat="47.5048" lon="6.81127">
        <ele>313.6</ele>
        <time>2022-06-21T09:18:27Z</time>
      </trkpt>
      <trkpt lat="47.50478" lon="6.81128">
        <ele>313.2</ele>
        <time>2022-06-21T09:18:41Z</time>
      </trkpt>
      <trkpt lat="47.50481" lon="6.81127">
        <ele>313.2</ele>
        <time>2022-06-21T09:18:47Z</time>
      </trkpt>
      <trkpt lat="47.50476" lon="6.81133">
        <ele>313</ele>
        <time>2022-06-21T09:18:58Z</time>
      </trkpt>
      <trkpt lat="47.50476" lon="6.81133">
        <ele>312.8</ele>
        <time>2022-06-21T09:19:03Z</time>
      </trkpt>
      <trkpt lat="47.50457" lon="6.81145">
        <ele>311.6</ele>
        <time>2022-06-21T09:20:25Z</time>
      </trkpt>
      <trkpt lat="47.50455" lon="6.81146">
        <ele>311.6</ele>
        <time>2022-06-21T09:20:27Z</time>
      </trkpt>
      <trkpt lat="47.50453" lon="6.81147">
        <ele>311.6</ele>
        <time>2022-06-21T09:20:35Z</time>
      </trkpt>
      <trkpt lat="47.50457" lon="6.81145">
        <ele>311.6</ele>
        <time>2022-06-21T09:20:38Z</time>
      </trkpt>
      <trkpt lat="47.50458" lon="6.81144">
        <ele>311.6</ele>
        <time>2022-06-21T09:20:39Z</time>
      </trkpt>
      <trkpt lat="47.50459" lon="6.81143">
        <ele>311.6</ele>
        <time>2022-06-21T09:20:40Z</time>
      </trkpt>
      <trkpt lat="47.50465" lon="6.8114">
        <ele>311.6</ele>
        <time>2022-06-21T09:20:44Z</time>
      </trkpt>
      <trkpt lat="47.50467" lon="6.8114">
        <ele>311.6</ele>
        <time>2022-06-21T09:20:45Z</time>
      </trkpt>
      <trkpt lat="47.50473" lon="6.81135">
        <ele>311.6</ele>
        <time>2022-06-21T09:20:50Z</time>
      </trkpt>
      <trkpt lat="47.50474" lon="6.81134">
        <ele>311.6</ele>
        <time>2022-06-21T09:20:51Z</time>
      </trkpt>
      <trkpt lat="47.50474" lon="6.81134">
        <ele>311.4</ele>
        <time>2022-06-21T09:20:57Z</time>
      </trkpt>
      <trkpt lat="47.5047" lon="6.81146">
        <ele>311.6</ele>
        <time>2022-06-21T09:21:10Z</time>
      </trkpt>
      <trkpt lat="47.50464" lon="6.81154">
        <ele>311.6</ele>
        <time>2022-06-21T09:21:11Z</time>
      </trkpt>
      <trkpt lat="47.50462" lon="6.81158">
        <ele>311.8</ele>
        <time>2022-06-21T09:21:12Z</time>
      </trkpt>
      <trkpt lat="47.50427" lon="6.81249">
        <ele>313.2</ele>
        <time>2022-06-21T09:21:32Z</time>
      </trkpt>
      <trkpt lat="47.5042" lon="6.81341">
        <ele>312.8</ele>
        <time>2022-06-21T09:21:46Z</time>
      </trkpt>
      <trkpt lat="47.50417" lon="6.81364">
        <ele>313</ele>
        <time>2022-06-21T09:21:49Z</time>
      </trkpt>
      <trkpt lat="47.50412" lon="6.81435">
        <ele>312.8</ele>
        <time>2022-06-21T09:21:58Z</time>
      </trkpt>
      <trkpt lat="47.50412" lon="6.81443">
        <ele>313</ele>
        <time>2022-06-21T09:21:59Z</time>
      </trkpt>
      <trkpt lat="47.50407" lon="6.8153">
        <ele>313.4</ele>
        <time>2022-06-21T09:22:10Z</time>
      </trkpt>
      <trkpt lat="47.50406" lon="6.81538">
        <ele>313.4</ele>
        <time>2022-06-21T09:22:11Z</time>
      </trkpt>
      <trkpt lat="47.50406" lon="6.81546">
        <ele>313.4</ele>
        <time>2022-06-21T09:22:12Z</time>
      </trkpt>
      <trkpt lat="47.50406" lon="6.81578">
        <ele>313.6</ele>
        <time>2022-06-21T09:22:16Z</time>
      </trkpt>
      <trkpt lat="47.50405" lon="6.81586">
        <ele>313.6</ele>
        <time>2022-06-21T09:22:17Z</time>
      </trkpt>
      <trkpt lat="47.50401" lon="6.81672">
        <ele>313</ele>
        <time>2022-06-21T09:22:28Z</time>
      </trkpt>
      <trkpt lat="47.50395" lon="6.8176">
        <ele>313.4</ele>
        <time>2022-06-21T09:22:39Z</time>
      </trkpt>
      <trkpt lat="47.50393" lon="6.81783">
        <ele>313.4</ele>
        <time>2022-06-21T09:22:42Z</time>
      </trkpt>
      <trkpt lat="47.50391" lon="6.8179">
        <ele>313.2</ele>
        <time>2022-06-21T09:22:43Z</time>
      </trkpt>
      <trkpt lat="47.50384" lon="6.81876">
        <ele>313</ele>
        <time>2022-06-21T09:22:54Z</time>
      </trkpt>
      <trkpt lat="47.50377" lon="6.81964">
        <ele>313</ele>
        <time>2022-06-21T09:23:05Z</time>
      </trkpt>
      <trkpt lat="47.50368" lon="6.82051">
        <ele>313.6</ele>
        <time>2022-06-21T09:23:16Z</time>
      </trkpt>
      <trkpt lat="47.50366" lon="6.82067">
        <ele>313.8</ele>
        <time>2022-06-21T09:23:18Z</time>
      </trkpt>
      <trkpt lat="47.50359" lon="6.82155">
        <ele>314.2</ele>
        <time>2022-06-21T09:23:29Z</time>
      </trkpt>
      <trkpt lat="47.50358" lon="6.82163">
        <ele>314.2</ele>
        <time>2022-06-21T09:23:30Z</time>
      </trkpt>
      <trkpt lat="47.50358" lon="6.82171">
        <ele>314.4</ele>
        <time>2022-06-21T09:23:31Z</time>
      </trkpt>
      <trkpt lat="47.50355" lon="6.82204">
        <ele>314.2</ele>
        <time>2022-06-21T09:23:35Z</time>
      </trkpt>
      <trkpt lat="47.50354" lon="6.82212">
        <ele>314</ele>
        <time>2022-06-21T09:23:36Z</time>
      </trkpt>
      <trkpt lat="47.50348" lon="6.82304">
        <ele>313.6</ele>
        <time>2022-06-21T09:23:47Z</time>
      </trkpt>
      <trkpt lat="47.50348" lon="6.82394">
        <ele>313.8</ele>
        <time>2022-06-21T09:23:58Z</time>
      </trkpt>
      <trkpt lat="47.5035" lon="6.82407">
        <ele>313.8</ele>
        <time>2022-06-21T09:24:00Z</time>
      </trkpt>
      <trkpt lat="47.50352" lon="6.82412">
        <ele>314</ele>
        <time>2022-06-21T09:24:01Z</time>
      </trkpt>
      <trkpt lat="47.50376" lon="6.82491">
        <ele>314.6</ele>
        <time>2022-06-21T09:24:18Z</time>
      </trkpt>
      <trkpt lat="47.50391" lon="6.8253">
        <ele>314.6</ele>
        <time>2022-06-21T09:24:29Z</time>
      </trkpt>
      <trkpt lat="47.50387" lon="6.82532">
        <ele>314.4</ele>
        <time>2022-06-21T09:24:30Z</time>
      </trkpt>
      <trkpt lat="47.5038" lon="6.82534">
        <ele>314.2</ele>
        <time>2022-06-21T09:24:32Z</time>
      </trkpt>
      <trkpt lat="47.50376" lon="6.82535">
        <ele>314.2</ele>
        <time>2022-06-21T09:24:33Z</time>
      </trkpt>
      <trkpt lat="47.50374" lon="6.82536">
        <ele>314.2</ele>
        <time>2022-06-21T09:24:34Z</time>
      </trkpt>
      <trkpt lat="47.50372" lon="6.82539">
        <ele>314.2</ele>
        <time>2022-06-21T09:24:35Z</time>
      </trkpt>
      <trkpt lat="47.5037" lon="6.82543">
        <ele>314.4</ele>
        <time>2022-06-21T09:24:36Z</time>
      </trkpt>
      <trkpt lat="47.50369" lon="6.82546">
        <ele>314.4</ele>
        <time>2022-06-21T09:24:37Z</time>
      </trkpt>
      <trkpt lat="47.50368" lon="6.82549">
        <ele>314.6</ele>
        <time>2022-06-21T09:24:38Z</time>
      </trkpt>
      <trkpt lat="47.50366" lon="6.82552">
        <ele>314.6</ele>
        <time>2022-06-21T09:24:39Z</time>
      </trkpt>
      <trkpt lat="47.50364" lon="6.82555">
        <ele>314.6</ele>
        <time>2022-06-21T09:24:40Z</time>
      </trkpt>
      <trkpt lat="47.50362" lon="6.82557">
        <ele>314.6</ele>
        <time>2022-06-21T09:24:41Z</time>
      </trkpt>
      <trkpt lat="47.5036" lon="6.82557">
        <ele>314.6</ele>
        <time>2022-06-21T09:24:42Z</time>
      </trkpt>
      <trkpt lat="47.50359" lon="6.82558">
        <ele>314.8</ele>
        <time>2022-06-21T09:24:43Z</time>
      </trkpt>
      <trkpt lat="47.50358" lon="6.8256">
        <ele>314.8</ele>
        <time>2022-06-21T09:24:44Z</time>
      </trkpt>
      <trkpt lat="47.50357" lon="6.82563">
        <ele>314.8</ele>
        <time>2022-06-21T09:24:45Z</time>
      </trkpt>
      <trkpt lat="47.50355" lon="6.82566">
        <ele>315</ele>
        <time>2022-06-21T09:24:46Z</time>
      </trkpt>
      <trkpt lat="47.50352" lon="6.82654">
        <ele>315</ele>
        <time>2022-06-21T09:25:03Z</time>
      </trkpt>
      <trkpt lat="47.50352" lon="6.82667">
        <ele>315</ele>
        <time>2022-06-21T09:25:05Z</time>
      </trkpt>
      <trkpt lat="47.50354" lon="6.82753">
        <ele>315.6</ele>
        <time>2022-06-21T09:25:18Z</time>
      </trkpt>
      <trkpt lat="47.50358" lon="6.82793">
        <ele>315.8</ele>
        <time>2022-06-21T09:25:24Z</time>
      </trkpt>
      <trkpt lat="47.50363" lon="6.8282">
        <ele>315.8</ele>
        <time>2022-06-21T09:25:28Z</time>
      </trkpt>
      <trkpt lat="47.50381" lon="6.82898">
        <ele>315.4</ele>
        <time>2022-06-21T09:25:39Z</time>
      </trkpt>
      <trkpt lat="47.5039" lon="6.82979">
        <ele>315.6</ele>
        <time>2022-06-21T09:25:50Z</time>
      </trkpt>
      <trkpt lat="47.50393" lon="6.83002">
        <ele>315.6</ele>
        <time>2022-06-21T09:25:53Z</time>
      </trkpt>
      <trkpt lat="47.50399" lon="6.83042">
        <ele>315.8</ele>
        <time>2022-06-21T09:25:58Z</time>
      </trkpt>
      <trkpt lat="47.504" lon="6.8305">
        <ele>316</ele>
        <time>2022-06-21T09:25:59Z</time>
      </trkpt>
      <trkpt lat="47.50414" lon="6.83133">
        <ele>315.6</ele>
        <time>2022-06-21T09:26:10Z</time>
      </trkpt>
      <trkpt lat="47.50419" lon="6.83169">
        <ele>315.2</ele>
        <time>2022-06-21T09:26:15Z</time>
      </trkpt>
      <trkpt lat="47.50421" lon="6.83176">
        <ele>315.2</ele>
        <time>2022-06-21T09:26:16Z</time>
      </trkpt>
      <trkpt lat="47.50434" lon="6.83227">
        <ele>315.4</ele>
        <time>2022-06-21T09:26:24Z</time>
      </trkpt>
      <trkpt lat="47.50435" lon="6.83233">
        <ele>315.6</ele>
        <time>2022-06-21T09:26:25Z</time>
      </trkpt>
      <trkpt lat="47.50438" lon="6.83251">
        <ele>315.6</ele>
        <time>2022-06-21T09:26:28Z</time>
      </trkpt>
      <trkpt lat="47.5044" lon="6.83257">
        <ele>315.6</ele>
        <time>2022-06-21T09:26:29Z</time>
      </trkpt>
      <trkpt lat="47.50441" lon="6.83262">
        <ele>315.6</ele>
        <time>2022-06-21T09:26:30Z</time>
      </trkpt>
      <trkpt lat="47.50441" lon="6.83268">
        <ele>315.6</ele>
        <time>2022-06-21T09:26:31Z</time>
      </trkpt>
      <trkpt lat="47.50441" lon="6.83274">
        <ele>315.4</ele>
        <time>2022-06-21T09:26:32Z</time>
      </trkpt>
      <trkpt lat="47.50441" lon="6.8328">
        <ele>315.4</ele>
        <time>2022-06-21T09:26:33Z</time>
      </trkpt>
      <trkpt lat="47.50442" lon="6.83286">
        <ele>315.4</ele>
        <time>2022-06-21T09:26:34Z</time>
      </trkpt>
      <trkpt lat="47.50444" lon="6.83291">
        <ele>315.4</ele>
        <time>2022-06-21T09:26:35Z</time>
      </trkpt>
      <trkpt lat="47.50445" lon="6.83296">
        <ele>315.2</ele>
        <time>2022-06-21T09:26:36Z</time>
      </trkpt>
      <trkpt lat="47.50447" lon="6.83301">
        <ele>315.2</ele>
        <time>2022-06-21T09:26:37Z</time>
      </trkpt>
      <trkpt lat="47.50448" lon="6.83307">
        <ele>315.4</ele>
        <time>2022-06-21T09:26:38Z</time>
      </trkpt>
      <trkpt lat="47.50449" lon="6.83313">
        <ele>315.4</ele>
        <time>2022-06-21T09:26:39Z</time>
      </trkpt>
      <trkpt lat="47.50407" lon="6.8336">
        <ele>315.2</ele>
        <time>2022-06-21T09:26:56Z</time>
      </trkpt>
      <trkpt lat="47.50349" lon="6.83373">
        <ele>316.6</ele>
        <time>2022-06-21T09:27:12Z</time>
      </trkpt>
      <trkpt lat="47.50292" lon="6.83385">
        <ele>316.4</ele>
        <time>2022-06-21T09:27:27Z</time>
      </trkpt>
      <trkpt lat="47.50232" lon="6.83394">
        <ele>316</ele>
        <time>2022-06-21T09:27:42Z</time>
      </trkpt>
      <trkpt lat="47.50186" lon="6.83393">
        <ele>315.4</ele>
        <time>2022-06-21T09:27:50Z</time>
      </trkpt>
      <trkpt lat="47.5018" lon="6.83392">
        <ele>315.6</ele>
        <time>2022-06-21T09:27:51Z</time>
      </trkpt>
      <trkpt lat="47.50119" lon="6.83383">
        <ele>318.2</ele>
        <time>2022-06-21T09:28:05Z</time>
      </trkpt>
      <trkpt lat="47.50061" lon="6.83375">
        <ele>318.6</ele>
        <time>2022-06-21T09:28:21Z</time>
      </trkpt>
      <trkpt lat="47.50001" lon="6.83369">
        <ele>319.2</ele>
        <time>2022-06-21T09:28:37Z</time>
      </trkpt>
      <trkpt lat="47.49943" lon="6.83361">
        <ele>320.6</ele>
        <time>2022-06-21T09:28:52Z</time>
      </trkpt>
      <trkpt lat="47.49885" lon="6.83343">
        <ele>321.6</ele>
        <time>2022-06-21T09:29:07Z</time>
      </trkpt>
      <trkpt lat="47.49859" lon="6.83321">
        <ele>321.8</ele>
        <time>2022-06-21T09:29:14Z</time>
      </trkpt>
      <trkpt lat="47.498" lon="6.83278">
        <ele>321.4</ele>
        <time>2022-06-21T09:29:27Z</time>
      </trkpt>
      <trkpt lat="47.49748" lon="6.83235">
        <ele>319</ele>
        <time>2022-06-21T09:29:39Z</time>
      </trkpt>
      <trkpt lat="47.49713" lon="6.83222">
        <ele>317.8</ele>
        <time>2022-06-21T09:29:45Z</time>
      </trkpt>
      <trkpt lat="47.49706" lon="6.83222">
        <ele>317.6</ele>
        <time>2022-06-21T09:29:46Z</time>
      </trkpt>
      <trkpt lat="47.49701" lon="6.83223">
        <ele>317.8</ele>
        <time>2022-06-21T09:29:47Z</time>
      </trkpt>
      <trkpt lat="47.49695" lon="6.83224">
        <ele>317.8</ele>
        <time>2022-06-21T09:29:48Z</time>
      </trkpt>
      <trkpt lat="47.49689" lon="6.83227">
        <ele>317.8</ele>
        <time>2022-06-21T09:29:49Z</time>
      </trkpt>
      <trkpt lat="47.49683" lon="6.8323">
        <ele>317.6</ele>
        <time>2022-06-21T09:29:50Z</time>
      </trkpt>
      <trkpt lat="47.49677" lon="6.83234">
        <ele>317.8</ele>
        <time>2022-06-21T09:29:51Z</time>
      </trkpt>
      <trkpt lat="47.4962" lon="6.83271">
        <ele>316.8</ele>
        <time>2022-06-21T09:30:02Z</time>
      </trkpt>
      <trkpt lat="47.49567" lon="6.83306">
        <ele>316.4</ele>
        <time>2022-06-21T09:30:13Z</time>
      </trkpt>
      <trkpt lat="47.49515" lon="6.83346">
        <ele>315.6</ele>
        <time>2022-06-21T09:30:31Z</time>
      </trkpt>
      <trkpt lat="47.49506" lon="6.83343">
        <ele>315.8</ele>
        <time>2022-06-21T09:30:35Z</time>
      </trkpt>
      <trkpt lat="47.49505" lon="6.83344">
        <ele>315.8</ele>
        <time>2022-06-21T09:30:36Z</time>
      </trkpt>
      <trkpt lat="47.49503" lon="6.83346">
        <ele>315.8</ele>
        <time>2022-06-21T09:30:37Z</time>
      </trkpt>
      <trkpt lat="47.49501" lon="6.83347">
        <ele>315.8</ele>
        <time>2022-06-21T09:30:38Z</time>
      </trkpt>
      <trkpt lat="47.49498" lon="6.83348">
        <ele>315.6</ele>
        <time>2022-06-21T09:30:39Z</time>
      </trkpt>
      <trkpt lat="47.49454" lon="6.83373">
        <ele>315.4</ele>
        <time>2022-06-21T09:30:53Z</time>
      </trkpt>
      <trkpt lat="47.49401" lon="6.83408">
        <ele>316</ele>
        <time>2022-06-21T09:31:06Z</time>
      </trkpt>
      <trkpt lat="47.49344" lon="6.83426">
        <ele>316.6</ele>
        <time>2022-06-21T09:31:19Z</time>
      </trkpt>
      <trkpt lat="47.49286" lon="6.83411">
        <ele>317</ele>
        <time>2022-06-21T09:31:38Z</time>
      </trkpt>
      <trkpt lat="47.49231" lon="6.83394">
        <ele>317.4</ele>
        <time>2022-06-21T09:31:55Z</time>
      </trkpt>
      <trkpt lat="47.49174" lon="6.83378">
        <ele>318.6</ele>
        <time>2022-06-21T09:32:12Z</time>
      </trkpt>
      <trkpt lat="47.49116" lon="6.83359">
        <ele>319.8</ele>
        <time>2022-06-21T09:32:26Z</time>
      </trkpt>
      <trkpt lat="47.49104" lon="6.83355">
        <ele>319.6</ele>
        <time>2022-06-21T09:32:29Z</time>
      </trkpt>
      <trkpt lat="47.49086" lon="6.83349">
        <ele>319.8</ele>
        <time>2022-06-21T09:32:33Z</time>
      </trkpt>
      <trkpt lat="47.49027" lon="6.83333">
        <ele>320.4</ele>
        <time>2022-06-21T09:32:47Z</time>
      </trkpt>
      <trkpt lat="47.48969" lon="6.83316">
        <ele>321.8</ele>
        <time>2022-06-21T09:33:02Z</time>
      </trkpt>
      <trkpt lat="47.48911" lon="6.83313">
        <ele>320.8</ele>
        <time>2022-06-21T09:33:14Z</time>
      </trkpt>
      <trkpt lat="47.48885" lon="6.8333">
        <ele>318.6</ele>
        <time>2022-06-21T09:33:20Z</time>
      </trkpt>
      <trkpt lat="47.48881" lon="6.83335">
        <ele>318.4</ele>
        <time>2022-06-21T09:33:21Z</time>
      </trkpt>
      <trkpt lat="47.48837" lon="6.83398">
        <ele>318.4</ele>
        <time>2022-06-21T09:33:33Z</time>
      </trkpt>
      <trkpt lat="47.48832" lon="6.83404">
        <ele>318.6</ele>
        <time>2022-06-21T09:33:34Z</time>
      </trkpt>
      <trkpt lat="47.48824" lon="6.83416">
        <ele>318.8</ele>
        <time>2022-06-21T09:33:36Z</time>
      </trkpt>
      <trkpt lat="47.48779" lon="6.83478">
        <ele>317.8</ele>
        <time>2022-06-21T09:33:47Z</time>
      </trkpt>
      <trkpt lat="47.48772" lon="6.835">
        <ele>317.6</ele>
        <time>2022-06-21T09:33:50Z</time>
      </trkpt>
      <trkpt lat="47.48766" lon="6.83524">
        <ele>317.4</ele>
        <time>2022-06-21T09:33:53Z</time>
      </trkpt>
      <trkpt lat="47.48766" lon="6.83533">
        <ele>317.2</ele>
        <time>2022-06-21T09:33:54Z</time>
      </trkpt>
      <trkpt lat="47.48767" lon="6.83549">
        <ele>317.6</ele>
        <time>2022-06-21T09:33:56Z</time>
      </trkpt>
      <trkpt lat="47.4877" lon="6.83575">
        <ele>317.6</ele>
        <time>2022-06-21T09:33:59Z</time>
      </trkpt>
      <trkpt lat="47.48772" lon="6.83583">
        <ele>317.4</ele>
        <time>2022-06-21T09:34:00Z</time>
      </trkpt>
      <trkpt lat="47.48786" lon="6.83667">
        <ele>316.2</ele>
        <time>2022-06-21T09:34:10Z</time>
      </trkpt>
      <trkpt lat="47.48786" lon="6.83675">
        <ele>316.2</ele>
        <time>2022-06-21T09:34:11Z</time>
      </trkpt>
      <trkpt lat="47.48786" lon="6.83683">
        <ele>316.4</ele>
        <time>2022-06-21T09:34:12Z</time>
      </trkpt>
      <trkpt lat="47.48784" lon="6.8369">
        <ele>316.4</ele>
        <time>2022-06-21T09:34:13Z</time>
      </trkpt>
      <trkpt lat="47.48782" lon="6.83697">
        <ele>316.4</ele>
        <time>2022-06-21T09:34:14Z</time>
      </trkpt>
      <trkpt lat="47.48774" lon="6.8373">
        <ele>316.4</ele>
        <time>2022-06-21T09:34:19Z</time>
      </trkpt>
      <trkpt lat="47.48772" lon="6.83735">
        <ele>316.4</ele>
        <time>2022-06-21T09:34:20Z</time>
      </trkpt>
      <trkpt lat="47.48725" lon="6.83746">
        <ele>315.8</ele>
        <time>2022-06-21T09:34:37Z</time>
      </trkpt>
      <trkpt lat="47.48698" lon="6.83719">
        <ele>316</ele>
        <time>2022-06-21T09:34:46Z</time>
      </trkpt>
      <trkpt lat="47.48697" lon="6.83714">
        <ele>315.8</ele>
        <time>2022-06-21T09:34:47Z</time>
      </trkpt>
      <trkpt lat="47.48697" lon="6.83709">
        <ele>315.8</ele>
        <time>2022-06-21T09:34:48Z</time>
      </trkpt>
      <trkpt lat="47.48697" lon="6.83704">
        <ele>315.6</ele>
        <time>2022-06-21T09:34:49Z</time>
      </trkpt>
      <trkpt lat="47.48698" lon="6.83699">
        <ele>315.4</ele>
        <time>2022-06-21T09:34:50Z</time>
      </trkpt>
      <trkpt lat="47.48695" lon="6.83619">
        <ele>314.4</ele>
        <time>2022-06-21T09:35:16Z</time>
      </trkpt>
      <trkpt lat="47.48692" lon="6.83621">
        <ele>314.6</ele>
        <time>2022-06-21T09:35:24Z</time>
      </trkpt>
      <trkpt lat="47.48692" lon="6.83623">
        <ele>314.6</ele>
        <time>2022-06-21T09:35:25Z</time>
      </trkpt>
      <trkpt lat="47.48698" lon="6.83711">
        <ele>315.6</ele>
        <time>2022-06-21T09:35:46Z</time>
      </trkpt>
      <trkpt lat="47.48715" lon="6.83735">
        <ele>315.8</ele>
        <time>2022-06-21T09:35:56Z</time>
      </trkpt>
      <trkpt lat="47.48718" lon="6.83738">
        <ele>315.8</ele>
        <time>2022-06-21T09:35:57Z</time>
      </trkpt>
      <trkpt lat="47.48752" lon="6.83798">
        <ele>315.6</ele>
        <time>2022-06-21T09:36:16Z</time>
      </trkpt>
      <trkpt lat="47.48735" lon="6.83827">
        <ele>315.8</ele>
        <time>2022-06-21T09:36:28Z</time>
      </trkpt>
      <trkpt lat="47.48734" lon="6.83829">
        <ele>316</ele>
        <time>2022-06-21T09:36:29Z</time>
      </trkpt>
      <trkpt lat="47.48733" lon="6.83831">
        <ele>316</ele>
        <time>2022-06-21T09:36:30Z</time>
      </trkpt>
      <trkpt lat="47.48732" lon="6.83834">
        <ele>316</ele>
        <time>2022-06-21T09:36:31Z</time>
      </trkpt>
      <trkpt lat="47.48732" lon="6.83835">
        <ele>316</ele>
        <time>2022-06-21T09:36:32Z</time>
      </trkpt>
      <trkpt lat="47.48733" lon="6.83836">
        <ele>316</ele>
        <time>2022-06-21T09:36:33Z</time>
      </trkpt>
      <trkpt lat="47.48735" lon="6.83835">
        <ele>316</ele>
        <time>2022-06-21T09:36:34Z</time>
      </trkpt>
      <trkpt lat="47.48737" lon="6.83833">
        <ele>316</ele>
        <time>2022-06-21T09:36:35Z</time>
      </trkpt>
      <trkpt lat="47.4874" lon="6.8383">
        <ele>316.2</ele>
        <time>2022-06-21T09:36:36Z</time>
      </trkpt>
      <trkpt lat="47.48751" lon="6.83815">
        <ele>316</ele>
        <time>2022-06-21T09:36:42Z</time>
      </trkpt>
      <trkpt lat="47.48754" lon="6.83815">
        <ele>315.8</ele>
        <time>2022-06-21T09:36:43Z</time>
      </trkpt>
      <trkpt lat="47.48756" lon="6.83816">
        <ele>316</ele>
        <time>2022-06-21T09:36:44Z</time>
      </trkpt>
      <trkpt lat="47.48758" lon="6.83816">
        <ele>316</ele>
        <time>2022-06-21T09:36:45Z</time>
      </trkpt>
      <trkpt lat="47.4876" lon="6.83817">
        <ele>316</ele>
        <time>2022-06-21T09:36:46Z</time>
      </trkpt>
      <trkpt lat="47.48762" lon="6.83819">
        <ele>316.2</ele>
        <time>2022-06-21T09:36:47Z</time>
      </trkpt>
      <trkpt lat="47.48764" lon="6.83821">
        <ele>316.2</ele>
        <time>2022-06-21T09:36:48Z</time>
      </trkpt>
      <trkpt lat="47.48766" lon="6.83824">
        <ele>316.2</ele>
        <time>2022-06-21T09:36:49Z</time>
      </trkpt>
      <trkpt lat="47.48768" lon="6.83826">
        <ele>316.2</ele>
        <time>2022-06-21T09:36:50Z</time>
      </trkpt>
      <trkpt lat="47.48769" lon="6.83829">
        <ele>316.4</ele>
        <time>2022-06-21T09:36:51Z</time>
      </trkpt>
      <trkpt lat="47.48779" lon="6.83844">
        <ele>316.2</ele>
        <time>2022-06-21T09:37:06Z</time>
      </trkpt>
      <trkpt lat="47.48781" lon="6.83849">
        <ele>316.2</ele>
        <time>2022-06-21T09:37:24Z</time>
      </trkpt>
      <trkpt lat="47.48781" lon="6.83851">
        <ele>316.2</ele>
        <time>2022-06-21T09:37:25Z</time>
      </trkpt>
      <trkpt lat="47.48781" lon="6.83853">
        <ele>316.2</ele>
        <time>2022-06-21T09:37:26Z</time>
      </trkpt>
      <trkpt lat="47.48751" lon="6.83924">
        <ele>315.6</ele>
        <time>2022-06-21T09:37:44Z</time>
      </trkpt>
      <trkpt lat="47.48712" lon="6.8399">
        <ele>315.8</ele>
        <time>2022-06-21T09:37:58Z</time>
      </trkpt>
      <trkpt lat="47.4867" lon="6.84057">
        <ele>316.4</ele>
        <time>2022-06-21T09:38:11Z</time>
      </trkpt>
      <trkpt lat="47.48646" lon="6.84095">
        <ele>316.8</ele>
        <time>2022-06-21T09:38:18Z</time>
      </trkpt>
      <trkpt lat="47.48609" lon="6.84153">
        <ele>316.8</ele>
        <time>2022-06-21T09:38:41Z</time>
      </trkpt>
      <trkpt lat="47.48603" lon="6.84163">
        <ele>316.8</ele>
        <time>2022-06-21T09:39:56Z</time>
      </trkpt>
      <trkpt lat="47.48601" lon="6.84166">
        <ele>316.8</ele>
        <time>2022-06-21T09:39:57Z</time>
      </trkpt>
      <trkpt lat="47.48599" lon="6.84168">
        <ele>316.8</ele>
        <time>2022-06-21T09:39:58Z</time>
      </trkpt>
      <trkpt lat="47.48597" lon="6.84171">
        <ele>317</ele>
        <time>2022-06-21T09:39:59Z</time>
      </trkpt>
      <trkpt lat="47.48553" lon="6.84225">
        <ele>317.4</ele>
        <time>2022-06-21T09:40:18Z</time>
      </trkpt>
      <trkpt lat="47.48507" lon="6.84284">
        <ele>318</ele>
        <time>2022-06-21T09:40:32Z</time>
      </trkpt>
      <trkpt lat="47.48501" lon="6.84293">
        <ele>318</ele>
        <time>2022-06-21T09:40:34Z</time>
      </trkpt>
      <trkpt lat="47.48498" lon="6.84297">
        <ele>318.2</ele>
        <time>2022-06-21T09:40:35Z</time>
      </trkpt>
      <trkpt lat="47.48452" lon="6.84352">
        <ele>319</ele>
        <time>2022-06-21T09:40:49Z</time>
      </trkpt>
      <trkpt lat="47.48405" lon="6.84403">
        <ele>320</ele>
        <time>2022-06-21T09:41:03Z</time>
      </trkpt>
      <trkpt lat="47.48354" lon="6.84455">
        <ele>320.8</ele>
        <time>2022-06-21T09:41:17Z</time>
      </trkpt>
      <trkpt lat="47.48306" lon="6.84503">
        <ele>322</ele>
        <time>2022-06-21T09:41:31Z</time>
      </trkpt>
      <trkpt lat="47.48259" lon="6.84553">
        <ele>322</ele>
        <time>2022-06-21T09:41:44Z</time>
      </trkpt>
      <trkpt lat="47.48209" lon="6.84604">
        <ele>322</ele>
        <time>2022-06-21T09:41:56Z</time>
      </trkpt>
      <trkpt lat="47.48161" lon="6.84655">
        <ele>322.6</ele>
        <time>2022-06-21T09:42:08Z</time>
      </trkpt>
      <trkpt lat="47.48115" lon="6.84702">
        <ele>323.4</ele>
        <time>2022-06-21T09:42:21Z</time>
      </trkpt>
      <trkpt lat="47.48093" lon="6.84724">
        <ele>324</ele>
        <time>2022-06-21T09:42:27Z</time>
      </trkpt>
      <trkpt lat="47.48089" lon="6.84728">
        <ele>324</ele>
        <time>2022-06-21T09:42:28Z</time>
      </trkpt>
      <trkpt lat="47.48039" lon="6.8478">
        <ele>325</ele>
        <time>2022-06-21T09:42:42Z</time>
      </trkpt>
      <trkpt lat="47.48031" lon="6.84788">
        <ele>325.4</ele>
        <time>2022-06-21T09:42:44Z</time>
      </trkpt>
      <trkpt lat="47.48023" lon="6.84795">
        <ele>325.4</ele>
        <time>2022-06-21T09:42:46Z</time>
      </trkpt>
      <trkpt lat="47.47974" lon="6.84848">
        <ele>326.4</ele>
        <time>2022-06-21T09:42:59Z</time>
      </trkpt>
      <trkpt lat="47.47942" lon="6.8489">
        <ele>326.8</ele>
        <time>2022-06-21T09:43:08Z</time>
      </trkpt>
      <trkpt lat="47.47903" lon="6.84956">
        <ele>328</ele>
        <time>2022-06-21T09:43:22Z</time>
      </trkpt>
      <trkpt lat="47.47869" lon="6.85029">
        <ele>329</ele>
        <time>2022-06-21T09:43:36Z</time>
      </trkpt>
      <trkpt lat="47.47865" lon="6.8504">
        <ele>329.2</ele>
        <time>2022-06-21T09:43:38Z</time>
      </trkpt>
      <trkpt lat="47.47863" lon="6.85045">
        <ele>329.2</ele>
        <time>2022-06-21T09:43:39Z</time>
      </trkpt>
      <trkpt lat="47.47861" lon="6.85051">
        <ele>329.4</ele>
        <time>2022-06-21T09:43:40Z</time>
      </trkpt>
      <trkpt lat="47.47835" lon="6.85129">
        <ele>330.6</ele>
        <time>2022-06-21T09:43:55Z</time>
      </trkpt>
      <trkpt lat="47.47838" lon="6.85134">
        <ele>330.4</ele>
        <time>2022-06-21T09:44:03Z</time>
      </trkpt>
      <trkpt lat="47.47839" lon="6.85133">
        <ele>330.4</ele>
        <time>2022-06-21T09:44:04Z</time>
      </trkpt>
      <trkpt lat="47.47839" lon="6.85131">
        <ele>330.4</ele>
        <time>2022-06-21T09:44:05Z</time>
      </trkpt>
      <trkpt lat="47.47839" lon="6.85129">
        <ele>330.4</ele>
        <time>2022-06-21T09:44:06Z</time>
      </trkpt>
      <trkpt lat="47.4784" lon="6.85127">
        <ele>330.4</ele>
        <time>2022-06-21T09:44:07Z</time>
      </trkpt>
      <trkpt lat="47.4784" lon="6.85125">
        <ele>330.4</ele>
        <time>2022-06-21T09:44:08Z</time>
      </trkpt>
      <trkpt lat="47.47856" lon="6.85079">
        <ele>329.8</ele>
        <time>2022-06-21T09:44:20Z</time>
      </trkpt>
      <trkpt lat="47.47858" lon="6.85074">
        <ele>329.8</ele>
        <time>2022-06-21T09:44:21Z</time>
      </trkpt>
      <trkpt lat="47.47861" lon="6.85068">
        <ele>329.8</ele>
        <time>2022-06-21T09:44:22Z</time>
      </trkpt>
      <trkpt lat="47.47863" lon="6.85063">
        <ele>329.8</ele>
        <time>2022-06-21T09:44:23Z</time>
      </trkpt>
      <trkpt lat="47.47865" lon="6.85057">
        <ele>329.8</ele>
        <time>2022-06-21T09:44:24Z</time>
      </trkpt>
      <trkpt lat="47.47897" lon="6.84978">
        <ele>328.4</ele>
        <time>2022-06-21T09:44:37Z</time>
      </trkpt>
      <trkpt lat="47.47933" lon="6.84909">
        <ele>327.6</ele>
        <time>2022-06-21T09:44:49Z</time>
      </trkpt>
      <trkpt lat="47.47956" lon="6.84866">
        <ele>325.8</ele>
        <time>2022-06-21T09:45:05Z</time>
      </trkpt>
      <trkpt lat="47.47954" lon="6.84865">
        <ele>325.8</ele>
        <time>2022-06-21T09:45:06Z</time>
      </trkpt>
      <trkpt lat="47.47952" lon="6.84864">
        <ele>325.8</ele>
        <time>2022-06-21T09:45:07Z</time>
      </trkpt>
      <trkpt lat="47.47906" lon="6.84877">
        <ele>323.8</ele>
        <time>2022-06-21T09:45:21Z</time>
      </trkpt>
      <trkpt lat="47.47902" lon="6.84878">
        <ele>323.6</ele>
        <time>2022-06-21T09:45:22Z</time>
      </trkpt>
      <trkpt lat="47.47881" lon="6.84878">
        <ele>323.6</ele>
        <time>2022-06-21T09:45:31Z</time>
      </trkpt>
      <trkpt lat="47.47858" lon="6.84898">
        <ele>324</ele>
        <time>2022-06-21T09:45:47Z</time>
      </trkpt>
      <trkpt lat="47.47856" lon="6.84896">
        <ele>324</ele>
        <time>2022-06-21T09:45:48Z</time>
      </trkpt>
      <trkpt lat="47.47855" lon="6.84893">
        <ele>324</ele>
        <time>2022-06-21T09:45:49Z</time>
      </trkpt>
      <trkpt lat="47.47853" lon="6.84891">
        <ele>324</ele>
        <time>2022-06-21T09:45:50Z</time>
      </trkpt>
      <trkpt lat="47.47851" lon="6.84888">
        <ele>324</ele>
        <time>2022-06-21T09:45:51Z</time>
      </trkpt>
      <trkpt lat="47.47849" lon="6.84886">
        <ele>324</ele>
        <time>2022-06-21T09:45:52Z</time>
      </trkpt>
      <trkpt lat="47.47847" lon="6.84884">
        <ele>324</ele>
        <time>2022-06-21T09:45:53Z</time>
      </trkpt>
      <trkpt lat="47.47844" lon="6.84883">
        <ele>324.2</ele>
        <time>2022-06-21T09:45:54Z</time>
      </trkpt>
      <trkpt lat="47.47842" lon="6.84883">
        <ele>324.2</ele>
        <time>2022-06-21T09:45:55Z</time>
      </trkpt>
      <trkpt lat="47.47783" lon="6.84854">
        <ele>325</ele>
        <time>2022-06-21T09:46:13Z</time>
      </trkpt>
      <trkpt lat="47.47735" lon="6.84805">
        <ele>326</ele>
        <time>2022-06-21T09:46:28Z</time>
      </trkpt>
      <trkpt lat="47.47698" lon="6.84741">
        <ele>327.2</ele>
        <time>2022-06-21T09:46:44Z</time>
      </trkpt>
      <trkpt lat="47.47688" lon="6.84709">
        <ele>326.6</ele>
        <time>2022-06-21T09:46:59Z</time>
      </trkpt>
      <trkpt lat="47.47687" lon="6.847">
        <ele>327</ele>
        <time>2022-06-21T09:47:28Z</time>
      </trkpt>
      <trkpt lat="47.47654" lon="6.8463">
        <ele>326.4</ele>
        <time>2022-06-21T09:47:45Z</time>
      </trkpt>
      <trkpt lat="47.47603" lon="6.84578">
        <ele>324.6</ele>
        <time>2022-06-21T09:47:59Z</time>
      </trkpt>
      <trkpt lat="47.47573" lon="6.84562">
        <ele>322.4</ele>
        <time>2022-06-21T09:48:15Z</time>
      </trkpt>
      <trkpt lat="47.47565" lon="6.84558">
        <ele>322.2</ele>
        <time>2022-06-21T09:48:28Z</time>
      </trkpt>
      <trkpt lat="47.4751" lon="6.8452">
        <ele>322.4</ele>
        <time>2022-06-21T09:48:44Z</time>
      </trkpt>
      <trkpt lat="47.47451" lon="6.84492">
        <ele>322.2</ele>
        <time>2022-06-21T09:48:57Z</time>
      </trkpt>
      <trkpt lat="47.47396" lon="6.84457">
        <ele>322</ele>
        <time>2022-06-21T09:49:12Z</time>
      </trkpt>
      <trkpt lat="47.4738" lon="6.84438">
        <ele>322</ele>
        <time>2022-06-21T09:49:17Z</time>
      </trkpt>
      <trkpt lat="47.47377" lon="6.84435">
        <ele>321.8</ele>
        <time>2022-06-21T09:49:18Z</time>
      </trkpt>
      <trkpt lat="47.47344" lon="6.8441">
        <ele>321.4</ele>
        <time>2022-06-21T09:49:26Z</time>
      </trkpt>
      <trkpt lat="47.47339" lon="6.84408">
        <ele>321.4</ele>
        <time>2022-06-21T09:49:27Z</time>
      </trkpt>
      <trkpt lat="47.47334" lon="6.84406">
        <ele>321.2</ele>
        <time>2022-06-21T09:49:28Z</time>
      </trkpt>
      <trkpt lat="47.4728" lon="6.84369">
        <ele>321.2</ele>
        <time>2022-06-21T09:49:41Z</time>
      </trkpt>
      <trkpt lat="47.47272" lon="6.84363">
        <ele>320.8</ele>
        <time>2022-06-21T09:49:43Z</time>
      </trkpt>
      <trkpt lat="47.47264" lon="6.84357">
        <ele>320.8</ele>
        <time>2022-06-21T09:49:45Z</time>
      </trkpt>
      <trkpt lat="47.47233" lon="6.84318">
        <ele>320.2</ele>
        <time>2022-06-21T09:50:04Z</time>
      </trkpt>
      <trkpt lat="47.47232" lon="6.84316">
        <ele>320.4</ele>
        <time>2022-06-21T09:50:05Z</time>
      </trkpt>
      <trkpt lat="47.47215" lon="6.84282">
        <ele>321.2</ele>
        <time>2022-06-21T09:50:20Z</time>
      </trkpt>
      <trkpt lat="47.47215" lon="6.84282">
        <ele>321.2</ele>
        <time>2022-06-21T09:50:26Z</time>
      </trkpt>
      <trkpt lat="47.4721" lon="6.84273">
        <ele>321</ele>
        <time>2022-06-21T09:50:53Z</time>
      </trkpt>
      <trkpt lat="47.4717" lon="6.84211">
        <ele>321.6</ele>
        <time>2022-06-21T09:51:10Z</time>
      </trkpt>
      <trkpt lat="47.47128" lon="6.84147">
        <ele>320.6</ele>
        <time>2022-06-21T09:51:23Z</time>
      </trkpt>
      <trkpt lat="47.4712" lon="6.84137">
        <ele>320.4</ele>
        <time>2022-06-21T09:51:25Z</time>
      </trkpt>
      <trkpt lat="47.47067" lon="6.84107">
        <ele>321.2</ele>
        <time>2022-06-21T09:51:39Z</time>
      </trkpt>
      <trkpt lat="47.47018" lon="6.84119">
        <ele>322.4</ele>
        <time>2022-06-21T09:51:51Z</time>
      </trkpt>
      <trkpt lat="47.47013" lon="6.8412">
        <ele>322.4</ele>
        <time>2022-06-21T09:51:52Z</time>
      </trkpt>
      <trkpt lat="47.47008" lon="6.84121">
        <ele>322.4</ele>
        <time>2022-06-21T09:51:53Z</time>
      </trkpt>
      <trkpt lat="47.47003" lon="6.84123">
        <ele>322.4</ele>
        <time>2022-06-21T09:51:54Z</time>
      </trkpt>
      <trkpt lat="47.46998" lon="6.84125">
        <ele>322.4</ele>
        <time>2022-06-21T09:51:55Z</time>
      </trkpt>
      <trkpt lat="47.4698" lon="6.84134">
        <ele>322.6</ele>
        <time>2022-06-21T09:51:59Z</time>
      </trkpt>
      <trkpt lat="47.4697" lon="6.84139">
        <ele>322.4</ele>
        <time>2022-06-21T09:52:01Z</time>
      </trkpt>
      <trkpt lat="47.46956" lon="6.84144">
        <ele>322.4</ele>
        <time>2022-06-21T09:52:04Z</time>
      </trkpt>
      <trkpt lat="47.46951" lon="6.84145">
        <ele>322.6</ele>
        <time>2022-06-21T09:52:05Z</time>
      </trkpt>
      <trkpt lat="47.46937" lon="6.84152">
        <ele>322.8</ele>
        <time>2022-06-21T09:52:08Z</time>
      </trkpt>
      <trkpt lat="47.46924" lon="6.84162">
        <ele>323</ele>
        <time>2022-06-21T09:52:11Z</time>
      </trkpt>
      <trkpt lat="47.46874" lon="6.84183">
        <ele>323.4</ele>
        <time>2022-06-21T09:52:21Z</time>
      </trkpt>
      <trkpt lat="47.4682" lon="6.84199">
        <ele>323.4</ele>
        <time>2022-06-21T09:52:32Z</time>
      </trkpt>
      <trkpt lat="47.46815" lon="6.842">
        <ele>323.4</ele>
        <time>2022-06-21T09:52:33Z</time>
      </trkpt>
      <trkpt lat="47.46811" lon="6.84201">
        <ele>323.4</ele>
        <time>2022-06-21T09:52:34Z</time>
      </trkpt>
      <trkpt lat="47.46789" lon="6.84202">
        <ele>323.4</ele>
        <time>2022-06-21T09:52:38Z</time>
      </trkpt>
      <trkpt lat="47.46757" lon="6.84201">
        <ele>323.6</ele>
        <time>2022-06-21T09:52:44Z</time>
      </trkpt>
      <trkpt lat="47.46707" lon="6.84196">
        <ele>321.8</ele>
        <time>2022-06-21T09:52:53Z</time>
      </trkpt>
      <trkpt lat="47.46645" lon="6.84196">
        <ele>321.6</ele>
        <time>2022-06-21T09:53:04Z</time>
      </trkpt>
      <trkpt lat="47.46608" lon="6.84198">
        <ele>321.2</ele>
        <time>2022-06-21T09:53:10Z</time>
      </trkpt>
      <trkpt lat="47.46551" lon="6.84209">
        <ele>321.8</ele>
        <time>2022-06-21T09:53:20Z</time>
      </trkpt>
      <trkpt lat="47.46485" lon="6.84217">
        <ele>321.8</ele>
        <time>2022-06-21T09:53:31Z</time>
      </trkpt>
      <trkpt lat="47.46422" lon="6.84213">
        <ele>321.6</ele>
        <time>2022-06-21T09:53:42Z</time>
      </trkpt>
      <trkpt lat="47.4636" lon="6.84212">
        <ele>322</ele>
        <time>2022-06-21T09:53:53Z</time>
      </trkpt>
      <trkpt lat="47.463" lon="6.84209">
        <ele>321.2</ele>
        <time>2022-06-21T09:54:04Z</time>
      </trkpt>
      <trkpt lat="47.46272" lon="6.8421">
        <ele>323</ele>
        <time>2022-06-21T09:54:10Z</time>
      </trkpt>
      <trkpt lat="47.46254" lon="6.8421">
        <ele>323.2</ele>
        <time>2022-06-21T09:54:14Z</time>
      </trkpt>
      <trkpt lat="47.46224" lon="6.84203">
        <ele>322.8</ele>
        <time>2022-06-21T09:54:30Z</time>
      </trkpt>
      <trkpt lat="47.46225" lon="6.84203">
        <ele>322.8</ele>
        <time>2022-06-21T09:54:31Z</time>
      </trkpt>
      <trkpt lat="47.46235" lon="6.84206">
        <ele>322.8</ele>
        <time>2022-06-21T09:54:43Z</time>
      </trkpt>
      <trkpt lat="47.46229" lon="6.84201">
        <ele>322.8</ele>
        <time>2022-06-21T09:54:47Z</time>
      </trkpt>
      <trkpt lat="47.46226" lon="6.84197">
        <ele>322.8</ele>
        <time>2022-06-21T09:54:55Z</time>
      </trkpt>
      <trkpt lat="47.46233" lon="6.84197">
        <ele>322.6</ele>
        <time>2022-06-21T09:55:24Z</time>
      </trkpt>
      <trkpt lat="47.46235" lon="6.84197">
        <ele>322.6</ele>
        <time>2022-06-21T09:55:25Z</time>
      </trkpt>
      <trkpt lat="47.4625" lon="6.84194">
        <ele>322.6</ele>
        <time>2022-06-21T09:55:30Z</time>
      </trkpt>
      <trkpt lat="47.46252" lon="6.84191">
        <ele>322.6</ele>
        <time>2022-06-21T09:55:31Z</time>
      </trkpt>
      <trkpt lat="47.46254" lon="6.84183">
        <ele>322.6</ele>
        <time>2022-06-21T09:55:33Z</time>
      </trkpt>
      <trkpt lat="47.46254" lon="6.84179">
        <ele>322.4</ele>
        <time>2022-06-21T09:55:34Z</time>
      </trkpt>
      <trkpt lat="47.4625" lon="6.84175">
        <ele>322.4</ele>
        <time>2022-06-21T09:55:35Z</time>
      </trkpt>
      <trkpt lat="47.46212" lon="6.84139">
        <ele>321.8</ele>
        <time>2022-06-21T09:55:46Z</time>
      </trkpt>
      <trkpt lat="47.46208" lon="6.84137">
        <ele>321.6</ele>
        <time>2022-06-21T09:55:47Z</time>
      </trkpt>
      <trkpt lat="47.46204" lon="6.84136">
        <ele>321.4</ele>
        <time>2022-06-21T09:55:48Z</time>
      </trkpt>
      <trkpt lat="47.46199" lon="6.84135">
        <ele>321.2</ele>
        <time>2022-06-21T09:55:49Z</time>
      </trkpt>
      <trkpt lat="47.46195" lon="6.84134">
        <ele>321</ele>
        <time>2022-06-21T09:55:50Z</time>
      </trkpt>
      <trkpt lat="47.4619" lon="6.84133">
        <ele>321</ele>
        <time>2022-06-21T09:55:51Z</time>
      </trkpt>
      <trkpt lat="47.46159" lon="6.84121">
        <ele>320.8</ele>
        <time>2022-06-21T09:56:01Z</time>
      </trkpt>
      <trkpt lat="47.46158" lon="6.84121">
        <ele>320.8</ele>
        <time>2022-06-21T09:56:02Z</time>
      </trkpt>
      <trkpt lat="47.46157" lon="6.84123">
        <ele>320.8</ele>
        <time>2022-06-21T09:56:03Z</time>
      </trkpt>
      <trkpt lat="47.46156" lon="6.84129">
        <ele>320.8</ele>
        <time>2022-06-21T09:56:06Z</time>
      </trkpt>
      <trkpt lat="47.46156" lon="6.84128">
        <ele>320.6</ele>
        <time>2022-06-21T09:56:15Z</time>
      </trkpt>
      <trkpt lat="47.46157" lon="6.84128">
        <ele>320.6</ele>
        <time>2022-06-21T09:56:18Z</time>
      </trkpt>
      <trkpt lat="47.46158" lon="6.84128">
        <ele>320.6</ele>
        <time>2022-06-21T09:56:19Z</time>
      </trkpt>
      <trkpt lat="47.4617" lon="6.84127">
        <ele>320.6</ele>
        <time>2022-06-21T09:56:28Z</time>
      </trkpt>
      <trkpt lat="47.46172" lon="6.84129">
        <ele>320.6</ele>
        <time>2022-06-21T09:56:39Z</time>
      </trkpt>
      <trkpt lat="47.46179" lon="6.84134">
        <ele>320.2</ele>
        <time>2022-06-21T09:57:29Z</time>
      </trkpt>
      <trkpt lat="47.46177" lon="6.84133">
        <ele>320.2</ele>
        <time>2022-06-21T09:57:31Z</time>
      </trkpt>
      <trkpt lat="47.46174" lon="6.84128">
        <ele>320.2</ele>
        <time>2022-06-21T09:57:37Z</time>
      </trkpt>
      <trkpt lat="47.46174" lon="6.84127">
        <ele>320.2</ele>
        <time>2022-06-21T09:57:42Z</time>
      </trkpt>
      <trkpt lat="47.46163" lon="6.84143">
        <ele>319.8</ele>
        <time>2022-06-21T09:58:46Z</time>
      </trkpt>
      <trkpt lat="47.46163" lon="6.84145">
        <ele>319.8</ele>
        <time>2022-06-21T09:58:47Z</time>
      </trkpt>
      <trkpt lat="47.46164" lon="6.84147">
        <ele>319.8</ele>
        <time>2022-06-21T09:58:48Z</time>
      </trkpt>
      <trkpt lat="47.46165" lon="6.8415">
        <ele>319.8</ele>
        <time>2022-06-21T09:58:50Z</time>
      </trkpt>
      <trkpt lat="47.46166" lon="6.84151">
        <ele>319.8</ele>
        <time>2022-06-21T09:58:51Z</time>
      </trkpt>
      <trkpt lat="47.46172" lon="6.84148">
        <ele>319.8</ele>
        <time>2022-06-21T09:59:07Z</time>
      </trkpt>
      <trkpt lat="47.46174" lon="6.84126">
        <ele>319.4</ele>
        <time>2022-06-21T09:59:18Z</time>
      </trkpt>
      <trkpt lat="47.46173" lon="6.84126">
        <ele>319.6</ele>
        <time>2022-06-21T09:59:22Z</time>
      </trkpt>
      <trkpt lat="47.46167" lon="6.84131">
        <ele>319.6</ele>
        <time>2022-06-21T09:59:38Z</time>
      </trkpt>
      <trkpt lat="47.46162" lon="6.84131">
        <ele>319.6</ele>
        <time>2022-06-21T09:59:48Z</time>
      </trkpt>
      <trkpt lat="47.46161" lon="6.84132">
        <ele>319.6</ele>
        <time>2022-06-21T09:59:50Z</time>
      </trkpt>
      <trkpt lat="47.46161" lon="6.84131">
        <ele>319.6</ele>
        <time>2022-06-21T09:59:55Z</time>
      </trkpt>
      <trkpt lat="47.46165" lon="6.84119">
        <ele>319.4</ele>
        <time>2022-06-21T10:09:46Z</time>
      </trkpt>
      <trkpt lat="47.46161" lon="6.84122">
        <ele>319.4</ele>
        <time>2022-06-21T10:09:55Z</time>
      </trkpt>
      <trkpt lat="47.46163" lon="6.84118">
        <ele>319.4</ele>
        <time>2022-06-21T10:10:20Z</time>
      </trkpt>
      <trkpt lat="47.46163" lon="6.84118">
        <ele>319.4</ele>
        <time>2022-06-21T10:10:22Z</time>
      </trkpt>
      <trkpt lat="47.46164" lon="6.84119">
        <ele>319.4</ele>
        <time>2022-06-21T10:10:24Z</time>
      </trkpt>
      <trkpt lat="47.46168" lon="6.84121">
        <ele>319.6</ele>
        <time>2022-06-21T10:10:32Z</time>
      </trkpt>
      <trkpt lat="47.46168" lon="6.84121">
        <ele>319.8</ele>
        <time>2022-06-21T10:10:37Z</time>
      </trkpt>
      <trkpt lat="47.46155" lon="6.84135">
        <ele>325.2</ele>
        <time>2022-06-21T10:16:57Z</time>
      </trkpt>
      <trkpt lat="47.46155" lon="6.84137">
        <ele>325.2</ele>
        <time>2022-06-21T10:16:58Z</time>
      </trkpt>
      <trkpt lat="47.46156" lon="6.8414">
        <ele>325.2</ele>
        <time>2022-06-21T10:16:59Z</time>
      </trkpt>
      <trkpt lat="47.46157" lon="6.84143">
        <ele>325.4</ele>
        <time>2022-06-21T10:17:00Z</time>
      </trkpt>
      <trkpt lat="47.46158" lon="6.84146">
        <ele>325.4</ele>
        <time>2022-06-21T10:17:01Z</time>
      </trkpt>
      <trkpt lat="47.46159" lon="6.84148">
        <ele>325.2</ele>
        <time>2022-06-21T10:17:02Z</time>
      </trkpt>
      <trkpt lat="47.4616" lon="6.8415">
        <ele>325</ele>
        <time>2022-06-21T10:17:03Z</time>
      </trkpt>
      <trkpt lat="47.46162" lon="6.84151">
        <ele>324.8</ele>
        <time>2022-06-21T10:17:04Z</time>
      </trkpt>
      <trkpt lat="47.46164" lon="6.84152">
        <ele>324.8</ele>
        <time>2022-06-21T10:17:05Z</time>
      </trkpt>
      <trkpt lat="47.46166" lon="6.84153">
        <ele>324.8</ele>
        <time>2022-06-21T10:17:06Z</time>
      </trkpt>
      <trkpt lat="47.46169" lon="6.84154">
        <ele>325</ele>
        <time>2022-06-21T10:17:07Z</time>
      </trkpt>
      <trkpt lat="47.46172" lon="6.84154">
        <ele>325.4</ele>
        <time>2022-06-21T10:17:08Z</time>
      </trkpt>
      <trkpt lat="47.46197" lon="6.84135">
        <ele>325.4</ele>
        <time>2022-06-21T10:17:18Z</time>
      </trkpt>
      <trkpt lat="47.462" lon="6.84134">
        <ele>325.4</ele>
        <time>2022-06-21T10:17:19Z</time>
      </trkpt>
      <trkpt lat="47.46203" lon="6.84136">
        <ele>325</ele>
        <time>2022-06-21T10:17:20Z</time>
      </trkpt>
      <trkpt lat="47.46206" lon="6.84136">
        <ele>324.8</ele>
        <time>2022-06-21T10:17:21Z</time>
      </trkpt>
      <trkpt lat="47.46208" lon="6.84137">
        <ele>324.8</ele>
        <time>2022-06-21T10:17:22Z</time>
      </trkpt>
      <trkpt lat="47.46211" lon="6.84139">
        <ele>324.8</ele>
        <time>2022-06-21T10:17:23Z</time>
      </trkpt>
      <trkpt lat="47.46213" lon="6.84142">
        <ele>324.8</ele>
        <time>2022-06-21T10:17:24Z</time>
      </trkpt>
      <trkpt lat="47.46214" lon="6.84146">
        <ele>324.8</ele>
        <time>2022-06-21T10:17:25Z</time>
      </trkpt>
      <trkpt lat="47.46214" lon="6.84151">
        <ele>325</ele>
        <time>2022-06-21T10:17:26Z</time>
      </trkpt>
      <trkpt lat="47.46214" lon="6.84154">
        <ele>325.2</ele>
        <time>2022-06-21T10:17:27Z</time>
      </trkpt>
      <trkpt lat="47.46214" lon="6.84156">
        <ele>325.2</ele>
        <time>2022-06-21T10:17:28Z</time>
      </trkpt>
      <trkpt lat="47.46215" lon="6.84157">
        <ele>325.2</ele>
        <time>2022-06-21T10:17:29Z</time>
      </trkpt>
      <trkpt lat="47.46216" lon="6.84158">
        <ele>325.4</ele>
        <time>2022-06-21T10:17:30Z</time>
      </trkpt>
      <trkpt lat="47.46218" lon="6.84157">
        <ele>325.4</ele>
        <time>2022-06-21T10:17:31Z</time>
      </trkpt>
      <trkpt lat="47.4622" lon="6.84156">
        <ele>325.4</ele>
        <time>2022-06-21T10:17:32Z</time>
      </trkpt>
      <trkpt lat="47.46222" lon="6.84156">
        <ele>325.6</ele>
        <time>2022-06-21T10:17:33Z</time>
      </trkpt>
      <trkpt lat="47.46225" lon="6.84157">
        <ele>325.6</ele>
        <time>2022-06-21T10:17:34Z</time>
      </trkpt>
      <trkpt lat="47.46226" lon="6.84158">
        <ele>325.6</ele>
        <time>2022-06-21T10:17:35Z</time>
      </trkpt>
      <trkpt lat="47.46227" lon="6.84161">
        <ele>325.8</ele>
        <time>2022-06-21T10:17:36Z</time>
      </trkpt>
      <trkpt lat="47.46229" lon="6.84163">
        <ele>325.8</ele>
        <time>2022-06-21T10:17:37Z</time>
      </trkpt>
      <trkpt lat="47.46232" lon="6.84197">
        <ele>326.6</ele>
        <time>2022-06-21T10:17:47Z</time>
      </trkpt>
      <trkpt lat="47.46235" lon="6.84213">
        <ele>326.6</ele>
        <time>2022-06-21T10:17:52Z</time>
      </trkpt>
      <trkpt lat="47.46178" lon="6.84224">
        <ele>327.2</ele>
        <time>2022-06-21T10:18:14Z</time>
      </trkpt>
      <trkpt lat="47.46113" lon="6.84201">
        <ele>328</ele>
        <time>2022-06-21T10:18:31Z</time>
      </trkpt>
      <trkpt lat="47.46043" lon="6.84176">
        <ele>329.6</ele>
        <time>2022-06-21T10:18:52Z</time>
      </trkpt>
      <trkpt lat="47.46036" lon="6.84182">
        <ele>330</ele>
        <time>2022-06-21T10:18:55Z</time>
      </trkpt>
      <trkpt lat="47.46034" lon="6.84182">
        <ele>330</ele>
        <time>2022-06-21T10:18:56Z</time>
      </trkpt>
      <trkpt lat="47.46032" lon="6.84181">
        <ele>330.2</ele>
        <time>2022-06-21T10:18:57Z</time>
      </trkpt>
      <trkpt lat="47.4603" lon="6.8418">
        <ele>330.2</ele>
        <time>2022-06-21T10:18:58Z</time>
      </trkpt>
      <trkpt lat="47.46028" lon="6.8418">
        <ele>330.2</ele>
        <time>2022-06-21T10:18:59Z</time>
      </trkpt>
      <trkpt lat="47.46025" lon="6.84179">
        <ele>330.4</ele>
        <time>2022-06-21T10:19:00Z</time>
      </trkpt>
      <trkpt lat="47.46023" lon="6.84177">
        <ele>330.4</ele>
        <time>2022-06-21T10:19:01Z</time>
      </trkpt>
      <trkpt lat="47.46014" lon="6.84172">
        <ele>330</ele>
        <time>2022-06-21T10:19:06Z</time>
      </trkpt>
      <trkpt lat="47.45963" lon="6.84137">
        <ele>329</ele>
        <time>2022-06-21T10:19:22Z</time>
      </trkpt>
      <trkpt lat="47.45908" lon="6.84102">
        <ele>328.8</ele>
        <time>2022-06-21T10:19:34Z</time>
      </trkpt>
      <trkpt lat="47.45855" lon="6.84069">
        <ele>327.4</ele>
        <time>2022-06-21T10:19:45Z</time>
      </trkpt>
      <trkpt lat="47.45801" lon="6.84045">
        <ele>325.6</ele>
        <time>2022-06-21T10:19:56Z</time>
      </trkpt>
      <trkpt lat="47.4574" lon="6.84029">
        <ele>325.6</ele>
        <time>2022-06-21T10:20:08Z</time>
      </trkpt>
      <trkpt lat="47.4568" lon="6.84021">
        <ele>326.8</ele>
        <time>2022-06-21T10:20:21Z</time>
      </trkpt>
      <trkpt lat="47.45668" lon="6.84018">
        <ele>326.8</ele>
        <time>2022-06-21T10:20:24Z</time>
      </trkpt>
      <trkpt lat="47.45664" lon="6.84017">
        <ele>326</ele>
        <time>2022-06-21T10:20:25Z</time>
      </trkpt>
      <trkpt lat="47.45659" lon="6.84016">
        <ele>325.6</ele>
        <time>2022-06-21T10:20:26Z</time>
      </trkpt>
      <trkpt lat="47.45655" lon="6.84015">
        <ele>325.4</ele>
        <time>2022-06-21T10:20:27Z</time>
      </trkpt>
      <trkpt lat="47.45627" lon="6.84015">
        <ele>325.6</ele>
        <time>2022-06-21T10:20:33Z</time>
      </trkpt>
      <trkpt lat="47.45623" lon="6.84015">
        <ele>325.6</ele>
        <time>2022-06-21T10:20:34Z</time>
      </trkpt>
      <trkpt lat="47.45561" lon="6.84004">
        <ele>326</ele>
        <time>2022-06-21T10:20:47Z</time>
      </trkpt>
      <trkpt lat="47.45501" lon="6.83987">
        <ele>326.2</ele>
        <time>2022-06-21T10:21:00Z</time>
      </trkpt>
      <trkpt lat="47.45497" lon="6.83987">
        <ele>326.4</ele>
        <time>2022-06-21T10:21:01Z</time>
      </trkpt>
      <trkpt lat="47.45488" lon="6.83986">
        <ele>326.4</ele>
        <time>2022-06-21T10:21:03Z</time>
      </trkpt>
      <trkpt lat="47.45476" lon="6.83985">
        <ele>327.8</ele>
        <time>2022-06-21T10:21:06Z</time>
      </trkpt>
      <trkpt lat="47.45416" lon="6.83964">
        <ele>328.4</ele>
        <time>2022-06-21T10:21:20Z</time>
      </trkpt>
      <trkpt lat="47.45356" lon="6.83946">
        <ele>328.2</ele>
        <time>2022-06-21T10:21:33Z</time>
      </trkpt>
      <trkpt lat="47.45297" lon="6.83941">
        <ele>328.4</ele>
        <time>2022-06-21T10:21:49Z</time>
      </trkpt>
      <trkpt lat="47.45236" lon="6.83921">
        <ele>328.8</ele>
        <time>2022-06-21T10:22:13Z</time>
      </trkpt>
      <trkpt lat="47.45186" lon="6.83878">
        <ele>329.2</ele>
        <time>2022-06-21T10:22:28Z</time>
      </trkpt>
      <trkpt lat="47.45158" lon="6.83896">
        <ele>328.6</ele>
        <time>2022-06-21T10:22:36Z</time>
      </trkpt>
      <trkpt lat="47.45153" lon="6.83898">
        <ele>328.6</ele>
        <time>2022-06-21T10:22:37Z</time>
      </trkpt>
      <trkpt lat="47.45149" lon="6.839">
        <ele>328.8</ele>
        <time>2022-06-21T10:22:38Z</time>
      </trkpt>
      <trkpt lat="47.45144" lon="6.83902">
        <ele>328.8</ele>
        <time>2022-06-21T10:22:39Z</time>
      </trkpt>
      <trkpt lat="47.4514" lon="6.83903">
        <ele>328.8</ele>
        <time>2022-06-21T10:22:40Z</time>
      </trkpt>
      <trkpt lat="47.45135" lon="6.83904">
        <ele>328.8</ele>
        <time>2022-06-21T10:22:41Z</time>
      </trkpt>
      <trkpt lat="47.45074" lon="6.83902">
        <ele>328</ele>
        <time>2022-06-21T10:22:53Z</time>
      </trkpt>
      <trkpt lat="47.45013" lon="6.83877">
        <ele>327.2</ele>
        <time>2022-06-21T10:23:05Z</time>
      </trkpt>
      <trkpt lat="47.45001" lon="6.83871">
        <ele>327.4</ele>
        <time>2022-06-21T10:23:08Z</time>
      </trkpt>
      <trkpt lat="47.44997" lon="6.83867">
        <ele>327.4</ele>
        <time>2022-06-21T10:23:09Z</time>
      </trkpt>
      <trkpt lat="47.44994" lon="6.83864">
        <ele>327.4</ele>
        <time>2022-06-21T10:23:10Z</time>
      </trkpt>
      <trkpt lat="47.44992" lon="6.83861">
        <ele>327.4</ele>
        <time>2022-06-21T10:23:11Z</time>
      </trkpt>
      <trkpt lat="47.44988" lon="6.83859">
        <ele>327.4</ele>
        <time>2022-06-21T10:23:12Z</time>
      </trkpt>
      <trkpt lat="47.44936" lon="6.8383">
        <ele>327.8</ele>
        <time>2022-06-21T10:23:27Z</time>
      </trkpt>
      <trkpt lat="47.44929" lon="6.83822">
        <ele>327.8</ele>
        <time>2022-06-21T10:23:29Z</time>
      </trkpt>
      <trkpt lat="47.44897" lon="6.83753">
        <ele>328.2</ele>
        <time>2022-06-21T10:23:42Z</time>
      </trkpt>
      <trkpt lat="47.44864" lon="6.83684">
        <ele>328</ele>
        <time>2022-06-21T10:23:53Z</time>
      </trkpt>
      <trkpt lat="47.44823" lon="6.83624">
        <ele>328.6</ele>
        <time>2022-06-21T10:24:05Z</time>
      </trkpt>
      <trkpt lat="47.44786" lon="6.83555">
        <ele>329</ele>
        <time>2022-06-21T10:24:18Z</time>
      </trkpt>
      <trkpt lat="47.44754" lon="6.83482">
        <ele>329.2</ele>
        <time>2022-06-21T10:24:42Z</time>
      </trkpt>
      <trkpt lat="47.44727" lon="6.83409">
        <ele>329.8</ele>
        <time>2022-06-21T10:24:55Z</time>
      </trkpt>
      <trkpt lat="47.44702" lon="6.83333">
        <ele>330</ele>
        <time>2022-06-21T10:25:07Z</time>
      </trkpt>
      <trkpt lat="47.44695" lon="6.83309">
        <ele>330.2</ele>
        <time>2022-06-21T10:25:11Z</time>
      </trkpt>
      <trkpt lat="47.44694" lon="6.83254">
        <ele>330.6</ele>
        <time>2022-06-21T10:25:19Z</time>
      </trkpt>
      <trkpt lat="47.44696" lon="6.83247">
        <ele>330.6</ele>
        <time>2022-06-21T10:25:20Z</time>
      </trkpt>
      <trkpt lat="47.44708" lon="6.83204">
        <ele>330.4</ele>
        <time>2022-06-21T10:25:26Z</time>
      </trkpt>
      <trkpt lat="47.44715" lon="6.83169">
        <ele>330.4</ele>
        <time>2022-06-21T10:25:31Z</time>
      </trkpt>
      <trkpt lat="47.44716" lon="6.83162">
        <ele>330.4</ele>
        <time>2022-06-21T10:25:32Z</time>
      </trkpt>
      <trkpt lat="47.44716" lon="6.83137">
        <ele>330.2</ele>
        <time>2022-06-21T10:25:36Z</time>
      </trkpt>
      <trkpt lat="47.44716" lon="6.8313">
        <ele>330.4</ele>
        <time>2022-06-21T10:25:37Z</time>
      </trkpt>
      <trkpt lat="47.44697" lon="6.83052">
        <ele>330.8</ele>
        <time>2022-06-21T10:25:48Z</time>
      </trkpt>
      <trkpt lat="47.44674" lon="6.82975">
        <ele>330.8</ele>
        <time>2022-06-21T10:25:59Z</time>
      </trkpt>
      <trkpt lat="47.44647" lon="6.82902">
        <ele>330.8</ele>
        <time>2022-06-21T10:26:10Z</time>
      </trkpt>
      <trkpt lat="47.44621" lon="6.8282">
        <ele>331.2</ele>
        <time>2022-06-21T10:26:22Z</time>
      </trkpt>
      <trkpt lat="47.44619" lon="6.82808">
        <ele>331.2</ele>
        <time>2022-06-21T10:26:24Z</time>
      </trkpt>
      <trkpt lat="47.44607" lon="6.82765">
        <ele>331.8</ele>
        <time>2022-06-21T10:26:31Z</time>
      </trkpt>
      <trkpt lat="47.44591" lon="6.82683">
        <ele>331.8</ele>
        <time>2022-06-21T10:26:43Z</time>
      </trkpt>
      <trkpt lat="47.44582" lon="6.82628">
        <ele>331.4</ele>
        <time>2022-06-21T10:26:51Z</time>
      </trkpt>
      <trkpt lat="47.4457" lon="6.82543">
        <ele>332.2</ele>
        <time>2022-06-21T10:27:02Z</time>
      </trkpt>
      <trkpt lat="47.44559" lon="6.82454">
        <ele>331.8</ele>
        <time>2022-06-21T10:27:13Z</time>
      </trkpt>
      <trkpt lat="47.44549" lon="6.8237">
        <ele>331.8</ele>
        <time>2022-06-21T10:27:24Z</time>
      </trkpt>
      <trkpt lat="47.44537" lon="6.8228">
        <ele>331.6</ele>
        <time>2022-06-21T10:27:35Z</time>
      </trkpt>
      <trkpt lat="47.44527" lon="6.82196">
        <ele>331.2</ele>
        <time>2022-06-21T10:27:46Z</time>
      </trkpt>
      <trkpt lat="47.44516" lon="6.82109">
        <ele>332</ele>
        <time>2022-06-21T10:27:58Z</time>
      </trkpt>
      <trkpt lat="47.44505" lon="6.82023">
        <ele>331.8</ele>
        <time>2022-06-21T10:28:10Z</time>
      </trkpt>
      <trkpt lat="47.44493" lon="6.81934">
        <ele>332</ele>
        <time>2022-06-21T10:28:22Z</time>
      </trkpt>
      <trkpt lat="47.44486" lon="6.81882">
        <ele>331.8</ele>
        <time>2022-06-21T10:28:29Z</time>
      </trkpt>
      <trkpt lat="47.44476" lon="6.81795">
        <ele>331.6</ele>
        <time>2022-06-21T10:28:40Z</time>
      </trkpt>
      <trkpt lat="47.44465" lon="6.81709">
        <ele>332.2</ele>
        <time>2022-06-21T10:28:51Z</time>
      </trkpt>
      <trkpt lat="47.44464" lon="6.81702">
        <ele>332.4</ele>
        <time>2022-06-21T10:28:52Z</time>
      </trkpt>
      <trkpt lat="47.44464" lon="6.81694">
        <ele>332.6</ele>
        <time>2022-06-21T10:28:53Z</time>
      </trkpt>
      <trkpt lat="47.44464" lon="6.81686">
        <ele>332.8</ele>
        <time>2022-06-21T10:28:54Z</time>
      </trkpt>
      <trkpt lat="47.44465" lon="6.81678">
        <ele>332.8</ele>
        <time>2022-06-21T10:28:55Z</time>
      </trkpt>
      <trkpt lat="47.44467" lon="6.81671">
        <ele>332.6</ele>
        <time>2022-06-21T10:28:56Z</time>
      </trkpt>
      <trkpt lat="47.44469" lon="6.81663">
        <ele>332.6</ele>
        <time>2022-06-21T10:28:57Z</time>
      </trkpt>
      <trkpt lat="47.44471" lon="6.81657">
        <ele>332.4</ele>
        <time>2022-06-21T10:28:58Z</time>
      </trkpt>
      <trkpt lat="47.44491" lon="6.81616">
        <ele>334.2</ele>
        <time>2022-06-21T10:29:04Z</time>
      </trkpt>
      <trkpt lat="47.44495" lon="6.8161">
        <ele>334</ele>
        <time>2022-06-21T10:29:05Z</time>
      </trkpt>
      <trkpt lat="47.44545" lon="6.81563">
        <ele>334</ele>
        <time>2022-06-21T10:29:16Z</time>
      </trkpt>
      <trkpt lat="47.44593" lon="6.81512">
        <ele>333.6</ele>
        <time>2022-06-21T10:29:27Z</time>
      </trkpt>
      <trkpt lat="47.44645" lon="6.81464">
        <ele>333.8</ele>
        <time>2022-06-21T10:29:38Z</time>
      </trkpt>
      <trkpt lat="47.44696" lon="6.81415">
        <ele>334.2</ele>
        <time>2022-06-21T10:29:49Z</time>
      </trkpt>
      <trkpt lat="47.44746" lon="6.81367">
        <ele>333.8</ele>
        <time>2022-06-21T10:30:00Z</time>
      </trkpt>
      <trkpt lat="47.44786" lon="6.81328">
        <ele>334</ele>
        <time>2022-06-21T10:30:09Z</time>
      </trkpt>
      <trkpt lat="47.44794" lon="6.8132">
        <ele>334</ele>
        <time>2022-06-21T10:30:11Z</time>
      </trkpt>
      <trkpt lat="47.44842" lon="6.81271">
        <ele>334.2</ele>
        <time>2022-06-21T10:30:22Z</time>
      </trkpt>
      <trkpt lat="47.44889" lon="6.81222">
        <ele>334.6</ele>
        <time>2022-06-21T10:30:33Z</time>
      </trkpt>
      <trkpt lat="47.44935" lon="6.81173">
        <ele>334</ele>
        <time>2022-06-21T10:30:44Z</time>
      </trkpt>
      <trkpt lat="47.44958" lon="6.8115">
        <ele>333.2</ele>
        <time>2022-06-21T10:30:49Z</time>
      </trkpt>
      <trkpt lat="47.44963" lon="6.81145">
        <ele>333.2</ele>
        <time>2022-06-21T10:30:50Z</time>
      </trkpt>
      <trkpt lat="47.45" lon="6.81117">
        <ele>332.8</ele>
        <time>2022-06-21T10:30:58Z</time>
      </trkpt>
      <trkpt lat="47.45034" lon="6.81102">
        <ele>333.2</ele>
        <time>2022-06-21T10:31:05Z</time>
      </trkpt>
      <trkpt lat="47.45039" lon="6.81098">
        <ele>333.4</ele>
        <time>2022-06-21T10:31:06Z</time>
      </trkpt>
      <trkpt lat="47.45043" lon="6.81094">
        <ele>333.4</ele>
        <time>2022-06-21T10:31:07Z</time>
      </trkpt>
      <trkpt lat="47.45047" lon="6.81089">
        <ele>333.4</ele>
        <time>2022-06-21T10:31:08Z</time>
      </trkpt>
      <trkpt lat="47.45051" lon="6.81084">
        <ele>333.4</ele>
        <time>2022-06-21T10:31:09Z</time>
      </trkpt>
      <trkpt lat="47.45089" lon="6.8102">
        <ele>334.2</ele>
        <time>2022-06-21T10:31:20Z</time>
      </trkpt>
      <trkpt lat="47.45116" lon="6.80945">
        <ele>335.6</ele>
        <time>2022-06-21T10:31:32Z</time>
      </trkpt>
      <trkpt lat="47.45117" lon="6.80939">
        <ele>335.8</ele>
        <time>2022-06-21T10:31:33Z</time>
      </trkpt>
      <trkpt lat="47.45118" lon="6.80932">
        <ele>336</ele>
        <time>2022-06-21T10:31:34Z</time>
      </trkpt>
      <trkpt lat="47.45118" lon="6.80908">
        <ele>336</ele>
        <time>2022-06-21T10:31:38Z</time>
      </trkpt>
      <trkpt lat="47.45118" lon="6.80901">
        <ele>336</ele>
        <time>2022-06-21T10:31:39Z</time>
      </trkpt>
      <trkpt lat="47.45119" lon="6.80875">
        <ele>336.2</ele>
        <time>2022-06-21T10:31:43Z</time>
      </trkpt>
      <trkpt lat="47.45119" lon="6.80868">
        <ele>336.2</ele>
        <time>2022-06-21T10:31:44Z</time>
      </trkpt>
      <trkpt lat="47.4513" lon="6.8078">
        <ele>337</ele>
        <time>2022-06-21T10:31:58Z</time>
      </trkpt>
      <trkpt lat="47.45144" lon="6.80696">
        <ele>337.2</ele>
        <time>2022-06-21T10:32:12Z</time>
      </trkpt>
      <trkpt lat="47.45152" lon="6.80612">
        <ele>338</ele>
        <time>2022-06-21T10:32:27Z</time>
      </trkpt>
      <trkpt lat="47.45156" lon="6.8057">
        <ele>337.8</ele>
        <time>2022-06-21T10:32:34Z</time>
      </trkpt>
      <trkpt lat="47.45156" lon="6.8055">
        <ele>337.6</ele>
        <time>2022-06-21T10:32:37Z</time>
      </trkpt>
      <trkpt lat="47.45157" lon="6.80531">
        <ele>338</ele>
        <time>2022-06-21T10:32:40Z</time>
      </trkpt>
      <trkpt lat="47.45159" lon="6.80443">
        <ele>338.8</ele>
        <time>2022-06-21T10:32:54Z</time>
      </trkpt>
      <trkpt lat="47.45162" lon="6.80381">
        <ele>338.8</ele>
        <time>2022-06-21T10:33:06Z</time>
      </trkpt>
      <trkpt lat="47.45166" lon="6.80378">
        <ele>338.8</ele>
        <time>2022-06-21T10:33:07Z</time>
      </trkpt>
      <trkpt lat="47.45171" lon="6.80376">
        <ele>338.6</ele>
        <time>2022-06-21T10:33:08Z</time>
      </trkpt>
      <trkpt lat="47.45221" lon="6.80334">
        <ele>337</ele>
        <time>2022-06-21T10:33:19Z</time>
      </trkpt>
      <trkpt lat="47.45268" lon="6.80281">
        <ele>336.2</ele>
        <time>2022-06-21T10:33:30Z</time>
      </trkpt>
      <trkpt lat="47.45272" lon="6.80276">
        <ele>336.2</ele>
        <time>2022-06-21T10:33:31Z</time>
      </trkpt>
      <trkpt lat="47.4528" lon="6.80266">
        <ele>336.2</ele>
        <time>2022-06-21T10:33:33Z</time>
      </trkpt>
      <trkpt lat="47.45284" lon="6.8026">
        <ele>336.2</ele>
        <time>2022-06-21T10:33:34Z</time>
      </trkpt>
      <trkpt lat="47.45308" lon="6.8023">
        <ele>336.6</ele>
        <time>2022-06-21T10:33:40Z</time>
      </trkpt>
      <trkpt lat="47.45323" lon="6.80204">
        <ele>335.8</ele>
        <time>2022-06-21T10:33:46Z</time>
      </trkpt>
      <trkpt lat="47.45321" lon="6.80202">
        <ele>335.8</ele>
        <time>2022-06-21T10:33:47Z</time>
      </trkpt>
      <trkpt lat="47.4532" lon="6.80203">
        <ele>335.8</ele>
        <time>2022-06-21T10:33:48Z</time>
      </trkpt>
      <trkpt lat="47.45318" lon="6.80205">
        <ele>335.8</ele>
        <time>2022-06-21T10:33:49Z</time>
      </trkpt>
      <trkpt lat="47.45317" lon="6.80208">
        <ele>335.8</ele>
        <time>2022-06-21T10:33:50Z</time>
      </trkpt>
      <trkpt lat="47.45316" lon="6.80212">
        <ele>336</ele>
        <time>2022-06-21T10:33:51Z</time>
      </trkpt>
      <trkpt lat="47.45315" lon="6.80217">
        <ele>336</ele>
        <time>2022-06-21T10:33:52Z</time>
      </trkpt>
      <trkpt lat="47.45315" lon="6.80222">
        <ele>336</ele>
        <time>2022-06-21T10:33:53Z</time>
      </trkpt>
      <trkpt lat="47.45315" lon="6.80229">
        <ele>335.8</ele>
        <time>2022-06-21T10:33:54Z</time>
      </trkpt>
      <trkpt lat="47.45316" lon="6.80235">
        <ele>335.8</ele>
        <time>2022-06-21T10:33:55Z</time>
      </trkpt>
      <trkpt lat="47.45318" lon="6.80241">
        <ele>335.8</ele>
        <time>2022-06-21T10:33:56Z</time>
      </trkpt>
      <trkpt lat="47.4532" lon="6.80248">
        <ele>335.8</ele>
        <time>2022-06-21T10:33:57Z</time>
      </trkpt>
      <trkpt lat="47.45323" lon="6.80254">
        <ele>335.8</ele>
        <time>2022-06-21T10:33:58Z</time>
      </trkpt>
      <trkpt lat="47.45359" lon="6.80326">
        <ele>335.6</ele>
        <time>2022-06-21T10:34:11Z</time>
      </trkpt>
      <trkpt lat="47.45371" lon="6.80346">
        <ele>335.4</ele>
        <time>2022-06-21T10:34:15Z</time>
      </trkpt>
      <trkpt lat="47.45401" lon="6.80389">
        <ele>335.2</ele>
        <time>2022-06-21T10:34:24Z</time>
      </trkpt>
      <trkpt lat="47.45418" lon="6.80405">
        <ele>335.4</ele>
        <time>2022-06-21T10:34:28Z</time>
      </trkpt>
      <trkpt lat="47.45423" lon="6.80408">
        <ele>335.4</ele>
        <time>2022-06-21T10:34:29Z</time>
      </trkpt>
      <trkpt lat="47.45427" lon="6.80411">
        <ele>335.6</ele>
        <time>2022-06-21T10:34:30Z</time>
      </trkpt>
      <trkpt lat="47.45432" lon="6.80416">
        <ele>335.4</ele>
        <time>2022-06-21T10:34:31Z</time>
      </trkpt>
      <trkpt lat="47.45436" lon="6.8042">
        <ele>335.4</ele>
        <time>2022-06-21T10:34:32Z</time>
      </trkpt>
      <trkpt lat="47.45445" lon="6.8043">
        <ele>335.2</ele>
        <time>2022-06-21T10:34:34Z</time>
      </trkpt>
      <trkpt lat="47.45495" lon="6.80481">
        <ele>335.4</ele>
        <time>2022-06-21T10:34:46Z</time>
      </trkpt>
      <trkpt lat="47.45515" lon="6.80498">
        <ele>335.8</ele>
        <time>2022-06-21T10:34:51Z</time>
      </trkpt>
      <trkpt lat="47.45518" lon="6.80503">
        <ele>336</ele>
        <time>2022-06-21T10:34:52Z</time>
      </trkpt>
      <trkpt lat="47.45521" lon="6.80506">
        <ele>336</ele>
        <time>2022-06-21T10:34:53Z</time>
      </trkpt>
      <trkpt lat="47.45524" lon="6.80509">
        <ele>335.8</ele>
        <time>2022-06-21T10:34:54Z</time>
      </trkpt>
      <trkpt lat="47.45528" lon="6.8051">
        <ele>335.8</ele>
        <time>2022-06-21T10:34:55Z</time>
      </trkpt>
      <trkpt lat="47.45532" lon="6.80509">
        <ele>335.6</ele>
        <time>2022-06-21T10:34:56Z</time>
      </trkpt>
      <trkpt lat="47.45535" lon="6.80507">
        <ele>335.6</ele>
        <time>2022-06-21T10:34:57Z</time>
      </trkpt>
      <trkpt lat="47.45538" lon="6.80504">
        <ele>335.6</ele>
        <time>2022-06-21T10:34:58Z</time>
      </trkpt>
      <trkpt lat="47.45541" lon="6.80501">
        <ele>335.4</ele>
        <time>2022-06-21T10:34:59Z</time>
      </trkpt>
      <trkpt lat="47.45543" lon="6.805">
        <ele>335.4</ele>
        <time>2022-06-21T10:35:00Z</time>
      </trkpt>
      <trkpt lat="47.45546" lon="6.805">
        <ele>335.4</ele>
        <time>2022-06-21T10:35:01Z</time>
      </trkpt>
      <trkpt lat="47.45548" lon="6.80501">
        <ele>335.2</ele>
        <time>2022-06-21T10:35:02Z</time>
      </trkpt>
      <trkpt lat="47.45549" lon="6.80501">
        <ele>335.2</ele>
        <time>2022-06-21T10:35:03Z</time>
      </trkpt>
      <trkpt lat="47.45551" lon="6.80501">
        <ele>335.2</ele>
        <time>2022-06-21T10:35:04Z</time>
      </trkpt>
      <trkpt lat="47.45565" lon="6.80512">
        <ele>334.4</ele>
        <time>2022-06-21T10:35:14Z</time>
      </trkpt>
      <trkpt lat="47.45566" lon="6.80511">
        <ele>334.4</ele>
        <time>2022-06-21T10:35:18Z</time>
      </trkpt>
    </trkseg>
  </trk>
</gpx>